<?xml version="1.0" encoding="UTF-8" standalone="no" ?>
<gpx xmlns="http://www.topografix.com/GPX/1/1" xmlns:xsi="http://www.w3.org/2001/XMLSchema-instance" xsi:schemaLocation="http://www.topografix.com/GPX/1/1 http://www.topografix.com/GPX/1/1/gpx.xsd" version="1.1" creator="VisuGPX - https://www.visugpx.com">
  <metadata>
    <name>petite sortie du 4 juillet 2022 (seul)</name>
    <desc><![CDATA[Heure de départ: 09:59 Heure d'arrivée: 11:30 Distance: 13,1 km (01:31)
Temps déplacement: 01:15 (et 1/4 h de discussion avec Jacky)
Pensant qu'il allait faire très chaud, je suis parti le matin pour grimper 3 côtes (la Planche des belles filles n'en fait pas partie ...) : 
- la côte du cimetière, 
- la montée de Fanicamp, 
- celle du château de Colombier 
Après Fanicamp, vers le Tourteret (km 7) j'ai pris à droite entre 2 champs  pour redescendre sur Colombier (et j'ai vérifié que je n'avais pas attrapé de tique dans l'herbe)
Naturellement j'ai eu chaud, mais la piscine à 26° m'a efficacement rafraichi.]]></desc>
  </metadata>
  <wpt lat="47.64444" lon="6.18294">
    <ele>223.6</ele>
    <name><![CDATA[0000488]]></name>
    <type><![CDATA[Point de départ]]></type>
  </wpt>
  <wpt lat="47.64443" lon="6.18315">
    <ele>224.6</ele>
    <name><![CDATA[0000489]]></name>
    <desc><![CDATA[<p><br /><h3>Nom: Segment: 1</h3><br />Heure de départ: 07/04/2022 09:59<br/>Heure d'arrivée: 07/04/2022 11:30<br/>Distance: 13,1km (01:31)<br/>Temps déplacement: 01:15<br/>Vitesse moyenne: 8,56 km/h<br/>Vitesse moyenne mouv.: 10,33 km/h<br/>Vitesse Max.: 43,23 km/h<br/>Altitude minimale: 221 m<br/>Altitude maximale: 335 m<br/>Vitesse de montée: 533,1 m/h<br/>Vitesse de descente: -1246,1 m/h<br/>Gain d'altitude: 454 m<br/>Perte d'altitude: -456 m<br/>Temps de montée: 00:51<br/>Temps de descente: 00:21<br/></p>]]></desc>
    <type><![CDATA[Point d'arrivée]]></type>
  </wpt>
  <trk>
    <name><![CDATA[2022-07-04 09:59]]></name>
    <desc><![CDATA[<p>Heure de départ: 07/04/2022 09:59<br/>Heure d'arrivée: 07/04/2022 11:30<br/>Distance: 13,1 km (01:31)<br/>Temps déplacement: 01:15<br/>Vitesse moyenne: 8,56 km/h<br/>Vitesse moyenne mouv.: 10,34 km/h<br/>Vitesse Max.: 43,23 km/h<br/>Altitude minimale: 221 m<br/>Altitude maximale: 335 m<br/>Vitesse de montée: 286,3 m/h<br/>Vitesse de descente: -837,2 m/h<br/>Gain d'altitude: 316 m<br/>Perte d'altitude: -305 m<br/>Temps de montée: 01:06<br/>Temps de descente: 00:21<br/></p><hr align="center" width="480" style="height: 2px; width: 517px"/>]]></desc>
    <trkseg>
      <trkpt lat="47.64444" lon="6.18294">
        <ele>223.6</ele>
        <time>2022-07-04T07:59:21Z</time>
      </trkpt>
      <trkpt lat="47.64441" lon="6.18283">
        <ele>223.1</ele>
        <time>2022-07-04T07:59:22Z</time>
      </trkpt>
      <trkpt lat="47.64437" lon="6.18286">
        <ele>223</ele>
        <time>2022-07-04T07:59:23Z</time>
      </trkpt>
      <trkpt lat="47.64433" lon="6.1829">
        <ele>223</ele>
        <time>2022-07-04T07:59:26Z</time>
      </trkpt>
      <trkpt lat="47.64427" lon="6.18284">
        <ele>222.6</ele>
        <time>2022-07-04T07:59:36Z</time>
      </trkpt>
      <trkpt lat="47.64427" lon="6.18276">
        <ele>222.3</ele>
        <time>2022-07-04T07:59:38Z</time>
      </trkpt>
      <trkpt lat="47.64425" lon="6.18263">
        <ele>222.1</ele>
        <time>2022-07-04T07:59:45Z</time>
      </trkpt>
      <trkpt lat="47.64422" lon="6.18268">
        <ele>222.1</ele>
        <time>2022-07-04T07:59:48Z</time>
      </trkpt>
      <trkpt lat="47.64422" lon="6.18282">
        <ele>222.3</ele>
        <time>2022-07-04T07:59:53Z</time>
      </trkpt>
      <trkpt lat="47.64436" lon="6.18308">
        <ele>223.8</ele>
        <time>2022-07-04T07:59:54Z</time>
      </trkpt>
      <trkpt lat="47.64438" lon="6.18315">
        <ele>224.4</ele>
        <time>2022-07-04T07:59:57Z</time>
      </trkpt>
      <trkpt lat="47.64433" lon="6.18321">
        <ele>224.5</ele>
        <time>2022-07-04T08:00:00Z</time>
      </trkpt>
      <trkpt lat="47.64428" lon="6.18323">
        <ele>224.3</ele>
        <time>2022-07-04T08:00:02Z</time>
      </trkpt>
      <trkpt lat="47.64424" lon="6.18326">
        <ele>224.2</ele>
        <time>2022-07-04T08:00:04Z</time>
      </trkpt>
      <trkpt lat="47.64419" lon="6.18329">
        <ele>224</ele>
        <time>2022-07-04T08:00:06Z</time>
      </trkpt>
      <trkpt lat="47.64413" lon="6.18334">
        <ele>223.9</ele>
        <time>2022-07-04T08:00:09Z</time>
      </trkpt>
      <trkpt lat="47.64408" lon="6.1834">
        <ele>224.1</ele>
        <time>2022-07-04T08:00:12Z</time>
      </trkpt>
      <trkpt lat="47.64403" lon="6.18346">
        <ele>224.2</ele>
        <time>2022-07-04T08:00:15Z</time>
      </trkpt>
      <trkpt lat="47.64398" lon="6.18351">
        <ele>224.2</ele>
        <time>2022-07-04T08:00:18Z</time>
      </trkpt>
      <trkpt lat="47.64395" lon="6.18356">
        <ele>224.2</ele>
        <time>2022-07-04T08:00:20Z</time>
      </trkpt>
      <trkpt lat="47.6439" lon="6.18361">
        <ele>224.1</ele>
        <time>2022-07-04T08:00:23Z</time>
      </trkpt>
      <trkpt lat="47.64386" lon="6.18365">
        <ele>224.1</ele>
        <time>2022-07-04T08:00:25Z</time>
      </trkpt>
      <trkpt lat="47.6438" lon="6.18369">
        <ele>224.2</ele>
        <time>2022-07-04T08:00:27Z</time>
      </trkpt>
      <trkpt lat="47.64375" lon="6.18372">
        <ele>224.1</ele>
        <time>2022-07-04T08:00:29Z</time>
      </trkpt>
      <trkpt lat="47.6437" lon="6.18375">
        <ele>224</ele>
        <time>2022-07-04T08:00:31Z</time>
      </trkpt>
      <trkpt lat="47.64364" lon="6.18377">
        <ele>223.7</ele>
        <time>2022-07-04T08:00:34Z</time>
      </trkpt>
      <trkpt lat="47.64359" lon="6.18382">
        <ele>223.7</ele>
        <time>2022-07-04T08:00:37Z</time>
      </trkpt>
      <trkpt lat="47.64355" lon="6.18388">
        <ele>223.8</ele>
        <time>2022-07-04T08:00:40Z</time>
      </trkpt>
      <trkpt lat="47.64352" lon="6.18395">
        <ele>224</ele>
        <time>2022-07-04T08:00:44Z</time>
      </trkpt>
      <trkpt lat="47.64348" lon="6.18403">
        <ele>224.3</ele>
        <time>2022-07-04T08:00:47Z</time>
      </trkpt>
      <trkpt lat="47.64345" lon="6.18409">
        <ele>224.5</ele>
        <time>2022-07-04T08:00:50Z</time>
      </trkpt>
      <trkpt lat="47.64342" lon="6.18415">
        <ele>224.6</ele>
        <time>2022-07-04T08:00:53Z</time>
      </trkpt>
      <trkpt lat="47.64339" lon="6.18423">
        <ele>224.5</ele>
        <time>2022-07-04T08:00:56Z</time>
      </trkpt>
      <trkpt lat="47.64337" lon="6.1843">
        <ele>224.4</ele>
        <time>2022-07-04T08:00:59Z</time>
      </trkpt>
      <trkpt lat="47.64335" lon="6.18436">
        <ele>224.1</ele>
        <time>2022-07-04T08:01:02Z</time>
      </trkpt>
      <trkpt lat="47.64332" lon="6.18444">
        <ele>223.9</ele>
        <time>2022-07-04T08:01:05Z</time>
      </trkpt>
      <trkpt lat="47.64328" lon="6.18452">
        <ele>224</ele>
        <time>2022-07-04T08:01:08Z</time>
      </trkpt>
      <trkpt lat="47.64325" lon="6.1846">
        <ele>224.1</ele>
        <time>2022-07-04T08:01:11Z</time>
      </trkpt>
      <trkpt lat="47.64322" lon="6.18468">
        <ele>224.1</ele>
        <time>2022-07-04T08:01:13Z</time>
      </trkpt>
      <trkpt lat="47.6432" lon="6.18476">
        <ele>224</ele>
        <time>2022-07-04T08:01:15Z</time>
      </trkpt>
      <trkpt lat="47.64319" lon="6.18488">
        <ele>224</ele>
        <time>2022-07-04T08:01:17Z</time>
      </trkpt>
      <trkpt lat="47.64322" lon="6.18499">
        <ele>224.2</ele>
        <time>2022-07-04T08:01:19Z</time>
      </trkpt>
      <trkpt lat="47.64325" lon="6.18509">
        <ele>224.4</ele>
        <time>2022-07-04T08:01:21Z</time>
      </trkpt>
      <trkpt lat="47.64328" lon="6.18519">
        <ele>224.6</ele>
        <time>2022-07-04T08:01:23Z</time>
      </trkpt>
      <trkpt lat="47.6433" lon="6.18526">
        <ele>224.8</ele>
        <time>2022-07-04T08:01:25Z</time>
      </trkpt>
      <trkpt lat="47.64331" lon="6.18535">
        <ele>224.6</ele>
        <time>2022-07-04T08:01:27Z</time>
      </trkpt>
      <trkpt lat="47.64333" lon="6.18542">
        <ele>224.5</ele>
        <time>2022-07-04T08:01:29Z</time>
      </trkpt>
      <trkpt lat="47.64337" lon="6.18538">
        <ele>224.8</ele>
        <time>2022-07-04T08:01:33Z</time>
      </trkpt>
      <trkpt lat="47.64332" lon="6.18532">
        <ele>224.8</ele>
        <time>2022-07-04T08:01:35Z</time>
      </trkpt>
      <trkpt lat="47.64327" lon="6.18526">
        <ele>224.5</ele>
        <time>2022-07-04T08:01:37Z</time>
      </trkpt>
      <trkpt lat="47.64321" lon="6.18517">
        <ele>224.1</ele>
        <time>2022-07-04T08:01:39Z</time>
      </trkpt>
      <trkpt lat="47.64316" lon="6.18507">
        <ele>223.7</ele>
        <time>2022-07-04T08:01:41Z</time>
      </trkpt>
      <trkpt lat="47.64312" lon="6.18495">
        <ele>223.5</ele>
        <time>2022-07-04T08:01:43Z</time>
      </trkpt>
      <trkpt lat="47.64313" lon="6.18485">
        <ele>223.5</ele>
        <time>2022-07-04T08:01:45Z</time>
      </trkpt>
      <trkpt lat="47.64314" lon="6.18477">
        <ele>223.6</ele>
        <time>2022-07-04T08:01:47Z</time>
      </trkpt>
      <trkpt lat="47.64316" lon="6.1847">
        <ele>223.7</ele>
        <time>2022-07-04T08:01:49Z</time>
      </trkpt>
      <trkpt lat="47.64318" lon="6.18462">
        <ele>223.7</ele>
        <time>2022-07-04T08:01:52Z</time>
      </trkpt>
      <trkpt lat="47.64322" lon="6.18454">
        <ele>223.8</ele>
        <time>2022-07-04T08:01:55Z</time>
      </trkpt>
      <trkpt lat="47.64326" lon="6.18448">
        <ele>223.8</ele>
        <time>2022-07-04T08:01:57Z</time>
      </trkpt>
      <trkpt lat="47.64329" lon="6.1844">
        <ele>223.8</ele>
        <time>2022-07-04T08:01:59Z</time>
      </trkpt>
      <trkpt lat="47.64332" lon="6.18434">
        <ele>223.9</ele>
        <time>2022-07-04T08:02:01Z</time>
      </trkpt>
      <trkpt lat="47.64336" lon="6.18425">
        <ele>224.2</ele>
        <time>2022-07-04T08:02:03Z</time>
      </trkpt>
      <trkpt lat="47.64339" lon="6.18419">
        <ele>224.5</ele>
        <time>2022-07-04T08:02:05Z</time>
      </trkpt>
      <trkpt lat="47.64343" lon="6.18413">
        <ele>224.5</ele>
        <time>2022-07-04T08:02:07Z</time>
      </trkpt>
      <trkpt lat="47.64347" lon="6.18406">
        <ele>224.4</ele>
        <time>2022-07-04T08:02:09Z</time>
      </trkpt>
      <trkpt lat="47.6435" lon="6.18399">
        <ele>224.2</ele>
        <time>2022-07-04T08:02:11Z</time>
      </trkpt>
      <trkpt lat="47.64354" lon="6.1839">
        <ele>223.8</ele>
        <time>2022-07-04T08:02:13Z</time>
      </trkpt>
      <trkpt lat="47.64359" lon="6.18382">
        <ele>223.7</ele>
        <time>2022-07-04T08:02:15Z</time>
      </trkpt>
      <trkpt lat="47.64366" lon="6.18375">
        <ele>223.8</ele>
        <time>2022-07-04T08:02:17Z</time>
      </trkpt>
      <trkpt lat="47.64373" lon="6.1837">
        <ele>223.9</ele>
        <time>2022-07-04T08:02:19Z</time>
      </trkpt>
      <trkpt lat="47.64379" lon="6.18365">
        <ele>223.9</ele>
        <time>2022-07-04T08:02:21Z</time>
      </trkpt>
      <trkpt lat="47.64385" lon="6.18361">
        <ele>223.9</ele>
        <time>2022-07-04T08:02:23Z</time>
      </trkpt>
      <trkpt lat="47.64392" lon="6.18356">
        <ele>224</ele>
        <time>2022-07-04T08:02:25Z</time>
      </trkpt>
      <trkpt lat="47.64396" lon="6.18352">
        <ele>224.1</ele>
        <time>2022-07-04T08:02:32Z</time>
      </trkpt>
      <trkpt lat="47.644" lon="6.18348">
        <ele>224.1</ele>
        <time>2022-07-04T08:02:33Z</time>
      </trkpt>
      <trkpt lat="47.64405" lon="6.18344">
        <ele>224.2</ele>
        <time>2022-07-04T08:02:35Z</time>
      </trkpt>
      <trkpt lat="47.64409" lon="6.18339">
        <ele>224.1</ele>
        <time>2022-07-04T08:02:37Z</time>
      </trkpt>
      <trkpt lat="47.64417" lon="6.18332">
        <ele>224</ele>
        <time>2022-07-04T08:02:40Z</time>
      </trkpt>
      <trkpt lat="47.6443" lon="6.18316">
        <ele>224</ele>
        <time>2022-07-04T08:02:46Z</time>
      </trkpt>
      <trkpt lat="47.64435" lon="6.18311">
        <ele>224</ele>
        <time>2022-07-04T08:02:48Z</time>
      </trkpt>
      <trkpt lat="47.6444" lon="6.18307">
        <ele>223.9</ele>
        <time>2022-07-04T08:02:50Z</time>
      </trkpt>
      <trkpt lat="47.64453" lon="6.1829">
        <ele>224.3</ele>
        <time>2022-07-04T08:02:51Z</time>
      </trkpt>
      <trkpt lat="47.64457" lon="6.18285">
        <ele>224.3</ele>
        <time>2022-07-04T08:02:53Z</time>
      </trkpt>
      <trkpt lat="47.6446" lon="6.1828">
        <ele>224.3</ele>
        <time>2022-07-04T08:02:56Z</time>
      </trkpt>
      <trkpt lat="47.64464" lon="6.18274">
        <ele>224.2</ele>
        <time>2022-07-04T08:03:03Z</time>
      </trkpt>
      <trkpt lat="47.64468" lon="6.18267">
        <ele>224</ele>
        <time>2022-07-04T08:03:05Z</time>
      </trkpt>
      <trkpt lat="47.64472" lon="6.1826">
        <ele>223.7</ele>
        <time>2022-07-04T08:03:07Z</time>
      </trkpt>
      <trkpt lat="47.64476" lon="6.18254">
        <ele>224.1</ele>
        <time>2022-07-04T08:03:08Z</time>
      </trkpt>
      <trkpt lat="47.6448" lon="6.18248">
        <ele>224.5</ele>
        <time>2022-07-04T08:03:10Z</time>
      </trkpt>
      <trkpt lat="47.64486" lon="6.18236">
        <ele>225.2</ele>
        <time>2022-07-04T08:03:13Z</time>
      </trkpt>
      <trkpt lat="47.64488" lon="6.18229">
        <ele>225.2</ele>
        <time>2022-07-04T08:03:14Z</time>
      </trkpt>
      <trkpt lat="47.64498" lon="6.18201">
        <ele>224.3</ele>
        <time>2022-07-04T08:03:16Z</time>
      </trkpt>
      <trkpt lat="47.645" lon="6.18194">
        <ele>224</ele>
        <time>2022-07-04T08:03:22Z</time>
      </trkpt>
      <trkpt lat="47.64502" lon="6.18184">
        <ele>224.1</ele>
        <time>2022-07-04T08:03:24Z</time>
      </trkpt>
      <trkpt lat="47.64501" lon="6.18174">
        <ele>223.5</ele>
        <time>2022-07-04T08:03:26Z</time>
      </trkpt>
      <trkpt lat="47.64494" lon="6.18144">
        <ele>223</ele>
        <time>2022-07-04T08:03:31Z</time>
      </trkpt>
      <trkpt lat="47.64494" lon="6.18135">
        <ele>223</ele>
        <time>2022-07-04T08:03:32Z</time>
      </trkpt>
      <trkpt lat="47.64494" lon="6.18123">
        <ele>222.9</ele>
        <time>2022-07-04T08:03:34Z</time>
      </trkpt>
      <trkpt lat="47.64495" lon="6.18115">
        <ele>222.8</ele>
        <time>2022-07-04T08:03:36Z</time>
      </trkpt>
      <trkpt lat="47.645" lon="6.1809">
        <ele>223</ele>
        <time>2022-07-04T08:03:37Z</time>
      </trkpt>
      <trkpt lat="47.64502" lon="6.18083">
        <ele>223.3</ele>
        <time>2022-07-04T08:03:43Z</time>
      </trkpt>
      <trkpt lat="47.64504" lon="6.18073">
        <ele>223.9</ele>
        <time>2022-07-04T08:03:46Z</time>
      </trkpt>
      <trkpt lat="47.64506" lon="6.18065">
        <ele>224.3</ele>
        <time>2022-07-04T08:03:48Z</time>
      </trkpt>
      <trkpt lat="47.64509" lon="6.18059">
        <ele>224.6</ele>
        <time>2022-07-04T08:03:50Z</time>
      </trkpt>
      <trkpt lat="47.6451" lon="6.18051">
        <ele>224.6</ele>
        <time>2022-07-04T08:03:52Z</time>
      </trkpt>
      <trkpt lat="47.64501" lon="6.18041">
        <ele>223.5</ele>
        <time>2022-07-04T08:03:58Z</time>
      </trkpt>
      <trkpt lat="47.64495" lon="6.1804">
        <ele>223.4</ele>
        <time>2022-07-04T08:04:00Z</time>
      </trkpt>
      <trkpt lat="47.64484" lon="6.18034">
        <ele>223.1</ele>
        <time>2022-07-04T08:04:03Z</time>
      </trkpt>
      <trkpt lat="47.64472" lon="6.18025">
        <ele>223</ele>
        <time>2022-07-04T08:04:06Z</time>
      </trkpt>
      <trkpt lat="47.64468" lon="6.18021">
        <ele>223</ele>
        <time>2022-07-04T08:04:08Z</time>
      </trkpt>
      <trkpt lat="47.64464" lon="6.18016">
        <ele>223</ele>
        <time>2022-07-04T08:04:09Z</time>
      </trkpt>
      <trkpt lat="47.64448" lon="6.17992">
        <ele>222.7</ele>
        <time>2022-07-04T08:04:14Z</time>
      </trkpt>
      <trkpt lat="47.64438" lon="6.17965">
        <ele>222</ele>
        <time>2022-07-04T08:04:20Z</time>
      </trkpt>
      <trkpt lat="47.64435" lon="6.17958">
        <ele>222</ele>
        <time>2022-07-04T08:04:22Z</time>
      </trkpt>
      <trkpt lat="47.64438" lon="6.17962">
        <ele>222</ele>
        <time>2022-07-04T08:04:34Z</time>
      </trkpt>
      <trkpt lat="47.64438" lon="6.17971">
        <ele>222</ele>
        <time>2022-07-04T08:04:38Z</time>
      </trkpt>
      <trkpt lat="47.64442" lon="6.17979">
        <ele>222.2</ele>
        <time>2022-07-04T08:04:39Z</time>
      </trkpt>
      <trkpt lat="47.64446" lon="6.17985">
        <ele>222.5</ele>
        <time>2022-07-04T08:04:40Z</time>
      </trkpt>
      <trkpt lat="47.64451" lon="6.17994">
        <ele>222.8</ele>
        <time>2022-07-04T08:04:41Z</time>
      </trkpt>
      <trkpt lat="47.64455" lon="6.18">
        <ele>223</ele>
        <time>2022-07-04T08:04:42Z</time>
      </trkpt>
      <trkpt lat="47.6446" lon="6.18008">
        <ele>223</ele>
        <time>2022-07-04T08:04:43Z</time>
      </trkpt>
      <trkpt lat="47.64465" lon="6.18015">
        <ele>223</ele>
        <time>2022-07-04T08:04:44Z</time>
      </trkpt>
      <trkpt lat="47.64469" lon="6.18022">
        <ele>223</ele>
        <time>2022-07-04T08:04:45Z</time>
      </trkpt>
      <trkpt lat="47.64479" lon="6.18035">
        <ele>223.1</ele>
        <time>2022-07-04T08:04:48Z</time>
      </trkpt>
      <trkpt lat="47.64485" lon="6.18041">
        <ele>223.2</ele>
        <time>2022-07-04T08:04:50Z</time>
      </trkpt>
      <trkpt lat="47.64489" lon="6.18044">
        <ele>223.4</ele>
        <time>2022-07-04T08:04:51Z</time>
      </trkpt>
      <trkpt lat="47.64494" lon="6.18049">
        <ele>223.6</ele>
        <time>2022-07-04T08:04:53Z</time>
      </trkpt>
      <trkpt lat="47.64507" lon="6.18059">
        <ele>224.5</ele>
        <time>2022-07-04T08:04:55Z</time>
      </trkpt>
      <trkpt lat="47.64513" lon="6.18059">
        <ele>224.9</ele>
        <time>2022-07-04T08:04:57Z</time>
      </trkpt>
      <trkpt lat="47.64517" lon="6.18059">
        <ele>225.3</ele>
        <time>2022-07-04T08:05:03Z</time>
      </trkpt>
      <trkpt lat="47.64522" lon="6.18057">
        <ele>225.6</ele>
        <time>2022-07-04T08:05:06Z</time>
      </trkpt>
      <trkpt lat="47.64531" lon="6.18046">
        <ele>226.3</ele>
        <time>2022-07-04T08:05:08Z</time>
      </trkpt>
      <trkpt lat="47.64535" lon="6.1804">
        <ele>226.5</ele>
        <time>2022-07-04T08:05:15Z</time>
      </trkpt>
      <trkpt lat="47.64538" lon="6.18033">
        <ele>226.7</ele>
        <time>2022-07-04T08:05:18Z</time>
      </trkpt>
      <trkpt lat="47.64541" lon="6.18037">
        <ele>227.4</ele>
        <time>2022-07-04T08:05:23Z</time>
      </trkpt>
      <trkpt lat="47.64542" lon="6.18052">
        <ele>228.3</ele>
        <time>2022-07-04T08:05:32Z</time>
      </trkpt>
      <trkpt lat="47.64543" lon="6.18059">
        <ele>229</ele>
        <time>2022-07-04T08:05:37Z</time>
      </trkpt>
      <trkpt lat="47.64542" lon="6.18067">
        <ele>229.2</ele>
        <time>2022-07-04T08:05:38Z</time>
      </trkpt>
      <trkpt lat="47.64543" lon="6.18074">
        <ele>229.8</ele>
        <time>2022-07-04T08:05:42Z</time>
      </trkpt>
      <trkpt lat="47.64544" lon="6.18081">
        <ele>230.5</ele>
        <time>2022-07-04T08:05:50Z</time>
      </trkpt>
      <trkpt lat="47.64546" lon="6.18088">
        <ele>231.1</ele>
        <time>2022-07-04T08:05:54Z</time>
      </trkpt>
      <trkpt lat="47.64546" lon="6.18096">
        <ele>231.4</ele>
        <time>2022-07-04T08:05:57Z</time>
      </trkpt>
      <trkpt lat="47.64548" lon="6.18103">
        <ele>232</ele>
        <time>2022-07-04T08:05:58Z</time>
      </trkpt>
      <trkpt lat="47.64553" lon="6.18099">
        <ele>233</ele>
        <time>2022-07-04T08:06:11Z</time>
      </trkpt>
      <trkpt lat="47.64556" lon="6.18095">
        <ele>233.6</ele>
        <time>2022-07-04T08:06:16Z</time>
      </trkpt>
      <trkpt lat="47.64559" lon="6.1809">
        <ele>234</ele>
        <time>2022-07-04T08:06:20Z</time>
      </trkpt>
      <trkpt lat="47.64563" lon="6.18085">
        <ele>234.6</ele>
        <time>2022-07-04T08:06:25Z</time>
      </trkpt>
      <trkpt lat="47.64566" lon="6.1808">
        <ele>235</ele>
        <time>2022-07-04T08:06:29Z</time>
      </trkpt>
      <trkpt lat="47.6457" lon="6.18066">
        <ele>235</ele>
        <time>2022-07-04T08:06:37Z</time>
      </trkpt>
      <trkpt lat="47.64573" lon="6.18059">
        <ele>234.9</ele>
        <time>2022-07-04T08:06:38Z</time>
      </trkpt>
      <trkpt lat="47.64577" lon="6.18056">
        <ele>235.6</ele>
        <time>2022-07-04T08:06:47Z</time>
      </trkpt>
      <trkpt lat="47.64579" lon="6.1805">
        <ele>235.7</ele>
        <time>2022-07-04T08:06:51Z</time>
      </trkpt>
      <trkpt lat="47.64582" lon="6.18044">
        <ele>235.9</ele>
        <time>2022-07-04T08:06:55Z</time>
      </trkpt>
      <trkpt lat="47.64586" lon="6.18039">
        <ele>236.4</ele>
        <time>2022-07-04T08:07:01Z</time>
      </trkpt>
      <trkpt lat="47.64588" lon="6.18033">
        <ele>236.5</ele>
        <time>2022-07-04T08:07:06Z</time>
      </trkpt>
      <trkpt lat="47.64593" lon="6.18029">
        <ele>237.2</ele>
        <time>2022-07-04T08:07:07Z</time>
      </trkpt>
      <trkpt lat="47.64597" lon="6.18025">
        <ele>237.7</ele>
        <time>2022-07-04T08:07:12Z</time>
      </trkpt>
      <trkpt lat="47.64602" lon="6.18023">
        <ele>238.5</ele>
        <time>2022-07-04T08:07:20Z</time>
      </trkpt>
      <trkpt lat="47.64607" lon="6.18022">
        <ele>239.3</ele>
        <time>2022-07-04T08:07:25Z</time>
      </trkpt>
      <trkpt lat="47.6461" lon="6.18017">
        <ele>239.2</ele>
        <time>2022-07-04T08:07:30Z</time>
      </trkpt>
      <trkpt lat="47.64614" lon="6.18015">
        <ele>239.7</ele>
        <time>2022-07-04T08:07:39Z</time>
      </trkpt>
      <trkpt lat="47.6462" lon="6.18016">
        <ele>240.9</ele>
        <time>2022-07-04T08:07:43Z</time>
      </trkpt>
      <trkpt lat="47.64624" lon="6.1802">
        <ele>242.3</ele>
        <time>2022-07-04T08:07:45Z</time>
      </trkpt>
      <trkpt lat="47.64628" lon="6.18024">
        <ele>243.9</ele>
        <time>2022-07-04T08:07:50Z</time>
      </trkpt>
      <trkpt lat="47.64633" lon="6.18026">
        <ele>245.3</ele>
        <time>2022-07-04T08:07:53Z</time>
      </trkpt>
      <trkpt lat="47.6464" lon="6.18034">
        <ele>247.7</ele>
        <time>2022-07-04T08:07:55Z</time>
      </trkpt>
      <trkpt lat="47.64644" lon="6.1804">
        <ele>248.4</ele>
        <time>2022-07-04T08:08:03Z</time>
      </trkpt>
      <trkpt lat="47.64649" lon="6.18039">
        <ele>248.3</ele>
        <time>2022-07-04T08:08:05Z</time>
      </trkpt>
      <trkpt lat="47.64654" lon="6.18036">
        <ele>248.1</ele>
        <time>2022-07-04T08:08:12Z</time>
      </trkpt>
      <trkpt lat="47.64658" lon="6.1804">
        <ele>248.6</ele>
        <time>2022-07-04T08:08:16Z</time>
      </trkpt>
      <trkpt lat="47.64662" lon="6.18045">
        <ele>249.4</ele>
        <time>2022-07-04T08:08:19Z</time>
      </trkpt>
      <trkpt lat="47.64664" lon="6.18052">
        <ele>250.4</ele>
        <time>2022-07-04T08:08:22Z</time>
      </trkpt>
      <trkpt lat="47.64668" lon="6.18061">
        <ele>250.9</ele>
        <time>2022-07-04T08:08:26Z</time>
      </trkpt>
      <trkpt lat="47.64675" lon="6.18071">
        <ele>250.4</ele>
        <time>2022-07-04T08:08:28Z</time>
      </trkpt>
      <trkpt lat="47.64679" lon="6.18076">
        <ele>250.6</ele>
        <time>2022-07-04T08:08:35Z</time>
      </trkpt>
      <trkpt lat="47.64682" lon="6.18082">
        <ele>250.9</ele>
        <time>2022-07-04T08:08:38Z</time>
      </trkpt>
      <trkpt lat="47.64686" lon="6.18088">
        <ele>251.3</ele>
        <time>2022-07-04T08:08:41Z</time>
      </trkpt>
      <trkpt lat="47.64691" lon="6.18093">
        <ele>251.7</ele>
        <time>2022-07-04T08:08:45Z</time>
      </trkpt>
      <trkpt lat="47.64693" lon="6.18099">
        <ele>252.1</ele>
        <time>2022-07-04T08:08:50Z</time>
      </trkpt>
      <trkpt lat="47.64696" lon="6.18105">
        <ele>252.3</ele>
        <time>2022-07-04T08:08:54Z</time>
      </trkpt>
      <trkpt lat="47.64699" lon="6.18111">
        <ele>252.5</ele>
        <time>2022-07-04T08:08:59Z</time>
      </trkpt>
      <trkpt lat="47.64703" lon="6.18116">
        <ele>252.4</ele>
        <time>2022-07-04T08:09:02Z</time>
      </trkpt>
      <trkpt lat="47.64708" lon="6.18121">
        <ele>252.3</ele>
        <time>2022-07-04T08:09:05Z</time>
      </trkpt>
      <trkpt lat="47.64711" lon="6.18126">
        <ele>252.4</ele>
        <time>2022-07-04T08:09:07Z</time>
      </trkpt>
      <trkpt lat="47.64715" lon="6.1813">
        <ele>252.5</ele>
        <time>2022-07-04T08:09:09Z</time>
      </trkpt>
      <trkpt lat="47.64723" lon="6.18139">
        <ele>252.8</ele>
        <time>2022-07-04T08:09:13Z</time>
      </trkpt>
      <trkpt lat="47.64727" lon="6.18144">
        <ele>252.4</ele>
        <time>2022-07-04T08:09:16Z</time>
      </trkpt>
      <trkpt lat="47.6473" lon="6.1815">
        <ele>252.2</ele>
        <time>2022-07-04T08:09:18Z</time>
      </trkpt>
      <trkpt lat="47.64734" lon="6.18157">
        <ele>252</ele>
        <time>2022-07-04T08:09:21Z</time>
      </trkpt>
      <trkpt lat="47.64738" lon="6.18163">
        <ele>252</ele>
        <time>2022-07-04T08:09:23Z</time>
      </trkpt>
      <trkpt lat="47.64746" lon="6.18173">
        <ele>252</ele>
        <time>2022-07-04T08:09:29Z</time>
      </trkpt>
      <trkpt lat="47.6475" lon="6.18179">
        <ele>252.3</ele>
        <time>2022-07-04T08:09:31Z</time>
      </trkpt>
      <trkpt lat="47.6476" lon="6.18193">
        <ele>252.4</ele>
        <time>2022-07-04T08:09:36Z</time>
      </trkpt>
      <trkpt lat="47.64769" lon="6.18204">
        <ele>252.2</ele>
        <time>2022-07-04T08:09:39Z</time>
      </trkpt>
      <trkpt lat="47.64782" lon="6.18218">
        <ele>252</ele>
        <time>2022-07-04T08:09:43Z</time>
      </trkpt>
      <trkpt lat="47.64787" lon="6.18222">
        <ele>252</ele>
        <time>2022-07-04T08:09:44Z</time>
      </trkpt>
      <trkpt lat="47.64791" lon="6.18226">
        <ele>251.9</ele>
        <time>2022-07-04T08:09:45Z</time>
      </trkpt>
      <trkpt lat="47.64796" lon="6.18231">
        <ele>251.8</ele>
        <time>2022-07-04T08:09:46Z</time>
      </trkpt>
      <trkpt lat="47.64804" lon="6.18237">
        <ele>251.7</ele>
        <time>2022-07-04T08:09:48Z</time>
      </trkpt>
      <trkpt lat="47.64809" lon="6.18241">
        <ele>251.7</ele>
        <time>2022-07-04T08:09:49Z</time>
      </trkpt>
      <trkpt lat="47.64814" lon="6.18244">
        <ele>251.7</ele>
        <time>2022-07-04T08:09:50Z</time>
      </trkpt>
      <trkpt lat="47.64821" lon="6.18248">
        <ele>251.6</ele>
        <time>2022-07-04T08:09:52Z</time>
      </trkpt>
      <trkpt lat="47.64828" lon="6.18252">
        <ele>251.5</ele>
        <time>2022-07-04T08:09:54Z</time>
      </trkpt>
      <trkpt lat="47.64834" lon="6.18254">
        <ele>251.4</ele>
        <time>2022-07-04T08:09:56Z</time>
      </trkpt>
      <trkpt lat="47.64839" lon="6.18256">
        <ele>251.5</ele>
        <time>2022-07-04T08:09:58Z</time>
      </trkpt>
      <trkpt lat="47.64843" lon="6.1826">
        <ele>251.7</ele>
        <time>2022-07-04T08:10:00Z</time>
      </trkpt>
      <trkpt lat="47.64849" lon="6.18263">
        <ele>251.9</ele>
        <time>2022-07-04T08:10:03Z</time>
      </trkpt>
      <trkpt lat="47.64854" lon="6.18267">
        <ele>252</ele>
        <time>2022-07-04T08:10:06Z</time>
      </trkpt>
      <trkpt lat="47.6486" lon="6.1827">
        <ele>252.3</ele>
        <time>2022-07-04T08:10:08Z</time>
      </trkpt>
      <trkpt lat="47.64865" lon="6.18274">
        <ele>252.5</ele>
        <time>2022-07-04T08:10:10Z</time>
      </trkpt>
      <trkpt lat="47.64869" lon="6.18278">
        <ele>252.7</ele>
        <time>2022-07-04T08:10:12Z</time>
      </trkpt>
      <trkpt lat="47.64874" lon="6.1828">
        <ele>252.7</ele>
        <time>2022-07-04T08:10:13Z</time>
      </trkpt>
      <trkpt lat="47.64878" lon="6.18284">
        <ele>252.8</ele>
        <time>2022-07-04T08:10:15Z</time>
      </trkpt>
      <trkpt lat="47.64883" lon="6.18288">
        <ele>253</ele>
        <time>2022-07-04T08:10:17Z</time>
      </trkpt>
      <trkpt lat="47.64892" lon="6.18292">
        <ele>253</ele>
        <time>2022-07-04T08:10:22Z</time>
      </trkpt>
      <trkpt lat="47.64897" lon="6.18295">
        <ele>253.3</ele>
        <time>2022-07-04T08:10:25Z</time>
      </trkpt>
      <trkpt lat="47.64901" lon="6.18299">
        <ele>253.5</ele>
        <time>2022-07-04T08:10:28Z</time>
      </trkpt>
      <trkpt lat="47.64911" lon="6.18304">
        <ele>253.9</ele>
        <time>2022-07-04T08:10:34Z</time>
      </trkpt>
      <trkpt lat="47.64917" lon="6.18307">
        <ele>254.1</ele>
        <time>2022-07-04T08:10:37Z</time>
      </trkpt>
      <trkpt lat="47.64923" lon="6.1831">
        <ele>254.3</ele>
        <time>2022-07-04T08:10:40Z</time>
      </trkpt>
      <trkpt lat="47.64932" lon="6.18313">
        <ele>254.5</ele>
        <time>2022-07-04T08:10:44Z</time>
      </trkpt>
      <trkpt lat="47.64937" lon="6.18314">
        <ele>254.6</ele>
        <time>2022-07-04T08:10:46Z</time>
      </trkpt>
      <trkpt lat="47.64943" lon="6.18314">
        <ele>254.6</ele>
        <time>2022-07-04T08:10:48Z</time>
      </trkpt>
      <trkpt lat="47.64948" lon="6.18315">
        <ele>254.7</ele>
        <time>2022-07-04T08:10:50Z</time>
      </trkpt>
      <trkpt lat="47.64953" lon="6.18315">
        <ele>254.7</ele>
        <time>2022-07-04T08:10:52Z</time>
      </trkpt>
      <trkpt lat="47.64959" lon="6.18316">
        <ele>254.7</ele>
        <time>2022-07-04T08:10:54Z</time>
      </trkpt>
      <trkpt lat="47.64964" lon="6.18316">
        <ele>254.8</ele>
        <time>2022-07-04T08:10:56Z</time>
      </trkpt>
      <trkpt lat="47.64973" lon="6.18316">
        <ele>254.8</ele>
        <time>2022-07-04T08:11:00Z</time>
      </trkpt>
      <trkpt lat="47.64979" lon="6.18317">
        <ele>255</ele>
        <time>2022-07-04T08:11:02Z</time>
      </trkpt>
      <trkpt lat="47.64985" lon="6.18318">
        <ele>255.1</ele>
        <time>2022-07-04T08:11:04Z</time>
      </trkpt>
      <trkpt lat="47.65" lon="6.18321">
        <ele>255.6</ele>
        <time>2022-07-04T08:11:10Z</time>
      </trkpt>
      <trkpt lat="47.65005" lon="6.18322">
        <ele>255.7</ele>
        <time>2022-07-04T08:11:12Z</time>
      </trkpt>
      <trkpt lat="47.65011" lon="6.18323">
        <ele>255.9</ele>
        <time>2022-07-04T08:11:14Z</time>
      </trkpt>
      <trkpt lat="47.6502" lon="6.18325">
        <ele>256.2</ele>
        <time>2022-07-04T08:11:19Z</time>
      </trkpt>
      <trkpt lat="47.65026" lon="6.18327">
        <ele>256.5</ele>
        <time>2022-07-04T08:11:21Z</time>
      </trkpt>
      <trkpt lat="47.65032" lon="6.18329">
        <ele>256.8</ele>
        <time>2022-07-04T08:11:24Z</time>
      </trkpt>
      <trkpt lat="47.65042" lon="6.18332">
        <ele>257.4</ele>
        <time>2022-07-04T08:11:29Z</time>
      </trkpt>
      <trkpt lat="47.65052" lon="6.18336">
        <ele>257.9</ele>
        <time>2022-07-04T08:11:34Z</time>
      </trkpt>
      <trkpt lat="47.65065" lon="6.18345">
        <ele>258.2</ele>
        <time>2022-07-04T08:11:35Z</time>
      </trkpt>
      <trkpt lat="47.6507" lon="6.18351">
        <ele>258.3</ele>
        <time>2022-07-04T08:11:38Z</time>
      </trkpt>
      <trkpt lat="47.65074" lon="6.18355">
        <ele>258.5</ele>
        <time>2022-07-04T08:11:40Z</time>
      </trkpt>
      <trkpt lat="47.6508" lon="6.1836">
        <ele>258.8</ele>
        <time>2022-07-04T08:11:43Z</time>
      </trkpt>
      <trkpt lat="47.65085" lon="6.18365">
        <ele>259.1</ele>
        <time>2022-07-04T08:11:46Z</time>
      </trkpt>
      <trkpt lat="47.6509" lon="6.18366">
        <ele>259.2</ele>
        <time>2022-07-04T08:11:50Z</time>
      </trkpt>
      <trkpt lat="47.65095" lon="6.18368">
        <ele>259.4</ele>
        <time>2022-07-04T08:11:53Z</time>
      </trkpt>
      <trkpt lat="47.65101" lon="6.18372">
        <ele>259.6</ele>
        <time>2022-07-04T08:11:56Z</time>
      </trkpt>
      <trkpt lat="47.65105" lon="6.18376">
        <ele>259.8</ele>
        <time>2022-07-04T08:11:59Z</time>
      </trkpt>
      <trkpt lat="47.65108" lon="6.1838">
        <ele>259.9</ele>
        <time>2022-07-04T08:12:06Z</time>
      </trkpt>
      <trkpt lat="47.65111" lon="6.18386">
        <ele>260</ele>
        <time>2022-07-04T08:12:09Z</time>
      </trkpt>
      <trkpt lat="47.65114" lon="6.18391">
        <ele>260.2</ele>
        <time>2022-07-04T08:12:12Z</time>
      </trkpt>
      <trkpt lat="47.65121" lon="6.184">
        <ele>260.7</ele>
        <time>2022-07-04T08:12:12Z</time>
      </trkpt>
      <trkpt lat="47.65126" lon="6.18401">
        <ele>261.1</ele>
        <time>2022-07-04T08:12:23Z</time>
      </trkpt>
      <trkpt lat="47.65134" lon="6.18409">
        <ele>261.7</ele>
        <time>2022-07-04T08:12:27Z</time>
      </trkpt>
      <trkpt lat="47.65144" lon="6.18416">
        <ele>262.2</ele>
        <time>2022-07-04T08:12:33Z</time>
      </trkpt>
      <trkpt lat="47.65149" lon="6.1842">
        <ele>262.4</ele>
        <time>2022-07-04T08:12:36Z</time>
      </trkpt>
      <trkpt lat="47.65154" lon="6.18424">
        <ele>262.5</ele>
        <time>2022-07-04T08:12:39Z</time>
      </trkpt>
      <trkpt lat="47.65158" lon="6.18427">
        <ele>262.7</ele>
        <time>2022-07-04T08:12:41Z</time>
      </trkpt>
      <trkpt lat="47.65163" lon="6.18431">
        <ele>262.9</ele>
        <time>2022-07-04T08:12:44Z</time>
      </trkpt>
      <trkpt lat="47.65167" lon="6.18435">
        <ele>263</ele>
        <time>2022-07-04T08:12:47Z</time>
      </trkpt>
      <trkpt lat="47.65172" lon="6.18441">
        <ele>263.2</ele>
        <time>2022-07-04T08:12:50Z</time>
      </trkpt>
      <trkpt lat="47.65175" lon="6.18445">
        <ele>263.3</ele>
        <time>2022-07-04T08:12:53Z</time>
      </trkpt>
      <trkpt lat="47.65179" lon="6.18449">
        <ele>263.5</ele>
        <time>2022-07-04T08:12:55Z</time>
      </trkpt>
      <trkpt lat="47.65183" lon="6.18454">
        <ele>263.8</ele>
        <time>2022-07-04T08:12:57Z</time>
      </trkpt>
      <trkpt lat="47.65186" lon="6.18459">
        <ele>264.1</ele>
        <time>2022-07-04T08:13:00Z</time>
      </trkpt>
      <trkpt lat="47.6519" lon="6.18465">
        <ele>264.5</ele>
        <time>2022-07-04T08:13:03Z</time>
      </trkpt>
      <trkpt lat="47.65198" lon="6.18475">
        <ele>265.1</ele>
        <time>2022-07-04T08:13:09Z</time>
      </trkpt>
      <trkpt lat="47.65202" lon="6.18482">
        <ele>265.4</ele>
        <time>2022-07-04T08:13:12Z</time>
      </trkpt>
      <trkpt lat="47.65205" lon="6.18487">
        <ele>265.6</ele>
        <time>2022-07-04T08:13:15Z</time>
      </trkpt>
      <trkpt lat="47.65208" lon="6.18493">
        <ele>265.9</ele>
        <time>2022-07-04T08:13:17Z</time>
      </trkpt>
      <trkpt lat="47.65211" lon="6.18498">
        <ele>266.2</ele>
        <time>2022-07-04T08:13:20Z</time>
      </trkpt>
      <trkpt lat="47.65219" lon="6.18509">
        <ele>266.7</ele>
        <time>2022-07-04T08:13:22Z</time>
      </trkpt>
      <trkpt lat="47.65221" lon="6.18514">
        <ele>266.9</ele>
        <time>2022-07-04T08:13:30Z</time>
      </trkpt>
      <trkpt lat="47.65225" lon="6.1852">
        <ele>267.1</ele>
        <time>2022-07-04T08:13:33Z</time>
      </trkpt>
      <trkpt lat="47.65228" lon="6.18525">
        <ele>267.2</ele>
        <time>2022-07-04T08:13:35Z</time>
      </trkpt>
      <trkpt lat="47.65231" lon="6.18532">
        <ele>267.4</ele>
        <time>2022-07-04T08:13:38Z</time>
      </trkpt>
      <trkpt lat="47.65234" lon="6.18538">
        <ele>267.6</ele>
        <time>2022-07-04T08:13:41Z</time>
      </trkpt>
      <trkpt lat="47.65237" lon="6.18543">
        <ele>267.8</ele>
        <time>2022-07-04T08:13:43Z</time>
      </trkpt>
      <trkpt lat="47.65241" lon="6.18551">
        <ele>268.2</ele>
        <time>2022-07-04T08:13:46Z</time>
      </trkpt>
      <trkpt lat="47.65243" lon="6.18558">
        <ele>268.5</ele>
        <time>2022-07-04T08:13:48Z</time>
      </trkpt>
      <trkpt lat="47.65245" lon="6.18564">
        <ele>268.6</ele>
        <time>2022-07-04T08:13:50Z</time>
      </trkpt>
      <trkpt lat="47.65248" lon="6.1857">
        <ele>268.8</ele>
        <time>2022-07-04T08:13:52Z</time>
      </trkpt>
      <trkpt lat="47.65251" lon="6.18579">
        <ele>269</ele>
        <time>2022-07-04T08:13:55Z</time>
      </trkpt>
      <trkpt lat="47.65253" lon="6.18585">
        <ele>269.1</ele>
        <time>2022-07-04T08:13:58Z</time>
      </trkpt>
      <trkpt lat="47.65256" lon="6.18592">
        <ele>269.3</ele>
        <time>2022-07-04T08:14:01Z</time>
      </trkpt>
      <trkpt lat="47.65257" lon="6.18599">
        <ele>269.4</ele>
        <time>2022-07-04T08:14:03Z</time>
      </trkpt>
      <trkpt lat="47.65264" lon="6.18611">
        <ele>270</ele>
        <time>2022-07-04T08:14:04Z</time>
      </trkpt>
      <trkpt lat="47.65267" lon="6.18617">
        <ele>270.2</ele>
        <time>2022-07-04T08:14:07Z</time>
      </trkpt>
      <trkpt lat="47.65271" lon="6.18622">
        <ele>270.5</ele>
        <time>2022-07-04T08:14:15Z</time>
      </trkpt>
      <trkpt lat="47.65278" lon="6.18634">
        <ele>271</ele>
        <time>2022-07-04T08:14:21Z</time>
      </trkpt>
      <trkpt lat="47.65282" lon="6.1864">
        <ele>271.2</ele>
        <time>2022-07-04T08:14:24Z</time>
      </trkpt>
      <trkpt lat="47.65287" lon="6.18646">
        <ele>271.4</ele>
        <time>2022-07-04T08:14:27Z</time>
      </trkpt>
      <trkpt lat="47.65292" lon="6.18651">
        <ele>271.7</ele>
        <time>2022-07-04T08:14:30Z</time>
      </trkpt>
      <trkpt lat="47.65296" lon="6.18657">
        <ele>272.1</ele>
        <time>2022-07-04T08:14:33Z</time>
      </trkpt>
      <trkpt lat="47.65299" lon="6.18662">
        <ele>272.4</ele>
        <time>2022-07-04T08:14:36Z</time>
      </trkpt>
      <trkpt lat="47.65304" lon="6.18668">
        <ele>272.9</ele>
        <time>2022-07-04T08:14:39Z</time>
      </trkpt>
      <trkpt lat="47.65308" lon="6.18672">
        <ele>273.1</ele>
        <time>2022-07-04T08:14:44Z</time>
      </trkpt>
      <trkpt lat="47.65311" lon="6.18677">
        <ele>273.2</ele>
        <time>2022-07-04T08:14:46Z</time>
      </trkpt>
      <trkpt lat="47.65313" lon="6.18685">
        <ele>273.3</ele>
        <time>2022-07-04T08:14:50Z</time>
      </trkpt>
      <trkpt lat="47.65312" lon="6.18692">
        <ele>273.2</ele>
        <time>2022-07-04T08:14:53Z</time>
      </trkpt>
      <trkpt lat="47.65309" lon="6.18697">
        <ele>273.2</ele>
        <time>2022-07-04T08:15:11Z</time>
      </trkpt>
      <trkpt lat="47.65304" lon="6.18699">
        <ele>273.1</ele>
        <time>2022-07-04T08:15:13Z</time>
      </trkpt>
      <trkpt lat="47.65299" lon="6.18703">
        <ele>272.9</ele>
        <time>2022-07-04T08:15:15Z</time>
      </trkpt>
      <trkpt lat="47.65296" lon="6.18707">
        <ele>272.7</ele>
        <time>2022-07-04T08:15:16Z</time>
      </trkpt>
      <trkpt lat="47.65285" lon="6.18721">
        <ele>272.5</ele>
        <time>2022-07-04T08:15:20Z</time>
      </trkpt>
      <trkpt lat="47.6528" lon="6.18727">
        <ele>272.2</ele>
        <time>2022-07-04T08:15:21Z</time>
      </trkpt>
      <trkpt lat="47.65276" lon="6.18732">
        <ele>271.8</ele>
        <time>2022-07-04T08:15:22Z</time>
      </trkpt>
      <trkpt lat="47.65265" lon="6.18744">
        <ele>271.1</ele>
        <time>2022-07-04T08:15:25Z</time>
      </trkpt>
      <trkpt lat="47.6526" lon="6.18751">
        <ele>270.8</ele>
        <time>2022-07-04T08:15:26Z</time>
      </trkpt>
      <trkpt lat="47.65254" lon="6.18757">
        <ele>270.5</ele>
        <time>2022-07-04T08:15:28Z</time>
      </trkpt>
      <trkpt lat="47.65249" lon="6.18762">
        <ele>270.4</ele>
        <time>2022-07-04T08:15:29Z</time>
      </trkpt>
      <trkpt lat="47.65237" lon="6.18774">
        <ele>270.4</ele>
        <time>2022-07-04T08:15:32Z</time>
      </trkpt>
      <trkpt lat="47.65225" lon="6.18788">
        <ele>270.1</ele>
        <time>2022-07-04T08:15:34Z</time>
      </trkpt>
      <trkpt lat="47.65221" lon="6.18794">
        <ele>270</ele>
        <time>2022-07-04T08:15:36Z</time>
      </trkpt>
      <trkpt lat="47.65217" lon="6.18799">
        <ele>270</ele>
        <time>2022-07-04T08:15:37Z</time>
      </trkpt>
      <trkpt lat="47.65213" lon="6.18804">
        <ele>270</ele>
        <time>2022-07-04T08:15:38Z</time>
      </trkpt>
      <trkpt lat="47.65205" lon="6.18815">
        <ele>270</ele>
        <time>2022-07-04T08:15:40Z</time>
      </trkpt>
      <trkpt lat="47.652" lon="6.18818">
        <ele>270</ele>
        <time>2022-07-04T08:15:42Z</time>
      </trkpt>
      <trkpt lat="47.65201" lon="6.18819">
        <ele>270</ele>
        <time>2022-07-04T08:15:43Z</time>
      </trkpt>
      <trkpt lat="47.65198" lon="6.18825">
        <ele>270</ele>
        <time>2022-07-04T08:16:11Z</time>
      </trkpt>
      <trkpt lat="47.65193" lon="6.1883">
        <ele>270.1</ele>
        <time>2022-07-04T08:16:14Z</time>
      </trkpt>
      <trkpt lat="47.65188" lon="6.18834">
        <ele>270.2</ele>
        <time>2022-07-04T08:16:16Z</time>
      </trkpt>
      <trkpt lat="47.65183" lon="6.18837">
        <ele>270.4</ele>
        <time>2022-07-04T08:16:18Z</time>
      </trkpt>
      <trkpt lat="47.65173" lon="6.18848">
        <ele>270.8</ele>
        <time>2022-07-04T08:16:24Z</time>
      </trkpt>
      <trkpt lat="47.65168" lon="6.18854">
        <ele>270.9</ele>
        <time>2022-07-04T08:16:26Z</time>
      </trkpt>
      <trkpt lat="47.65165" lon="6.18858">
        <ele>271</ele>
        <time>2022-07-04T08:16:28Z</time>
      </trkpt>
      <trkpt lat="47.6516" lon="6.18862">
        <ele>271</ele>
        <time>2022-07-04T08:16:30Z</time>
      </trkpt>
      <trkpt lat="47.65156" lon="6.18867">
        <ele>270.9</ele>
        <time>2022-07-04T08:16:32Z</time>
      </trkpt>
      <trkpt lat="47.65147" lon="6.18876">
        <ele>270.6</ele>
        <time>2022-07-04T08:16:36Z</time>
      </trkpt>
      <trkpt lat="47.65141" lon="6.18883">
        <ele>270.3</ele>
        <time>2022-07-04T08:16:38Z</time>
      </trkpt>
      <trkpt lat="47.65134" lon="6.18889">
        <ele>270</ele>
        <time>2022-07-04T08:16:40Z</time>
      </trkpt>
      <trkpt lat="47.65128" lon="6.18897">
        <ele>270</ele>
        <time>2022-07-04T08:16:42Z</time>
      </trkpt>
      <trkpt lat="47.65122" lon="6.18902">
        <ele>270</ele>
        <time>2022-07-04T08:16:44Z</time>
      </trkpt>
      <trkpt lat="47.65119" lon="6.18906">
        <ele>270</ele>
        <time>2022-07-04T08:16:45Z</time>
      </trkpt>
      <trkpt lat="47.65109" lon="6.18916">
        <ele>270.1</ele>
        <time>2022-07-04T08:16:48Z</time>
      </trkpt>
      <trkpt lat="47.65103" lon="6.18922">
        <ele>270.5</ele>
        <time>2022-07-04T08:16:50Z</time>
      </trkpt>
      <trkpt lat="47.65098" lon="6.18926">
        <ele>270.8</ele>
        <time>2022-07-04T08:16:52Z</time>
      </trkpt>
      <trkpt lat="47.65094" lon="6.18931">
        <ele>271.1</ele>
        <time>2022-07-04T08:16:55Z</time>
      </trkpt>
      <trkpt lat="47.65086" lon="6.1894">
        <ele>271.8</ele>
        <time>2022-07-04T08:16:59Z</time>
      </trkpt>
      <trkpt lat="47.6508" lon="6.18945">
        <ele>272</ele>
        <time>2022-07-04T08:17:02Z</time>
      </trkpt>
      <trkpt lat="47.65074" lon="6.18951">
        <ele>272.2</ele>
        <time>2022-07-04T08:17:05Z</time>
      </trkpt>
      <trkpt lat="47.6507" lon="6.18955">
        <ele>272.2</ele>
        <time>2022-07-04T08:17:07Z</time>
      </trkpt>
      <trkpt lat="47.65066" lon="6.18961">
        <ele>272.2</ele>
        <time>2022-07-04T08:17:09Z</time>
      </trkpt>
      <trkpt lat="47.65061" lon="6.18964">
        <ele>272.1</ele>
        <time>2022-07-04T08:17:12Z</time>
      </trkpt>
      <trkpt lat="47.65056" lon="6.1897">
        <ele>272</ele>
        <time>2022-07-04T08:17:14Z</time>
      </trkpt>
      <trkpt lat="47.65051" lon="6.18975">
        <ele>271.8</ele>
        <time>2022-07-04T08:17:16Z</time>
      </trkpt>
      <trkpt lat="47.65042" lon="6.18985">
        <ele>271.3</ele>
        <time>2022-07-04T08:17:19Z</time>
      </trkpt>
      <trkpt lat="47.65037" lon="6.1899">
        <ele>270.9</ele>
        <time>2022-07-04T08:17:21Z</time>
      </trkpt>
      <trkpt lat="47.65027" lon="6.19004">
        <ele>270</ele>
        <time>2022-07-04T08:17:24Z</time>
      </trkpt>
      <trkpt lat="47.65012" lon="6.19019">
        <ele>269</ele>
        <time>2022-07-04T08:17:27Z</time>
      </trkpt>
      <trkpt lat="47.65007" lon="6.19025">
        <ele>268.6</ele>
        <time>2022-07-04T08:17:29Z</time>
      </trkpt>
      <trkpt lat="47.65002" lon="6.19031">
        <ele>268.1</ele>
        <time>2022-07-04T08:17:30Z</time>
      </trkpt>
      <trkpt lat="47.64991" lon="6.19042">
        <ele>267.7</ele>
        <time>2022-07-04T08:17:32Z</time>
      </trkpt>
      <trkpt lat="47.64987" lon="6.19051">
        <ele>267.5</ele>
        <time>2022-07-04T08:17:34Z</time>
      </trkpt>
      <trkpt lat="47.64986" lon="6.19058">
        <ele>267.4</ele>
        <time>2022-07-04T08:17:35Z</time>
      </trkpt>
      <trkpt lat="47.64991" lon="6.19074">
        <ele>267.4</ele>
        <time>2022-07-04T08:17:38Z</time>
      </trkpt>
      <trkpt lat="47.64998" lon="6.19087">
        <ele>267.8</ele>
        <time>2022-07-04T08:17:41Z</time>
      </trkpt>
      <trkpt lat="47.65003" lon="6.19094">
        <ele>267.8</ele>
        <time>2022-07-04T08:17:42Z</time>
      </trkpt>
      <trkpt lat="47.65007" lon="6.19099">
        <ele>267.8</ele>
        <time>2022-07-04T08:17:44Z</time>
      </trkpt>
      <trkpt lat="47.65013" lon="6.19109">
        <ele>268</ele>
        <time>2022-07-04T08:17:46Z</time>
      </trkpt>
      <trkpt lat="47.65016" lon="6.19114">
        <ele>268.1</ele>
        <time>2022-07-04T08:17:47Z</time>
      </trkpt>
      <trkpt lat="47.6502" lon="6.19121">
        <ele>268.5</ele>
        <time>2022-07-04T08:17:49Z</time>
      </trkpt>
      <trkpt lat="47.65029" lon="6.19135">
        <ele>269</ele>
        <time>2022-07-04T08:17:52Z</time>
      </trkpt>
      <trkpt lat="47.65033" lon="6.19143">
        <ele>269.1</ele>
        <time>2022-07-04T08:17:54Z</time>
      </trkpt>
      <trkpt lat="47.65037" lon="6.19151">
        <ele>269.1</ele>
        <time>2022-07-04T08:17:56Z</time>
      </trkpt>
      <trkpt lat="47.6504" lon="6.19156">
        <ele>269.1</ele>
        <time>2022-07-04T08:17:57Z</time>
      </trkpt>
      <trkpt lat="47.65044" lon="6.19163">
        <ele>269.2</ele>
        <time>2022-07-04T08:17:59Z</time>
      </trkpt>
      <trkpt lat="47.65051" lon="6.19174">
        <ele>269.4</ele>
        <time>2022-07-04T08:18:02Z</time>
      </trkpt>
      <trkpt lat="47.65058" lon="6.19184">
        <ele>269.4</ele>
        <time>2022-07-04T08:18:05Z</time>
      </trkpt>
      <trkpt lat="47.65062" lon="6.19191">
        <ele>269.3</ele>
        <time>2022-07-04T08:18:07Z</time>
      </trkpt>
      <trkpt lat="47.65066" lon="6.19197">
        <ele>269.3</ele>
        <time>2022-07-04T08:18:09Z</time>
      </trkpt>
      <trkpt lat="47.65071" lon="6.19204">
        <ele>269.4</ele>
        <time>2022-07-04T08:18:11Z</time>
      </trkpt>
      <trkpt lat="47.65075" lon="6.19211">
        <ele>269.5</ele>
        <time>2022-07-04T08:18:13Z</time>
      </trkpt>
      <trkpt lat="47.6508" lon="6.19217">
        <ele>269.8</ele>
        <time>2022-07-04T08:18:15Z</time>
      </trkpt>
      <trkpt lat="47.65085" lon="6.19224">
        <ele>270.1</ele>
        <time>2022-07-04T08:18:17Z</time>
      </trkpt>
      <trkpt lat="47.65089" lon="6.1923">
        <ele>270.2</ele>
        <time>2022-07-04T08:18:19Z</time>
      </trkpt>
      <trkpt lat="47.65093" lon="6.19236">
        <ele>270.4</ele>
        <time>2022-07-04T08:18:21Z</time>
      </trkpt>
      <trkpt lat="47.65098" lon="6.19243">
        <ele>270.5</ele>
        <time>2022-07-04T08:18:23Z</time>
      </trkpt>
      <trkpt lat="47.65101" lon="6.19249">
        <ele>270.6</ele>
        <time>2022-07-04T08:18:25Z</time>
      </trkpt>
      <trkpt lat="47.65105" lon="6.19255">
        <ele>270.8</ele>
        <time>2022-07-04T08:18:27Z</time>
      </trkpt>
      <trkpt lat="47.6511" lon="6.19261">
        <ele>270.9</ele>
        <time>2022-07-04T08:18:29Z</time>
      </trkpt>
      <trkpt lat="47.65113" lon="6.19266">
        <ele>271.1</ele>
        <time>2022-07-04T08:18:31Z</time>
      </trkpt>
      <trkpt lat="47.65117" lon="6.19271">
        <ele>271.2</ele>
        <time>2022-07-04T08:18:33Z</time>
      </trkpt>
      <trkpt lat="47.65121" lon="6.19275">
        <ele>271.3</ele>
        <time>2022-07-04T08:18:35Z</time>
      </trkpt>
      <trkpt lat="47.65128" lon="6.19285">
        <ele>271.5</ele>
        <time>2022-07-04T08:18:39Z</time>
      </trkpt>
      <trkpt lat="47.65134" lon="6.19291">
        <ele>271.7</ele>
        <time>2022-07-04T08:18:42Z</time>
      </trkpt>
      <trkpt lat="47.65138" lon="6.19295">
        <ele>272</ele>
        <time>2022-07-04T08:18:45Z</time>
      </trkpt>
      <trkpt lat="47.65146" lon="6.19304">
        <ele>272</ele>
        <time>2022-07-04T08:18:48Z</time>
      </trkpt>
      <trkpt lat="47.6515" lon="6.19308">
        <ele>271.9</ele>
        <time>2022-07-04T08:18:49Z</time>
      </trkpt>
      <trkpt lat="47.65154" lon="6.19312">
        <ele>271.8</ele>
        <time>2022-07-04T08:18:51Z</time>
      </trkpt>
      <trkpt lat="47.65167" lon="6.19325">
        <ele>271.3</ele>
        <time>2022-07-04T08:18:57Z</time>
      </trkpt>
      <trkpt lat="47.65171" lon="6.1933">
        <ele>271.3</ele>
        <time>2022-07-04T08:18:59Z</time>
      </trkpt>
      <trkpt lat="47.6518" lon="6.1934">
        <ele>271.2</ele>
        <time>2022-07-04T08:19:02Z</time>
      </trkpt>
      <trkpt lat="47.65185" lon="6.19347">
        <ele>271.2</ele>
        <time>2022-07-04T08:19:04Z</time>
      </trkpt>
      <trkpt lat="47.65192" lon="6.19359">
        <ele>271</ele>
        <time>2022-07-04T08:19:07Z</time>
      </trkpt>
      <trkpt lat="47.65197" lon="6.19368">
        <ele>271</ele>
        <time>2022-07-04T08:19:09Z</time>
      </trkpt>
      <trkpt lat="47.65204" lon="6.1938">
        <ele>271</ele>
        <time>2022-07-04T08:19:12Z</time>
      </trkpt>
      <trkpt lat="47.65207" lon="6.19386">
        <ele>271</ele>
        <time>2022-07-04T08:19:13Z</time>
      </trkpt>
      <trkpt lat="47.6521" lon="6.19391">
        <ele>270.9</ele>
        <time>2022-07-04T08:19:14Z</time>
      </trkpt>
      <trkpt lat="47.65214" lon="6.19399">
        <ele>270.5</ele>
        <time>2022-07-04T08:19:16Z</time>
      </trkpt>
      <trkpt lat="47.65218" lon="6.19405">
        <ele>270.3</ele>
        <time>2022-07-04T08:19:17Z</time>
      </trkpt>
      <trkpt lat="47.65226" lon="6.19419">
        <ele>270.2</ele>
        <time>2022-07-04T08:19:20Z</time>
      </trkpt>
      <trkpt lat="47.65233" lon="6.19431">
        <ele>270.8</ele>
        <time>2022-07-04T08:19:23Z</time>
      </trkpt>
      <trkpt lat="47.65236" lon="6.19436">
        <ele>271</ele>
        <time>2022-07-04T08:19:24Z</time>
      </trkpt>
      <trkpt lat="47.65242" lon="6.19442">
        <ele>271.4</ele>
        <time>2022-07-04T08:19:26Z</time>
      </trkpt>
      <trkpt lat="47.65245" lon="6.19447">
        <ele>271.6</ele>
        <time>2022-07-04T08:19:27Z</time>
      </trkpt>
      <trkpt lat="47.6525" lon="6.19453">
        <ele>271.7</ele>
        <time>2022-07-04T08:19:29Z</time>
      </trkpt>
      <trkpt lat="47.65258" lon="6.19461">
        <ele>271.6</ele>
        <time>2022-07-04T08:19:33Z</time>
      </trkpt>
      <trkpt lat="47.65261" lon="6.19466">
        <ele>271.5</ele>
        <time>2022-07-04T08:19:35Z</time>
      </trkpt>
      <trkpt lat="47.65266" lon="6.19474">
        <ele>271.6</ele>
        <time>2022-07-04T08:19:37Z</time>
      </trkpt>
      <trkpt lat="47.65271" lon="6.19482">
        <ele>271.6</ele>
        <time>2022-07-04T08:19:39Z</time>
      </trkpt>
      <trkpt lat="47.65278" lon="6.19497">
        <ele>272</ele>
        <time>2022-07-04T08:19:43Z</time>
      </trkpt>
      <trkpt lat="47.65282" lon="6.19504">
        <ele>271.8</ele>
        <time>2022-07-04T08:19:44Z</time>
      </trkpt>
      <trkpt lat="47.65285" lon="6.19514">
        <ele>271.4</ele>
        <time>2022-07-04T08:19:46Z</time>
      </trkpt>
      <trkpt lat="47.65287" lon="6.19523">
        <ele>270.9</ele>
        <time>2022-07-04T08:19:47Z</time>
      </trkpt>
      <trkpt lat="47.65288" lon="6.19529">
        <ele>270.5</ele>
        <time>2022-07-04T08:19:48Z</time>
      </trkpt>
      <trkpt lat="47.6529" lon="6.19537">
        <ele>270.1</ele>
        <time>2022-07-04T08:19:50Z</time>
      </trkpt>
      <trkpt lat="47.65292" lon="6.19546">
        <ele>269.5</ele>
        <time>2022-07-04T08:19:52Z</time>
      </trkpt>
      <trkpt lat="47.65301" lon="6.1956">
        <ele>268.8</ele>
        <time>2022-07-04T08:19:55Z</time>
      </trkpt>
      <trkpt lat="47.65325" lon="6.19617">
        <ele>268.3</ele>
        <time>2022-07-04T08:19:56Z</time>
      </trkpt>
      <trkpt lat="47.65328" lon="6.19625">
        <ele>268.5</ele>
        <time>2022-07-04T08:19:57Z</time>
      </trkpt>
      <trkpt lat="47.65331" lon="6.19632">
        <ele>268.8</ele>
        <time>2022-07-04T08:19:58Z</time>
      </trkpt>
      <trkpt lat="47.65333" lon="6.19639">
        <ele>269</ele>
        <time>2022-07-04T08:19:59Z</time>
      </trkpt>
      <trkpt lat="47.65336" lon="6.19645">
        <ele>269</ele>
        <time>2022-07-04T08:20:00Z</time>
      </trkpt>
      <trkpt lat="47.65338" lon="6.19651">
        <ele>269</ele>
        <time>2022-07-04T08:20:01Z</time>
      </trkpt>
      <trkpt lat="47.65342" lon="6.19656">
        <ele>269.2</ele>
        <time>2022-07-04T08:20:06Z</time>
      </trkpt>
      <trkpt lat="47.65345" lon="6.19662">
        <ele>269.4</ele>
        <time>2022-07-04T08:20:08Z</time>
      </trkpt>
      <trkpt lat="47.65349" lon="6.19668">
        <ele>269.7</ele>
        <time>2022-07-04T08:20:09Z</time>
      </trkpt>
      <trkpt lat="47.65354" lon="6.19677">
        <ele>269.9</ele>
        <time>2022-07-04T08:20:11Z</time>
      </trkpt>
      <trkpt lat="47.6536" lon="6.19686">
        <ele>270.1</ele>
        <time>2022-07-04T08:20:13Z</time>
      </trkpt>
      <trkpt lat="47.65364" lon="6.19693">
        <ele>270.3</ele>
        <time>2022-07-04T08:20:14Z</time>
      </trkpt>
      <trkpt lat="47.65367" lon="6.197">
        <ele>270.5</ele>
        <time>2022-07-04T08:20:15Z</time>
      </trkpt>
      <trkpt lat="47.65369" lon="6.19706">
        <ele>270.7</ele>
        <time>2022-07-04T08:20:17Z</time>
      </trkpt>
      <trkpt lat="47.65372" lon="6.19714">
        <ele>271</ele>
        <time>2022-07-04T08:20:18Z</time>
      </trkpt>
      <trkpt lat="47.65378" lon="6.19728">
        <ele>271.9</ele>
        <time>2022-07-04T08:20:21Z</time>
      </trkpt>
      <trkpt lat="47.65385" lon="6.19744">
        <ele>272.5</ele>
        <time>2022-07-04T08:20:24Z</time>
      </trkpt>
      <trkpt lat="47.6539" lon="6.19753">
        <ele>272.8</ele>
        <time>2022-07-04T08:20:26Z</time>
      </trkpt>
      <trkpt lat="47.65394" lon="6.1976">
        <ele>272.5</ele>
        <time>2022-07-04T08:20:28Z</time>
      </trkpt>
      <trkpt lat="47.65398" lon="6.19765">
        <ele>272.5</ele>
        <time>2022-07-04T08:20:30Z</time>
      </trkpt>
      <trkpt lat="47.65401" lon="6.1977">
        <ele>272.4</ele>
        <time>2022-07-04T08:20:31Z</time>
      </trkpt>
      <trkpt lat="47.65405" lon="6.19778">
        <ele>272.3</ele>
        <time>2022-07-04T08:20:33Z</time>
      </trkpt>
      <trkpt lat="47.65409" lon="6.19785">
        <ele>272.4</ele>
        <time>2022-07-04T08:20:34Z</time>
      </trkpt>
      <trkpt lat="47.65414" lon="6.19793">
        <ele>272.6</ele>
        <time>2022-07-04T08:20:36Z</time>
      </trkpt>
      <trkpt lat="47.65418" lon="6.19799">
        <ele>272.6</ele>
        <time>2022-07-04T08:20:37Z</time>
      </trkpt>
      <trkpt lat="47.65422" lon="6.19814">
        <ele>272.3</ele>
        <time>2022-07-04T08:20:40Z</time>
      </trkpt>
      <trkpt lat="47.65425" lon="6.19822">
        <ele>272.3</ele>
        <time>2022-07-04T08:20:42Z</time>
      </trkpt>
      <trkpt lat="47.65433" lon="6.19839">
        <ele>272.6</ele>
        <time>2022-07-04T08:20:46Z</time>
      </trkpt>
      <trkpt lat="47.65441" lon="6.19859">
        <ele>272.7</ele>
        <time>2022-07-04T08:20:52Z</time>
      </trkpt>
      <trkpt lat="47.65444" lon="6.19865">
        <ele>272.7</ele>
        <time>2022-07-04T08:20:54Z</time>
      </trkpt>
      <trkpt lat="47.65446" lon="6.19873">
        <ele>272.2</ele>
        <time>2022-07-04T08:20:56Z</time>
      </trkpt>
      <trkpt lat="47.65452" lon="6.19887">
        <ele>271.7</ele>
        <time>2022-07-04T08:21:00Z</time>
      </trkpt>
      <trkpt lat="47.65459" lon="6.19905">
        <ele>271.2</ele>
        <time>2022-07-04T08:21:03Z</time>
      </trkpt>
      <trkpt lat="47.6547" lon="6.19935">
        <ele>270.9</ele>
        <time>2022-07-04T08:21:07Z</time>
      </trkpt>
      <trkpt lat="47.65474" lon="6.19943">
        <ele>271.2</ele>
        <time>2022-07-04T08:21:09Z</time>
      </trkpt>
      <trkpt lat="47.65477" lon="6.19948">
        <ele>271.1</ele>
        <time>2022-07-04T08:21:10Z</time>
      </trkpt>
      <trkpt lat="47.65481" lon="6.19956">
        <ele>270.8</ele>
        <time>2022-07-04T08:21:11Z</time>
      </trkpt>
      <trkpt lat="47.65497" lon="6.19981">
        <ele>271.8</ele>
        <time>2022-07-04T08:21:16Z</time>
      </trkpt>
      <trkpt lat="47.65501" lon="6.19988">
        <ele>271.9</ele>
        <time>2022-07-04T08:21:18Z</time>
      </trkpt>
      <trkpt lat="47.65509" lon="6.2">
        <ele>271.6</ele>
        <time>2022-07-04T08:21:21Z</time>
      </trkpt>
      <trkpt lat="47.65512" lon="6.20006">
        <ele>271.4</ele>
        <time>2022-07-04T08:21:24Z</time>
      </trkpt>
      <trkpt lat="47.65515" lon="6.20012">
        <ele>271.3</ele>
        <time>2022-07-04T08:21:26Z</time>
      </trkpt>
      <trkpt lat="47.65519" lon="6.20019">
        <ele>271.3</ele>
        <time>2022-07-04T08:21:29Z</time>
      </trkpt>
      <trkpt lat="47.65527" lon="6.20031">
        <ele>271.6</ele>
        <time>2022-07-04T08:21:33Z</time>
      </trkpt>
      <trkpt lat="47.65534" lon="6.20043">
        <ele>271.7</ele>
        <time>2022-07-04T08:21:37Z</time>
      </trkpt>
      <trkpt lat="47.65542" lon="6.20054">
        <ele>272.1</ele>
        <time>2022-07-04T08:21:41Z</time>
      </trkpt>
      <trkpt lat="47.65547" lon="6.20061">
        <ele>272.4</ele>
        <time>2022-07-04T08:21:44Z</time>
      </trkpt>
      <trkpt lat="47.65556" lon="6.2007">
        <ele>273</ele>
        <time>2022-07-04T08:21:45Z</time>
      </trkpt>
      <trkpt lat="47.65559" lon="6.20075">
        <ele>272.8</ele>
        <time>2022-07-04T08:21:51Z</time>
      </trkpt>
      <trkpt lat="47.65563" lon="6.20079">
        <ele>272.8</ele>
        <time>2022-07-04T08:21:53Z</time>
      </trkpt>
      <trkpt lat="47.65566" lon="6.20084">
        <ele>272.7</ele>
        <time>2022-07-04T08:21:55Z</time>
      </trkpt>
      <trkpt lat="47.6557" lon="6.20089">
        <ele>272.7</ele>
        <time>2022-07-04T08:21:57Z</time>
      </trkpt>
      <trkpt lat="47.65574" lon="6.20094">
        <ele>272.8</ele>
        <time>2022-07-04T08:21:59Z</time>
      </trkpt>
      <trkpt lat="47.65578" lon="6.20099">
        <ele>272.9</ele>
        <time>2022-07-04T08:22:01Z</time>
      </trkpt>
      <trkpt lat="47.65583" lon="6.20104">
        <ele>273.2</ele>
        <time>2022-07-04T08:22:04Z</time>
      </trkpt>
      <trkpt lat="47.65586" lon="6.20109">
        <ele>273.3</ele>
        <time>2022-07-04T08:22:06Z</time>
      </trkpt>
      <trkpt lat="47.6559" lon="6.20113">
        <ele>273.3</ele>
        <time>2022-07-04T08:22:08Z</time>
      </trkpt>
      <trkpt lat="47.65599" lon="6.20122">
        <ele>273.6</ele>
        <time>2022-07-04T08:22:13Z</time>
      </trkpt>
      <trkpt lat="47.65604" lon="6.20128">
        <ele>273.8</ele>
        <time>2022-07-04T08:22:16Z</time>
      </trkpt>
      <trkpt lat="47.65609" lon="6.20134">
        <ele>274</ele>
        <time>2022-07-04T08:22:18Z</time>
      </trkpt>
      <trkpt lat="47.65618" lon="6.20143">
        <ele>274.2</ele>
        <time>2022-07-04T08:22:23Z</time>
      </trkpt>
      <trkpt lat="47.65626" lon="6.20155">
        <ele>274.3</ele>
        <time>2022-07-04T08:22:27Z</time>
      </trkpt>
      <trkpt lat="47.6563" lon="6.20159">
        <ele>274.4</ele>
        <time>2022-07-04T08:22:29Z</time>
      </trkpt>
      <trkpt lat="47.65634" lon="6.20163">
        <ele>274.6</ele>
        <time>2022-07-04T08:22:32Z</time>
      </trkpt>
      <trkpt lat="47.65642" lon="6.20165">
        <ele>275.2</ele>
        <time>2022-07-04T08:22:34Z</time>
      </trkpt>
      <trkpt lat="47.65642" lon="6.20157">
        <ele>275.4</ele>
        <time>2022-07-04T08:22:41Z</time>
      </trkpt>
      <trkpt lat="47.65642" lon="6.20148">
        <ele>275.8</ele>
        <time>2022-07-04T08:22:43Z</time>
      </trkpt>
      <trkpt lat="47.65643" lon="6.20139">
        <ele>276.1</ele>
        <time>2022-07-04T08:22:45Z</time>
      </trkpt>
      <trkpt lat="47.65649" lon="6.20128">
        <ele>276.8</ele>
        <time>2022-07-04T08:22:46Z</time>
      </trkpt>
      <trkpt lat="47.65653" lon="6.20123">
        <ele>277.1</ele>
        <time>2022-07-04T08:22:54Z</time>
      </trkpt>
      <trkpt lat="47.6566" lon="6.20115">
        <ele>277.6</ele>
        <time>2022-07-04T08:22:56Z</time>
      </trkpt>
      <trkpt lat="47.65664" lon="6.2011">
        <ele>278</ele>
        <time>2022-07-04T08:23:00Z</time>
      </trkpt>
      <trkpt lat="47.65668" lon="6.20105">
        <ele>278.6</ele>
        <time>2022-07-04T08:23:08Z</time>
      </trkpt>
      <trkpt lat="47.6567" lon="6.20098">
        <ele>279.2</ele>
        <time>2022-07-04T08:23:11Z</time>
      </trkpt>
      <trkpt lat="47.65672" lon="6.20093">
        <ele>279.8</ele>
        <time>2022-07-04T08:23:16Z</time>
      </trkpt>
      <trkpt lat="47.65679" lon="6.2008">
        <ele>281</ele>
        <time>2022-07-04T08:23:25Z</time>
      </trkpt>
      <trkpt lat="47.65683" lon="6.20077">
        <ele>281.4</ele>
        <time>2022-07-04T08:23:29Z</time>
      </trkpt>
      <trkpt lat="47.65687" lon="6.20073">
        <ele>281.8</ele>
        <time>2022-07-04T08:23:34Z</time>
      </trkpt>
      <trkpt lat="47.65692" lon="6.2007">
        <ele>282.3</ele>
        <time>2022-07-04T08:23:38Z</time>
      </trkpt>
      <trkpt lat="47.657" lon="6.20064">
        <ele>283.1</ele>
        <time>2022-07-04T08:23:42Z</time>
      </trkpt>
      <trkpt lat="47.65704" lon="6.20058">
        <ele>283.6</ele>
        <time>2022-07-04T08:23:47Z</time>
      </trkpt>
      <trkpt lat="47.65707" lon="6.20052">
        <ele>284.1</ele>
        <time>2022-07-04T08:23:51Z</time>
      </trkpt>
      <trkpt lat="47.65709" lon="6.20046">
        <ele>284.6</ele>
        <time>2022-07-04T08:24:00Z</time>
      </trkpt>
      <trkpt lat="47.65712" lon="6.2004">
        <ele>285.2</ele>
        <time>2022-07-04T08:24:01Z</time>
      </trkpt>
      <trkpt lat="47.65717" lon="6.20039">
        <ele>285.7</ele>
        <time>2022-07-04T08:24:09Z</time>
      </trkpt>
      <trkpt lat="47.6572" lon="6.20035">
        <ele>286.3</ele>
        <time>2022-07-04T08:24:13Z</time>
      </trkpt>
      <trkpt lat="47.65723" lon="6.2003">
        <ele>286.9</ele>
        <time>2022-07-04T08:24:18Z</time>
      </trkpt>
      <trkpt lat="47.65726" lon="6.20024">
        <ele>287.4</ele>
        <time>2022-07-04T08:24:21Z</time>
      </trkpt>
      <trkpt lat="47.65729" lon="6.20019">
        <ele>287.9</ele>
        <time>2022-07-04T08:24:26Z</time>
      </trkpt>
      <trkpt lat="47.65732" lon="6.20013">
        <ele>288.4</ele>
        <time>2022-07-04T08:24:30Z</time>
      </trkpt>
      <trkpt lat="47.65735" lon="6.20008">
        <ele>289</ele>
        <time>2022-07-04T08:24:33Z</time>
      </trkpt>
      <trkpt lat="47.65741" lon="6.19996">
        <ele>290.2</ele>
        <time>2022-07-04T08:24:42Z</time>
      </trkpt>
      <trkpt lat="47.65744" lon="6.19982">
        <ele>291.1</ele>
        <time>2022-07-04T08:24:46Z</time>
      </trkpt>
      <trkpt lat="47.65748" lon="6.19976">
        <ele>291.6</ele>
        <time>2022-07-04T08:24:51Z</time>
      </trkpt>
      <trkpt lat="47.65752" lon="6.1997">
        <ele>292.3</ele>
        <time>2022-07-04T08:25:00Z</time>
      </trkpt>
      <trkpt lat="47.65753" lon="6.19963">
        <ele>292.9</ele>
        <time>2022-07-04T08:25:04Z</time>
      </trkpt>
      <trkpt lat="47.65755" lon="6.19957">
        <ele>293.5</ele>
        <time>2022-07-04T08:25:08Z</time>
      </trkpt>
      <trkpt lat="47.65757" lon="6.1995">
        <ele>294.2</ele>
        <time>2022-07-04T08:25:13Z</time>
      </trkpt>
      <trkpt lat="47.65759" lon="6.19943">
        <ele>294.7</ele>
        <time>2022-07-04T08:25:18Z</time>
      </trkpt>
      <trkpt lat="47.65764" lon="6.19939">
        <ele>295.1</ele>
        <time>2022-07-04T08:25:22Z</time>
      </trkpt>
      <trkpt lat="47.65767" lon="6.19933">
        <ele>295.4</ele>
        <time>2022-07-04T08:25:27Z</time>
      </trkpt>
      <trkpt lat="47.6577" lon="6.19929">
        <ele>295.9</ele>
        <time>2022-07-04T08:25:31Z</time>
      </trkpt>
      <trkpt lat="47.65774" lon="6.19923">
        <ele>296.3</ele>
        <time>2022-07-04T08:25:34Z</time>
      </trkpt>
      <trkpt lat="47.6578" lon="6.19911">
        <ele>297.3</ele>
        <time>2022-07-04T08:25:42Z</time>
      </trkpt>
      <trkpt lat="47.65782" lon="6.19905">
        <ele>297.7</ele>
        <time>2022-07-04T08:25:45Z</time>
      </trkpt>
      <trkpt lat="47.65785" lon="6.19898">
        <ele>298.2</ele>
        <time>2022-07-04T08:25:50Z</time>
      </trkpt>
      <trkpt lat="47.65789" lon="6.19893">
        <ele>298.6</ele>
        <time>2022-07-04T08:25:54Z</time>
      </trkpt>
      <trkpt lat="47.65791" lon="6.19887">
        <ele>299.1</ele>
        <time>2022-07-04T08:25:58Z</time>
      </trkpt>
      <trkpt lat="47.65798" lon="6.19876">
        <ele>299.9</ele>
        <time>2022-07-04T08:26:05Z</time>
      </trkpt>
      <trkpt lat="47.65807" lon="6.1987">
        <ele>300.9</ele>
        <time>2022-07-04T08:26:08Z</time>
      </trkpt>
      <trkpt lat="47.65812" lon="6.19866">
        <ele>301.5</ele>
        <time>2022-07-04T08:26:12Z</time>
      </trkpt>
      <trkpt lat="47.65816" lon="6.19861">
        <ele>302.1</ele>
        <time>2022-07-04T08:26:16Z</time>
      </trkpt>
      <trkpt lat="47.6582" lon="6.19858">
        <ele>302.6</ele>
        <time>2022-07-04T08:26:25Z</time>
      </trkpt>
      <trkpt lat="47.65823" lon="6.19853">
        <ele>303.2</ele>
        <time>2022-07-04T08:26:29Z</time>
      </trkpt>
      <trkpt lat="47.65826" lon="6.19847">
        <ele>303.7</ele>
        <time>2022-07-04T08:26:33Z</time>
      </trkpt>
      <trkpt lat="47.65829" lon="6.19841">
        <ele>304.3</ele>
        <time>2022-07-04T08:26:37Z</time>
      </trkpt>
      <trkpt lat="47.65832" lon="6.19836">
        <ele>304.8</ele>
        <time>2022-07-04T08:26:41Z</time>
      </trkpt>
      <trkpt lat="47.65835" lon="6.1983">
        <ele>305.1</ele>
        <time>2022-07-04T08:26:44Z</time>
      </trkpt>
      <trkpt lat="47.65838" lon="6.19824">
        <ele>305.4</ele>
        <time>2022-07-04T08:26:48Z</time>
      </trkpt>
      <trkpt lat="47.6584" lon="6.19817">
        <ele>305.6</ele>
        <time>2022-07-04T08:26:52Z</time>
      </trkpt>
      <trkpt lat="47.65845" lon="6.19806">
        <ele>306.3</ele>
        <time>2022-07-04T08:26:54Z</time>
      </trkpt>
      <trkpt lat="47.65848" lon="6.19801">
        <ele>306.8</ele>
        <time>2022-07-04T08:27:03Z</time>
      </trkpt>
      <trkpt lat="47.65851" lon="6.19795">
        <ele>307.3</ele>
        <time>2022-07-04T08:27:07Z</time>
      </trkpt>
      <trkpt lat="47.65855" lon="6.1979">
        <ele>307.9</ele>
        <time>2022-07-04T08:27:11Z</time>
      </trkpt>
      <trkpt lat="47.65858" lon="6.19785">
        <ele>308.4</ele>
        <time>2022-07-04T08:27:14Z</time>
      </trkpt>
      <trkpt lat="47.6586" lon="6.19778">
        <ele>308.9</ele>
        <time>2022-07-04T08:27:19Z</time>
      </trkpt>
      <trkpt lat="47.65867" lon="6.19769">
        <ele>309.5</ele>
        <time>2022-07-04T08:27:27Z</time>
      </trkpt>
      <trkpt lat="47.6587" lon="6.19764">
        <ele>309.8</ele>
        <time>2022-07-04T08:27:31Z</time>
      </trkpt>
      <trkpt lat="47.65874" lon="6.1976">
        <ele>310.3</ele>
        <time>2022-07-04T08:27:35Z</time>
      </trkpt>
      <trkpt lat="47.65877" lon="6.19754">
        <ele>310.7</ele>
        <time>2022-07-04T08:27:39Z</time>
      </trkpt>
      <trkpt lat="47.65882" lon="6.19751">
        <ele>311.2</ele>
        <time>2022-07-04T08:27:43Z</time>
      </trkpt>
      <trkpt lat="47.65886" lon="6.19747">
        <ele>311.7</ele>
        <time>2022-07-04T08:27:48Z</time>
      </trkpt>
      <trkpt lat="47.65891" lon="6.19742">
        <ele>312.2</ele>
        <time>2022-07-04T08:27:53Z</time>
      </trkpt>
      <trkpt lat="47.65895" lon="6.19739">
        <ele>312.6</ele>
        <time>2022-07-04T08:27:57Z</time>
      </trkpt>
      <trkpt lat="47.65899" lon="6.19735">
        <ele>313.1</ele>
        <time>2022-07-04T08:28:01Z</time>
      </trkpt>
      <trkpt lat="47.65904" lon="6.19735">
        <ele>313.6</ele>
        <time>2022-07-04T08:28:05Z</time>
      </trkpt>
      <trkpt lat="47.65909" lon="6.19731">
        <ele>314.2</ele>
        <time>2022-07-04T08:28:10Z</time>
      </trkpt>
      <trkpt lat="47.65914" lon="6.19728">
        <ele>314.7</ele>
        <time>2022-07-04T08:28:14Z</time>
      </trkpt>
      <trkpt lat="47.65918" lon="6.19726">
        <ele>315.1</ele>
        <time>2022-07-04T08:28:18Z</time>
      </trkpt>
      <trkpt lat="47.65923" lon="6.19725">
        <ele>315.4</ele>
        <time>2022-07-04T08:28:22Z</time>
      </trkpt>
      <trkpt lat="47.65932" lon="6.1972">
        <ele>316.1</ele>
        <time>2022-07-04T08:28:30Z</time>
      </trkpt>
      <trkpt lat="47.65937" lon="6.19717">
        <ele>316.5</ele>
        <time>2022-07-04T08:28:30Z</time>
      </trkpt>
      <trkpt lat="47.65942" lon="6.19716">
        <ele>316.8</ele>
        <time>2022-07-04T08:28:40Z</time>
      </trkpt>
      <trkpt lat="47.65946" lon="6.19712">
        <ele>317.3</ele>
        <time>2022-07-04T08:28:44Z</time>
      </trkpt>
      <trkpt lat="47.6595" lon="6.19708">
        <ele>318.1</ele>
        <time>2022-07-04T08:28:48Z</time>
      </trkpt>
      <trkpt lat="47.65953" lon="6.19703">
        <ele>318.8</ele>
        <time>2022-07-04T08:28:52Z</time>
      </trkpt>
      <trkpt lat="47.65956" lon="6.19698">
        <ele>319.6</ele>
        <time>2022-07-04T08:28:56Z</time>
      </trkpt>
      <trkpt lat="47.6596" lon="6.19692">
        <ele>320.2</ele>
        <time>2022-07-04T08:29:00Z</time>
      </trkpt>
      <trkpt lat="47.65962" lon="6.19686">
        <ele>320.6</ele>
        <time>2022-07-04T08:29:04Z</time>
      </trkpt>
      <trkpt lat="47.65963" lon="6.19679">
        <ele>320.9</ele>
        <time>2022-07-04T08:29:07Z</time>
      </trkpt>
      <trkpt lat="47.65964" lon="6.19672">
        <ele>320.9</ele>
        <time>2022-07-04T08:29:11Z</time>
      </trkpt>
      <trkpt lat="47.65966" lon="6.19658">
        <ele>320.5</ele>
        <time>2022-07-04T08:29:16Z</time>
      </trkpt>
      <trkpt lat="47.6597" lon="6.19645">
        <ele>320.2</ele>
        <time>2022-07-04T08:29:24Z</time>
      </trkpt>
      <trkpt lat="47.65974" lon="6.1964">
        <ele>320.4</ele>
        <time>2022-07-04T08:29:28Z</time>
      </trkpt>
      <trkpt lat="47.65984" lon="6.19635">
        <ele>321.6</ele>
        <time>2022-07-04T08:29:38Z</time>
      </trkpt>
      <trkpt lat="47.65989" lon="6.19633">
        <ele>322.2</ele>
        <time>2022-07-04T08:29:42Z</time>
      </trkpt>
      <trkpt lat="47.65994" lon="6.19632">
        <ele>322.9</ele>
        <time>2022-07-04T08:29:46Z</time>
      </trkpt>
      <trkpt lat="47.65999" lon="6.19631">
        <ele>323.6</ele>
        <time>2022-07-04T08:29:49Z</time>
      </trkpt>
      <trkpt lat="47.66004" lon="6.19635">
        <ele>324.5</ele>
        <time>2022-07-04T08:29:53Z</time>
      </trkpt>
      <trkpt lat="47.66013" lon="6.19641">
        <ele>325.9</ele>
        <time>2022-07-04T08:30:03Z</time>
      </trkpt>
      <trkpt lat="47.66018" lon="6.19638">
        <ele>326.6</ele>
        <time>2022-07-04T08:30:10Z</time>
      </trkpt>
      <trkpt lat="47.66027" lon="6.19634">
        <ele>327.8</ele>
        <time>2022-07-04T08:30:17Z</time>
      </trkpt>
      <trkpt lat="47.66032" lon="6.19632">
        <ele>328.4</ele>
        <time>2022-07-04T08:30:20Z</time>
      </trkpt>
      <trkpt lat="47.66037" lon="6.19629">
        <ele>328.9</ele>
        <time>2022-07-04T08:30:24Z</time>
      </trkpt>
      <trkpt lat="47.66042" lon="6.19626">
        <ele>329.3</ele>
        <time>2022-07-04T08:30:28Z</time>
      </trkpt>
      <trkpt lat="47.66046" lon="6.19622">
        <ele>329.5</ele>
        <time>2022-07-04T08:30:31Z</time>
      </trkpt>
      <trkpt lat="47.6605" lon="6.19619">
        <ele>329.8</ele>
        <time>2022-07-04T08:30:36Z</time>
      </trkpt>
      <trkpt lat="47.66055" lon="6.19616">
        <ele>330.1</ele>
        <time>2022-07-04T08:30:40Z</time>
      </trkpt>
      <trkpt lat="47.66065" lon="6.19613">
        <ele>331.4</ele>
        <time>2022-07-04T08:30:44Z</time>
      </trkpt>
      <trkpt lat="47.6607" lon="6.19612">
        <ele>332.1</ele>
        <time>2022-07-04T08:30:54Z</time>
      </trkpt>
      <trkpt lat="47.66075" lon="6.19612">
        <ele>332.8</ele>
        <time>2022-07-04T08:30:57Z</time>
      </trkpt>
      <trkpt lat="47.66085" lon="6.19609">
        <ele>334</ele>
        <time>2022-07-04T08:31:04Z</time>
      </trkpt>
      <trkpt lat="47.66089" lon="6.19606">
        <ele>334.3</ele>
        <time>2022-07-04T08:31:09Z</time>
      </trkpt>
      <trkpt lat="47.66094" lon="6.19605">
        <ele>334.6</ele>
        <time>2022-07-04T08:31:14Z</time>
      </trkpt>
      <trkpt lat="47.66098" lon="6.19601">
        <ele>334.9</ele>
        <time>2022-07-04T08:31:17Z</time>
      </trkpt>
      <trkpt lat="47.66103" lon="6.19597">
        <ele>335.3</ele>
        <time>2022-07-04T08:31:22Z</time>
      </trkpt>
      <trkpt lat="47.66107" lon="6.19592">
        <ele>335.6</ele>
        <time>2022-07-04T08:31:27Z</time>
      </trkpt>
      <trkpt lat="47.66111" lon="6.19588">
        <ele>336</ele>
        <time>2022-07-04T08:31:32Z</time>
      </trkpt>
      <trkpt lat="47.66114" lon="6.19582">
        <ele>336.3</ele>
        <time>2022-07-04T08:31:35Z</time>
      </trkpt>
      <trkpt lat="47.66117" lon="6.19576">
        <ele>336.6</ele>
        <time>2022-07-04T08:31:39Z</time>
      </trkpt>
      <trkpt lat="47.6612" lon="6.19569">
        <ele>336.8</ele>
        <time>2022-07-04T08:31:42Z</time>
      </trkpt>
      <trkpt lat="47.66122" lon="6.19562">
        <ele>336.9</ele>
        <time>2022-07-04T08:31:45Z</time>
      </trkpt>
      <trkpt lat="47.66125" lon="6.19555">
        <ele>337</ele>
        <time>2022-07-04T08:31:48Z</time>
      </trkpt>
      <trkpt lat="47.66126" lon="6.19548">
        <ele>337.1</ele>
        <time>2022-07-04T08:31:50Z</time>
      </trkpt>
      <trkpt lat="47.66129" lon="6.19532">
        <ele>337.3</ele>
        <time>2022-07-04T08:31:55Z</time>
      </trkpt>
      <trkpt lat="47.66132" lon="6.19524">
        <ele>337.3</ele>
        <time>2022-07-04T08:31:57Z</time>
      </trkpt>
      <trkpt lat="47.66136" lon="6.1952">
        <ele>337.5</ele>
        <time>2022-07-04T08:32:00Z</time>
      </trkpt>
      <trkpt lat="47.6614" lon="6.19517">
        <ele>337.7</ele>
        <time>2022-07-04T08:32:03Z</time>
      </trkpt>
      <trkpt lat="47.66144" lon="6.19514">
        <ele>337.8</ele>
        <time>2022-07-04T08:32:06Z</time>
      </trkpt>
      <trkpt lat="47.66149" lon="6.1951">
        <ele>337.9</ele>
        <time>2022-07-04T08:32:09Z</time>
      </trkpt>
      <trkpt lat="47.66153" lon="6.19506">
        <ele>337.8</ele>
        <time>2022-07-04T08:32:12Z</time>
      </trkpt>
      <trkpt lat="47.66158" lon="6.19503">
        <ele>337.9</ele>
        <time>2022-07-04T08:32:16Z</time>
      </trkpt>
      <trkpt lat="47.66169" lon="6.19501">
        <ele>338.1</ele>
        <time>2022-07-04T08:32:21Z</time>
      </trkpt>
      <trkpt lat="47.66173" lon="6.195">
        <ele>338.2</ele>
        <time>2022-07-04T08:32:23Z</time>
      </trkpt>
      <trkpt lat="47.66178" lon="6.19499">
        <ele>338.3</ele>
        <time>2022-07-04T08:32:26Z</time>
      </trkpt>
      <trkpt lat="47.66183" lon="6.19497">
        <ele>338.3</ele>
        <time>2022-07-04T08:32:29Z</time>
      </trkpt>
      <trkpt lat="47.66195" lon="6.19493">
        <ele>338.2</ele>
        <time>2022-07-04T08:32:34Z</time>
      </trkpt>
      <trkpt lat="47.66207" lon="6.19491">
        <ele>338</ele>
        <time>2022-07-04T08:32:41Z</time>
      </trkpt>
      <trkpt lat="47.66211" lon="6.19492">
        <ele>338.2</ele>
        <time>2022-07-04T08:32:43Z</time>
      </trkpt>
      <trkpt lat="47.6622" lon="6.19496">
        <ele>338.6</ele>
        <time>2022-07-04T08:32:51Z</time>
      </trkpt>
      <trkpt lat="47.66225" lon="6.19499">
        <ele>338.8</ele>
        <time>2022-07-04T08:32:56Z</time>
      </trkpt>
      <trkpt lat="47.66229" lon="6.19501">
        <ele>339.1</ele>
        <time>2022-07-04T08:33:00Z</time>
      </trkpt>
      <trkpt lat="47.66234" lon="6.19502">
        <ele>339.2</ele>
        <time>2022-07-04T08:33:03Z</time>
      </trkpt>
      <trkpt lat="47.66239" lon="6.19504">
        <ele>339.4</ele>
        <time>2022-07-04T08:33:06Z</time>
      </trkpt>
      <trkpt lat="47.66243" lon="6.19506">
        <ele>339.7</ele>
        <time>2022-07-04T08:33:08Z</time>
      </trkpt>
      <trkpt lat="47.66248" lon="6.19508">
        <ele>339.9</ele>
        <time>2022-07-04T08:33:12Z</time>
      </trkpt>
      <trkpt lat="47.66254" lon="6.19509">
        <ele>340</ele>
        <time>2022-07-04T08:33:15Z</time>
      </trkpt>
      <trkpt lat="47.66259" lon="6.19511">
        <ele>340.2</ele>
        <time>2022-07-04T08:33:18Z</time>
      </trkpt>
      <trkpt lat="47.66263" lon="6.19512">
        <ele>340.3</ele>
        <time>2022-07-04T08:33:20Z</time>
      </trkpt>
      <trkpt lat="47.66269" lon="6.19514">
        <ele>340.5</ele>
        <time>2022-07-04T08:33:23Z</time>
      </trkpt>
      <trkpt lat="47.66279" lon="6.19517">
        <ele>340.8</ele>
        <time>2022-07-04T08:33:27Z</time>
      </trkpt>
      <trkpt lat="47.66284" lon="6.19517">
        <ele>340.9</ele>
        <time>2022-07-04T08:33:29Z</time>
      </trkpt>
      <trkpt lat="47.6629" lon="6.19519">
        <ele>341.2</ele>
        <time>2022-07-04T08:33:30Z</time>
      </trkpt>
      <trkpt lat="47.66295" lon="6.19518">
        <ele>341.2</ele>
        <time>2022-07-04T08:33:32Z</time>
      </trkpt>
      <trkpt lat="47.663" lon="6.19519">
        <ele>341.3</ele>
        <time>2022-07-04T08:33:35Z</time>
      </trkpt>
      <trkpt lat="47.66306" lon="6.19522">
        <ele>341.6</ele>
        <time>2022-07-04T08:33:39Z</time>
      </trkpt>
      <trkpt lat="47.66317" lon="6.19524">
        <ele>341.7</ele>
        <time>2022-07-04T08:34:22Z</time>
      </trkpt>
      <trkpt lat="47.66322" lon="6.19525">
        <ele>341.8</ele>
        <time>2022-07-04T08:34:51Z</time>
      </trkpt>
      <trkpt lat="47.66327" lon="6.19524">
        <ele>341.7</ele>
        <time>2022-07-04T08:36:30Z</time>
      </trkpt>
      <trkpt lat="47.66332" lon="6.19525">
        <ele>341.8</ele>
        <time>2022-07-04T08:36:32Z</time>
      </trkpt>
      <trkpt lat="47.66337" lon="6.19527">
        <ele>341.8</ele>
        <time>2022-07-04T08:36:34Z</time>
      </trkpt>
      <trkpt lat="47.66348" lon="6.19527">
        <ele>341.5</ele>
        <time>2022-07-04T08:36:38Z</time>
      </trkpt>
      <trkpt lat="47.66354" lon="6.19528">
        <ele>341.3</ele>
        <time>2022-07-04T08:36:40Z</time>
      </trkpt>
      <trkpt lat="47.66359" lon="6.19528">
        <ele>341.1</ele>
        <time>2022-07-04T08:36:41Z</time>
      </trkpt>
      <trkpt lat="47.66366" lon="6.19528">
        <ele>340.8</ele>
        <time>2022-07-04T08:36:43Z</time>
      </trkpt>
      <trkpt lat="47.66374" lon="6.19528">
        <ele>340.5</ele>
        <time>2022-07-04T08:36:45Z</time>
      </trkpt>
      <trkpt lat="47.66379" lon="6.19529">
        <ele>340.3</ele>
        <time>2022-07-04T08:36:46Z</time>
      </trkpt>
      <trkpt lat="47.66384" lon="6.1953">
        <ele>340.2</ele>
        <time>2022-07-04T08:36:47Z</time>
      </trkpt>
      <trkpt lat="47.66391" lon="6.19531">
        <ele>339.9</ele>
        <time>2022-07-04T08:36:49Z</time>
      </trkpt>
      <trkpt lat="47.66398" lon="6.19534">
        <ele>339.4</ele>
        <time>2022-07-04T08:36:51Z</time>
      </trkpt>
      <trkpt lat="47.66405" lon="6.19536">
        <ele>339</ele>
        <time>2022-07-04T08:36:53Z</time>
      </trkpt>
      <trkpt lat="47.6641" lon="6.19537">
        <ele>338.7</ele>
        <time>2022-07-04T08:36:54Z</time>
      </trkpt>
      <trkpt lat="47.66417" lon="6.19538">
        <ele>338.4</ele>
        <time>2022-07-04T08:36:56Z</time>
      </trkpt>
      <trkpt lat="47.66423" lon="6.19538">
        <ele>338.1</ele>
        <time>2022-07-04T08:36:57Z</time>
      </trkpt>
      <trkpt lat="47.66428" lon="6.19539">
        <ele>338</ele>
        <time>2022-07-04T08:36:58Z</time>
      </trkpt>
      <trkpt lat="47.66438" lon="6.19542">
        <ele>337.7</ele>
        <time>2022-07-04T08:37:00Z</time>
      </trkpt>
      <trkpt lat="47.66472" lon="6.19552">
        <ele>337</ele>
        <time>2022-07-04T08:37:01Z</time>
      </trkpt>
      <trkpt lat="47.66477" lon="6.19555">
        <ele>336.8</ele>
        <time>2022-07-04T08:37:02Z</time>
      </trkpt>
      <trkpt lat="47.66483" lon="6.19559">
        <ele>336.6</ele>
        <time>2022-07-04T08:37:03Z</time>
      </trkpt>
      <trkpt lat="47.66489" lon="6.19564">
        <ele>336.2</ele>
        <time>2022-07-04T08:37:04Z</time>
      </trkpt>
      <trkpt lat="47.66494" lon="6.19569">
        <ele>335.8</ele>
        <time>2022-07-04T08:37:05Z</time>
      </trkpt>
      <trkpt lat="47.66499" lon="6.19573">
        <ele>335.4</ele>
        <time>2022-07-04T08:37:06Z</time>
      </trkpt>
      <trkpt lat="47.66505" lon="6.19578">
        <ele>335.2</ele>
        <time>2022-07-04T08:37:07Z</time>
      </trkpt>
      <trkpt lat="47.6651" lon="6.19582">
        <ele>335</ele>
        <time>2022-07-04T08:37:08Z</time>
      </trkpt>
      <trkpt lat="47.66515" lon="6.19586">
        <ele>335</ele>
        <time>2022-07-04T08:37:09Z</time>
      </trkpt>
      <trkpt lat="47.6652" lon="6.1959">
        <ele>334.8</ele>
        <time>2022-07-04T08:37:10Z</time>
      </trkpt>
      <trkpt lat="47.66525" lon="6.19594">
        <ele>334.7</ele>
        <time>2022-07-04T08:37:11Z</time>
      </trkpt>
      <trkpt lat="47.6653" lon="6.19599">
        <ele>334.3</ele>
        <time>2022-07-04T08:37:12Z</time>
      </trkpt>
      <trkpt lat="47.66534" lon="6.19603">
        <ele>333.8</ele>
        <time>2022-07-04T08:37:13Z</time>
      </trkpt>
      <trkpt lat="47.66539" lon="6.19607">
        <ele>333.4</ele>
        <time>2022-07-04T08:37:14Z</time>
      </trkpt>
      <trkpt lat="47.66543" lon="6.19611">
        <ele>332.9</ele>
        <time>2022-07-04T08:37:15Z</time>
      </trkpt>
      <trkpt lat="47.66547" lon="6.19614">
        <ele>332.6</ele>
        <time>2022-07-04T08:37:16Z</time>
      </trkpt>
      <trkpt lat="47.66552" lon="6.19618">
        <ele>332.2</ele>
        <time>2022-07-04T08:37:17Z</time>
      </trkpt>
      <trkpt lat="47.66556" lon="6.19622">
        <ele>331.9</ele>
        <time>2022-07-04T08:37:18Z</time>
      </trkpt>
      <trkpt lat="47.66562" lon="6.19625">
        <ele>331.4</ele>
        <time>2022-07-04T08:37:19Z</time>
      </trkpt>
      <trkpt lat="47.66567" lon="6.19629">
        <ele>330.8</ele>
        <time>2022-07-04T08:37:20Z</time>
      </trkpt>
      <trkpt lat="47.66572" lon="6.19633">
        <ele>330.2</ele>
        <time>2022-07-04T08:37:21Z</time>
      </trkpt>
      <trkpt lat="47.66577" lon="6.19636">
        <ele>329.7</ele>
        <time>2022-07-04T08:37:22Z</time>
      </trkpt>
      <trkpt lat="47.66582" lon="6.19639">
        <ele>329.2</ele>
        <time>2022-07-04T08:37:23Z</time>
      </trkpt>
      <trkpt lat="47.66586" lon="6.19642">
        <ele>328.5</ele>
        <time>2022-07-04T08:37:24Z</time>
      </trkpt>
      <trkpt lat="47.66591" lon="6.19646">
        <ele>327.7</ele>
        <time>2022-07-04T08:37:25Z</time>
      </trkpt>
      <trkpt lat="47.66595" lon="6.1965">
        <ele>327</ele>
        <time>2022-07-04T08:37:26Z</time>
      </trkpt>
      <trkpt lat="47.666" lon="6.19653">
        <ele>326.3</ele>
        <time>2022-07-04T08:37:27Z</time>
      </trkpt>
      <trkpt lat="47.66605" lon="6.19657">
        <ele>325.6</ele>
        <time>2022-07-04T08:37:28Z</time>
      </trkpt>
      <trkpt lat="47.6661" lon="6.19661">
        <ele>325</ele>
        <time>2022-07-04T08:37:29Z</time>
      </trkpt>
      <trkpt lat="47.66616" lon="6.19666">
        <ele>324.3</ele>
        <time>2022-07-04T08:37:30Z</time>
      </trkpt>
      <trkpt lat="47.66622" lon="6.19673">
        <ele>323.7</ele>
        <time>2022-07-04T08:37:31Z</time>
      </trkpt>
      <trkpt lat="47.66628" lon="6.1968">
        <ele>323.1</ele>
        <time>2022-07-04T08:37:32Z</time>
      </trkpt>
      <trkpt lat="47.66633" lon="6.19687">
        <ele>322.6</ele>
        <time>2022-07-04T08:37:33Z</time>
      </trkpt>
      <trkpt lat="47.66638" lon="6.19694">
        <ele>322.1</ele>
        <time>2022-07-04T08:37:34Z</time>
      </trkpt>
      <trkpt lat="47.66643" lon="6.19701">
        <ele>321.8</ele>
        <time>2022-07-04T08:37:35Z</time>
      </trkpt>
      <trkpt lat="47.66647" lon="6.19706">
        <ele>321.6</ele>
        <time>2022-07-04T08:37:36Z</time>
      </trkpt>
      <trkpt lat="47.6665" lon="6.19711">
        <ele>321.4</ele>
        <time>2022-07-04T08:37:37Z</time>
      </trkpt>
      <trkpt lat="47.66654" lon="6.19716">
        <ele>321.1</ele>
        <time>2022-07-04T08:37:38Z</time>
      </trkpt>
      <trkpt lat="47.66657" lon="6.19721">
        <ele>320.9</ele>
        <time>2022-07-04T08:37:39Z</time>
      </trkpt>
      <trkpt lat="47.66662" lon="6.19728">
        <ele>320.5</ele>
        <time>2022-07-04T08:37:41Z</time>
      </trkpt>
      <trkpt lat="47.66665" lon="6.19734">
        <ele>320.1</ele>
        <time>2022-07-04T08:37:42Z</time>
      </trkpt>
      <trkpt lat="47.66669" lon="6.1974">
        <ele>319.8</ele>
        <time>2022-07-04T08:37:43Z</time>
      </trkpt>
      <trkpt lat="47.66675" lon="6.19752">
        <ele>319.2</ele>
        <time>2022-07-04T08:37:45Z</time>
      </trkpt>
      <trkpt lat="47.66678" lon="6.19759">
        <ele>318.9</ele>
        <time>2022-07-04T08:37:46Z</time>
      </trkpt>
      <trkpt lat="47.66683" lon="6.19766">
        <ele>318.6</ele>
        <time>2022-07-04T08:37:47Z</time>
      </trkpt>
      <trkpt lat="47.66688" lon="6.19773">
        <ele>318.3</ele>
        <time>2022-07-04T08:37:48Z</time>
      </trkpt>
      <trkpt lat="47.66693" lon="6.19781">
        <ele>318.2</ele>
        <time>2022-07-04T08:37:49Z</time>
      </trkpt>
      <trkpt lat="47.66699" lon="6.19789">
        <ele>317.9</ele>
        <time>2022-07-04T08:37:50Z</time>
      </trkpt>
      <trkpt lat="47.66705" lon="6.19797">
        <ele>317.6</ele>
        <time>2022-07-04T08:37:51Z</time>
      </trkpt>
      <trkpt lat="47.6671" lon="6.19805">
        <ele>317.3</ele>
        <time>2022-07-04T08:37:52Z</time>
      </trkpt>
      <trkpt lat="47.66716" lon="6.19813">
        <ele>316.8</ele>
        <time>2022-07-04T08:37:53Z</time>
      </trkpt>
      <trkpt lat="47.66722" lon="6.1982">
        <ele>316.6</ele>
        <time>2022-07-04T08:37:54Z</time>
      </trkpt>
      <trkpt lat="47.66727" lon="6.19828">
        <ele>316.3</ele>
        <time>2022-07-04T08:37:55Z</time>
      </trkpt>
      <trkpt lat="47.66733" lon="6.19835">
        <ele>315.9</ele>
        <time>2022-07-04T08:37:56Z</time>
      </trkpt>
      <trkpt lat="47.66738" lon="6.19842">
        <ele>315.5</ele>
        <time>2022-07-04T08:37:57Z</time>
      </trkpt>
      <trkpt lat="47.66743" lon="6.19849">
        <ele>315.2</ele>
        <time>2022-07-04T08:37:58Z</time>
      </trkpt>
      <trkpt lat="47.66747" lon="6.19856">
        <ele>315</ele>
        <time>2022-07-04T08:37:59Z</time>
      </trkpt>
      <trkpt lat="47.66752" lon="6.19863">
        <ele>314.9</ele>
        <time>2022-07-04T08:38:00Z</time>
      </trkpt>
      <trkpt lat="47.66756" lon="6.19869">
        <ele>314.6</ele>
        <time>2022-07-04T08:38:01Z</time>
      </trkpt>
      <trkpt lat="47.66761" lon="6.19875">
        <ele>314.4</ele>
        <time>2022-07-04T08:38:02Z</time>
      </trkpt>
      <trkpt lat="47.66766" lon="6.19882">
        <ele>314.3</ele>
        <time>2022-07-04T08:38:03Z</time>
      </trkpt>
      <trkpt lat="47.66771" lon="6.19888">
        <ele>314.2</ele>
        <time>2022-07-04T08:38:04Z</time>
      </trkpt>
      <trkpt lat="47.66776" lon="6.19894">
        <ele>314.2</ele>
        <time>2022-07-04T08:38:05Z</time>
      </trkpt>
      <trkpt lat="47.66781" lon="6.19899">
        <ele>314.2</ele>
        <time>2022-07-04T08:38:06Z</time>
      </trkpt>
      <trkpt lat="47.66786" lon="6.19904">
        <ele>314.1</ele>
        <time>2022-07-04T08:38:07Z</time>
      </trkpt>
      <trkpt lat="47.66791" lon="6.19909">
        <ele>313.9</ele>
        <time>2022-07-04T08:38:08Z</time>
      </trkpt>
      <trkpt lat="47.66796" lon="6.19915">
        <ele>313.7</ele>
        <time>2022-07-04T08:38:09Z</time>
      </trkpt>
      <trkpt lat="47.66801" lon="6.1992">
        <ele>313.4</ele>
        <time>2022-07-04T08:38:10Z</time>
      </trkpt>
      <trkpt lat="47.66806" lon="6.19924">
        <ele>313.3</ele>
        <time>2022-07-04T08:38:11Z</time>
      </trkpt>
      <trkpt lat="47.66811" lon="6.19928">
        <ele>313.2</ele>
        <time>2022-07-04T08:38:12Z</time>
      </trkpt>
      <trkpt lat="47.66816" lon="6.19931">
        <ele>313.2</ele>
        <time>2022-07-04T08:38:13Z</time>
      </trkpt>
      <trkpt lat="47.66823" lon="6.19934">
        <ele>313</ele>
        <time>2022-07-04T08:38:15Z</time>
      </trkpt>
      <trkpt lat="47.66831" lon="6.19936">
        <ele>312.8</ele>
        <time>2022-07-04T08:38:17Z</time>
      </trkpt>
      <trkpt lat="47.6684" lon="6.19941">
        <ele>312.4</ele>
        <time>2022-07-04T08:38:19Z</time>
      </trkpt>
      <trkpt lat="47.66845" lon="6.19943">
        <ele>312.1</ele>
        <time>2022-07-04T08:38:20Z</time>
      </trkpt>
      <trkpt lat="47.66852" lon="6.19946">
        <ele>311.8</ele>
        <time>2022-07-04T08:38:22Z</time>
      </trkpt>
      <trkpt lat="47.6686" lon="6.19951">
        <ele>311.6</ele>
        <time>2022-07-04T08:38:24Z</time>
      </trkpt>
      <trkpt lat="47.66866" lon="6.19955">
        <ele>311.3</ele>
        <time>2022-07-04T08:38:25Z</time>
      </trkpt>
      <trkpt lat="47.66871" lon="6.19958">
        <ele>311</ele>
        <time>2022-07-04T08:38:26Z</time>
      </trkpt>
      <trkpt lat="47.66877" lon="6.19972">
        <ele>311.3</ele>
        <time>2022-07-04T08:38:28Z</time>
      </trkpt>
      <trkpt lat="47.66882" lon="6.19972">
        <ele>310.7</ele>
        <time>2022-07-04T08:38:34Z</time>
      </trkpt>
      <trkpt lat="47.66887" lon="6.19973">
        <ele>310.3</ele>
        <time>2022-07-04T08:38:35Z</time>
      </trkpt>
      <trkpt lat="47.66892" lon="6.19975">
        <ele>309.9</ele>
        <time>2022-07-04T08:38:36Z</time>
      </trkpt>
      <trkpt lat="47.66897" lon="6.19978">
        <ele>309.6</ele>
        <time>2022-07-04T08:38:38Z</time>
      </trkpt>
      <trkpt lat="47.66922" lon="6.20002">
        <ele>308.8</ele>
        <time>2022-07-04T08:38:39Z</time>
      </trkpt>
      <trkpt lat="47.66926" lon="6.20006">
        <ele>308.8</ele>
        <time>2022-07-04T08:38:40Z</time>
      </trkpt>
      <trkpt lat="47.66931" lon="6.2001">
        <ele>308.7</ele>
        <time>2022-07-04T08:38:41Z</time>
      </trkpt>
      <trkpt lat="47.66935" lon="6.20015">
        <ele>308.7</ele>
        <time>2022-07-04T08:38:42Z</time>
      </trkpt>
      <trkpt lat="47.66939" lon="6.20019">
        <ele>308.7</ele>
        <time>2022-07-04T08:38:43Z</time>
      </trkpt>
      <trkpt lat="47.66944" lon="6.20023">
        <ele>308.7</ele>
        <time>2022-07-04T08:38:44Z</time>
      </trkpt>
      <trkpt lat="47.66948" lon="6.20026">
        <ele>308.6</ele>
        <time>2022-07-04T08:38:45Z</time>
      </trkpt>
      <trkpt lat="47.66955" lon="6.20034">
        <ele>308.5</ele>
        <time>2022-07-04T08:38:48Z</time>
      </trkpt>
      <trkpt lat="47.66959" lon="6.20037">
        <ele>308.5</ele>
        <time>2022-07-04T08:38:49Z</time>
      </trkpt>
      <trkpt lat="47.66965" lon="6.20044">
        <ele>308.5</ele>
        <time>2022-07-04T08:38:55Z</time>
      </trkpt>
      <trkpt lat="47.66969" lon="6.20047">
        <ele>308.6</ele>
        <time>2022-07-04T08:38:56Z</time>
      </trkpt>
      <trkpt lat="47.66979" lon="6.20056">
        <ele>308.5</ele>
        <time>2022-07-04T08:38:59Z</time>
      </trkpt>
      <trkpt lat="47.66984" lon="6.20059">
        <ele>308.3</ele>
        <time>2022-07-04T08:39:00Z</time>
      </trkpt>
      <trkpt lat="47.67001" lon="6.20076">
        <ele>307.7</ele>
        <time>2022-07-04T08:39:04Z</time>
      </trkpt>
      <trkpt lat="47.67004" lon="6.2008">
        <ele>307.6</ele>
        <time>2022-07-04T08:39:05Z</time>
      </trkpt>
      <trkpt lat="47.67013" lon="6.2009">
        <ele>307.3</ele>
        <time>2022-07-04T08:39:07Z</time>
      </trkpt>
      <trkpt lat="47.67017" lon="6.20095">
        <ele>307.2</ele>
        <time>2022-07-04T08:39:08Z</time>
      </trkpt>
      <trkpt lat="47.67022" lon="6.20101">
        <ele>307.1</ele>
        <time>2022-07-04T08:39:10Z</time>
      </trkpt>
      <trkpt lat="47.67026" lon="6.20107">
        <ele>307</ele>
        <time>2022-07-04T08:39:11Z</time>
      </trkpt>
      <trkpt lat="47.67031" lon="6.20113">
        <ele>306.8</ele>
        <time>2022-07-04T08:39:12Z</time>
      </trkpt>
      <trkpt lat="47.67052" lon="6.20143">
        <ele>306.1</ele>
        <time>2022-07-04T08:39:13Z</time>
      </trkpt>
      <trkpt lat="47.67055" lon="6.20149">
        <ele>306</ele>
        <time>2022-07-04T08:39:14Z</time>
      </trkpt>
      <trkpt lat="47.6706" lon="6.20158">
        <ele>306</ele>
        <time>2022-07-04T08:39:16Z</time>
      </trkpt>
      <trkpt lat="47.67064" lon="6.20168">
        <ele>306</ele>
        <time>2022-07-04T08:39:18Z</time>
      </trkpt>
      <trkpt lat="47.67071" lon="6.20176">
        <ele>306</ele>
        <time>2022-07-04T08:39:20Z</time>
      </trkpt>
      <trkpt lat="47.67075" lon="6.20179">
        <ele>306</ele>
        <time>2022-07-04T08:39:26Z</time>
      </trkpt>
      <trkpt lat="47.67084" lon="6.20191">
        <ele>306</ele>
        <time>2022-07-04T08:39:29Z</time>
      </trkpt>
      <trkpt lat="47.67089" lon="6.20195">
        <ele>306</ele>
        <time>2022-07-04T08:39:31Z</time>
      </trkpt>
      <trkpt lat="47.67095" lon="6.20199">
        <ele>306</ele>
        <time>2022-07-04T08:39:33Z</time>
      </trkpt>
      <trkpt lat="47.67099" lon="6.20204">
        <ele>306</ele>
        <time>2022-07-04T08:39:35Z</time>
      </trkpt>
      <trkpt lat="47.67104" lon="6.20209">
        <ele>306</ele>
        <time>2022-07-04T08:39:37Z</time>
      </trkpt>
      <trkpt lat="47.67109" lon="6.20214">
        <ele>306</ele>
        <time>2022-07-04T08:39:39Z</time>
      </trkpt>
      <trkpt lat="47.67114" lon="6.20217">
        <ele>306</ele>
        <time>2022-07-04T08:39:41Z</time>
      </trkpt>
      <trkpt lat="47.67128" lon="6.20231">
        <ele>306</ele>
        <time>2022-07-04T08:39:46Z</time>
      </trkpt>
      <trkpt lat="47.67133" lon="6.20235">
        <ele>306</ele>
        <time>2022-07-04T08:39:47Z</time>
      </trkpt>
      <trkpt lat="47.67137" lon="6.20239">
        <ele>306</ele>
        <time>2022-07-04T08:39:49Z</time>
      </trkpt>
      <trkpt lat="47.67142" lon="6.20245">
        <ele>305.9</ele>
        <time>2022-07-04T08:39:51Z</time>
      </trkpt>
      <trkpt lat="47.67147" lon="6.20249">
        <ele>305.7</ele>
        <time>2022-07-04T08:39:53Z</time>
      </trkpt>
      <trkpt lat="47.67152" lon="6.20253">
        <ele>305.6</ele>
        <time>2022-07-04T08:39:54Z</time>
      </trkpt>
      <trkpt lat="47.67156" lon="6.20258">
        <ele>305.6</ele>
        <time>2022-07-04T08:39:56Z</time>
      </trkpt>
      <trkpt lat="47.67165" lon="6.20268">
        <ele>305.7</ele>
        <time>2022-07-04T08:40:00Z</time>
      </trkpt>
      <trkpt lat="47.6717" lon="6.20272">
        <ele>305.7</ele>
        <time>2022-07-04T08:40:02Z</time>
      </trkpt>
      <trkpt lat="47.67175" lon="6.20277">
        <ele>305.7</ele>
        <time>2022-07-04T08:40:04Z</time>
      </trkpt>
      <trkpt lat="47.67181" lon="6.20284">
        <ele>305.5</ele>
        <time>2022-07-04T08:40:06Z</time>
      </trkpt>
      <trkpt lat="47.67196" lon="6.203">
        <ele>305</ele>
        <time>2022-07-04T08:40:12Z</time>
      </trkpt>
      <trkpt lat="47.67202" lon="6.20305">
        <ele>305</ele>
        <time>2022-07-04T08:40:14Z</time>
      </trkpt>
      <trkpt lat="47.67207" lon="6.20311">
        <ele>305</ele>
        <time>2022-07-04T08:40:16Z</time>
      </trkpt>
      <trkpt lat="47.67211" lon="6.20314">
        <ele>305</ele>
        <time>2022-07-04T08:40:17Z</time>
      </trkpt>
      <trkpt lat="47.67217" lon="6.20316">
        <ele>305</ele>
        <time>2022-07-04T08:40:19Z</time>
      </trkpt>
      <trkpt lat="47.67222" lon="6.20314">
        <ele>305</ele>
        <time>2022-07-04T08:40:20Z</time>
      </trkpt>
      <trkpt lat="47.67225" lon="6.20309">
        <ele>305</ele>
        <time>2022-07-04T08:40:22Z</time>
      </trkpt>
      <trkpt lat="47.67231" lon="6.20302">
        <ele>305</ele>
        <time>2022-07-04T08:40:24Z</time>
      </trkpt>
      <trkpt lat="47.67234" lon="6.20297">
        <ele>305</ele>
        <time>2022-07-04T08:40:25Z</time>
      </trkpt>
      <trkpt lat="47.67238" lon="6.20293">
        <ele>305</ele>
        <time>2022-07-04T08:40:27Z</time>
      </trkpt>
      <trkpt lat="47.67242" lon="6.20289">
        <ele>305</ele>
        <time>2022-07-04T08:40:29Z</time>
      </trkpt>
      <trkpt lat="47.67247" lon="6.20285">
        <ele>305</ele>
        <time>2022-07-04T08:40:30Z</time>
      </trkpt>
      <trkpt lat="47.67257" lon="6.20278">
        <ele>305</ele>
        <time>2022-07-04T08:40:34Z</time>
      </trkpt>
      <trkpt lat="47.67262" lon="6.20275">
        <ele>305</ele>
        <time>2022-07-04T08:40:36Z</time>
      </trkpt>
      <trkpt lat="47.67267" lon="6.20271">
        <ele>305</ele>
        <time>2022-07-04T08:40:38Z</time>
      </trkpt>
      <trkpt lat="47.67273" lon="6.20268">
        <ele>305</ele>
        <time>2022-07-04T08:40:40Z</time>
      </trkpt>
      <trkpt lat="47.67278" lon="6.20265">
        <ele>305</ele>
        <time>2022-07-04T08:40:42Z</time>
      </trkpt>
      <trkpt lat="47.67284" lon="6.2026">
        <ele>305</ele>
        <time>2022-07-04T08:40:44Z</time>
      </trkpt>
      <trkpt lat="47.67289" lon="6.20256">
        <ele>305</ele>
        <time>2022-07-04T08:40:46Z</time>
      </trkpt>
      <trkpt lat="47.67294" lon="6.20252">
        <ele>305</ele>
        <time>2022-07-04T08:40:48Z</time>
      </trkpt>
      <trkpt lat="47.67299" lon="6.20246">
        <ele>305</ele>
        <time>2022-07-04T08:40:50Z</time>
      </trkpt>
      <trkpt lat="47.67302" lon="6.20241">
        <ele>305</ele>
        <time>2022-07-04T08:40:51Z</time>
      </trkpt>
      <trkpt lat="47.6731" lon="6.20232">
        <ele>305.2</ele>
        <time>2022-07-04T08:40:55Z</time>
      </trkpt>
      <trkpt lat="47.67318" lon="6.20221">
        <ele>305.4</ele>
        <time>2022-07-04T08:40:58Z</time>
      </trkpt>
      <trkpt lat="47.67328" lon="6.20212">
        <ele>305.7</ele>
        <time>2022-07-04T08:41:02Z</time>
      </trkpt>
      <trkpt lat="47.67332" lon="6.20208">
        <ele>305.9</ele>
        <time>2022-07-04T08:41:04Z</time>
      </trkpt>
      <trkpt lat="47.67337" lon="6.20204">
        <ele>306</ele>
        <time>2022-07-04T08:41:07Z</time>
      </trkpt>
      <trkpt lat="47.67347" lon="6.20198">
        <ele>306</ele>
        <time>2022-07-04T08:41:11Z</time>
      </trkpt>
      <trkpt lat="47.67353" lon="6.20196">
        <ele>306</ele>
        <time>2022-07-04T08:41:13Z</time>
      </trkpt>
      <trkpt lat="47.67358" lon="6.20194">
        <ele>306</ele>
        <time>2022-07-04T08:41:15Z</time>
      </trkpt>
      <trkpt lat="47.67373" lon="6.20186">
        <ele>306.3</ele>
        <time>2022-07-04T08:41:21Z</time>
      </trkpt>
      <trkpt lat="47.67386" lon="6.20177">
        <ele>306.3</ele>
        <time>2022-07-04T08:41:22Z</time>
      </trkpt>
      <trkpt lat="47.67393" lon="6.20174">
        <ele>306.4</ele>
        <time>2022-07-04T08:41:30Z</time>
      </trkpt>
      <trkpt lat="47.67397" lon="6.20172">
        <ele>306.4</ele>
        <time>2022-07-04T08:41:32Z</time>
      </trkpt>
      <trkpt lat="47.67402" lon="6.20168">
        <ele>306.5</ele>
        <time>2022-07-04T08:41:34Z</time>
      </trkpt>
      <trkpt lat="47.67407" lon="6.20165">
        <ele>306.6</ele>
        <time>2022-07-04T08:41:36Z</time>
      </trkpt>
      <trkpt lat="47.67411" lon="6.20162">
        <ele>306.8</ele>
        <time>2022-07-04T08:41:38Z</time>
      </trkpt>
      <trkpt lat="47.67417" lon="6.2016">
        <ele>307</ele>
        <time>2022-07-04T08:41:40Z</time>
      </trkpt>
      <trkpt lat="47.67422" lon="6.20159">
        <ele>307</ele>
        <time>2022-07-04T08:41:42Z</time>
      </trkpt>
      <trkpt lat="47.67429" lon="6.20156">
        <ele>307</ele>
        <time>2022-07-04T08:41:45Z</time>
      </trkpt>
      <trkpt lat="47.67433" lon="6.20153">
        <ele>307</ele>
        <time>2022-07-04T08:41:47Z</time>
      </trkpt>
      <trkpt lat="47.67439" lon="6.20152">
        <ele>307</ele>
        <time>2022-07-04T08:41:51Z</time>
      </trkpt>
      <trkpt lat="47.67443" lon="6.20156">
        <ele>307</ele>
        <time>2022-07-04T08:41:55Z</time>
      </trkpt>
      <trkpt lat="47.67455" lon="6.20156">
        <ele>307.5</ele>
        <time>2022-07-04T08:42:01Z</time>
      </trkpt>
      <trkpt lat="47.6746" lon="6.20158">
        <ele>307.7</ele>
        <time>2022-07-04T08:42:03Z</time>
      </trkpt>
      <trkpt lat="47.67465" lon="6.2016">
        <ele>307.9</ele>
        <time>2022-07-04T08:42:06Z</time>
      </trkpt>
      <trkpt lat="47.6747" lon="6.20159">
        <ele>308.2</ele>
        <time>2022-07-04T08:42:08Z</time>
      </trkpt>
      <trkpt lat="47.67475" lon="6.2016">
        <ele>308.4</ele>
        <time>2022-07-04T08:42:10Z</time>
      </trkpt>
      <trkpt lat="47.67481" lon="6.20161">
        <ele>308.6</ele>
        <time>2022-07-04T08:42:12Z</time>
      </trkpt>
      <trkpt lat="47.67488" lon="6.20163">
        <ele>308.8</ele>
        <time>2022-07-04T08:42:14Z</time>
      </trkpt>
      <trkpt lat="47.67493" lon="6.20165">
        <ele>308.9</ele>
        <time>2022-07-04T08:42:16Z</time>
      </trkpt>
      <trkpt lat="47.67498" lon="6.20166">
        <ele>309</ele>
        <time>2022-07-04T08:42:18Z</time>
      </trkpt>
      <trkpt lat="47.67503" lon="6.20167">
        <ele>309</ele>
        <time>2022-07-04T08:42:20Z</time>
      </trkpt>
      <trkpt lat="47.67509" lon="6.20169">
        <ele>309.1</ele>
        <time>2022-07-04T08:42:22Z</time>
      </trkpt>
      <trkpt lat="47.6752" lon="6.20171">
        <ele>309.2</ele>
        <time>2022-07-04T08:42:26Z</time>
      </trkpt>
      <trkpt lat="47.67531" lon="6.20172">
        <ele>309.7</ele>
        <time>2022-07-04T08:42:33Z</time>
      </trkpt>
      <trkpt lat="47.67542" lon="6.2017">
        <ele>310.7</ele>
        <time>2022-07-04T08:42:37Z</time>
      </trkpt>
      <trkpt lat="47.67548" lon="6.20168">
        <ele>311.3</ele>
        <time>2022-07-04T08:42:40Z</time>
      </trkpt>
      <trkpt lat="47.67561" lon="6.20169">
        <ele>312.1</ele>
        <time>2022-07-04T08:42:45Z</time>
      </trkpt>
      <trkpt lat="47.67566" lon="6.20171">
        <ele>312.3</ele>
        <time>2022-07-04T08:42:48Z</time>
      </trkpt>
      <trkpt lat="47.67575" lon="6.20175">
        <ele>312.6</ele>
        <time>2022-07-04T08:42:53Z</time>
      </trkpt>
      <trkpt lat="47.67581" lon="6.20177">
        <ele>312.8</ele>
        <time>2022-07-04T08:42:56Z</time>
      </trkpt>
      <trkpt lat="47.67585" lon="6.20177">
        <ele>313</ele>
        <time>2022-07-04T08:42:58Z</time>
      </trkpt>
      <trkpt lat="47.67592" lon="6.20178">
        <ele>313.4</ele>
        <time>2022-07-04T08:43:00Z</time>
      </trkpt>
      <trkpt lat="47.67598" lon="6.2018">
        <ele>313.6</ele>
        <time>2022-07-04T08:43:02Z</time>
      </trkpt>
      <trkpt lat="47.67604" lon="6.20183">
        <ele>313.8</ele>
        <time>2022-07-04T08:43:03Z</time>
      </trkpt>
      <trkpt lat="47.67619" lon="6.20192">
        <ele>313.9</ele>
        <time>2022-07-04T08:43:04Z</time>
      </trkpt>
      <trkpt lat="47.67625" lon="6.20195">
        <ele>313.9</ele>
        <time>2022-07-04T08:43:11Z</time>
      </trkpt>
      <trkpt lat="47.67641" lon="6.20204">
        <ele>314.5</ele>
        <time>2022-07-04T08:43:16Z</time>
      </trkpt>
      <trkpt lat="47.67651" lon="6.20207">
        <ele>314.9</ele>
        <time>2022-07-04T08:43:20Z</time>
      </trkpt>
      <trkpt lat="47.67656" lon="6.20209">
        <ele>315.2</ele>
        <time>2022-07-04T08:43:22Z</time>
      </trkpt>
      <trkpt lat="47.67667" lon="6.20213">
        <ele>315.7</ele>
        <time>2022-07-04T08:43:27Z</time>
      </trkpt>
      <trkpt lat="47.67678" lon="6.20215">
        <ele>316.4</ele>
        <time>2022-07-04T08:43:33Z</time>
      </trkpt>
      <trkpt lat="47.67683" lon="6.20218">
        <ele>316.5</ele>
        <time>2022-07-04T08:43:35Z</time>
      </trkpt>
      <trkpt lat="47.67688" lon="6.20219">
        <ele>316.7</ele>
        <time>2022-07-04T08:43:39Z</time>
      </trkpt>
      <trkpt lat="47.67692" lon="6.20222">
        <ele>316.9</ele>
        <time>2022-07-04T08:43:42Z</time>
      </trkpt>
      <trkpt lat="47.67702" lon="6.20229">
        <ele>317.2</ele>
        <time>2022-07-04T08:43:47Z</time>
      </trkpt>
      <trkpt lat="47.67707" lon="6.20232">
        <ele>317.4</ele>
        <time>2022-07-04T08:43:50Z</time>
      </trkpt>
      <trkpt lat="47.67711" lon="6.20236">
        <ele>317.4</ele>
        <time>2022-07-04T08:43:53Z</time>
      </trkpt>
      <trkpt lat="47.67717" lon="6.20241">
        <ele>317.4</ele>
        <time>2022-07-04T08:43:56Z</time>
      </trkpt>
      <trkpt lat="47.67727" lon="6.20244">
        <ele>317.7</ele>
        <time>2022-07-04T08:44:01Z</time>
      </trkpt>
      <trkpt lat="47.67738" lon="6.20244">
        <ele>318.4</ele>
        <time>2022-07-04T08:44:07Z</time>
      </trkpt>
      <trkpt lat="47.67742" lon="6.20243">
        <ele>318.8</ele>
        <time>2022-07-04T08:44:10Z</time>
      </trkpt>
      <trkpt lat="47.67748" lon="6.20242">
        <ele>319.1</ele>
        <time>2022-07-04T08:44:14Z</time>
      </trkpt>
      <trkpt lat="47.67752" lon="6.20241">
        <ele>319.5</ele>
        <time>2022-07-04T08:44:17Z</time>
      </trkpt>
      <trkpt lat="47.67757" lon="6.20239">
        <ele>319.9</ele>
        <time>2022-07-04T08:44:20Z</time>
      </trkpt>
      <trkpt lat="47.67761" lon="6.20237">
        <ele>320.2</ele>
        <time>2022-07-04T08:44:23Z</time>
      </trkpt>
      <trkpt lat="47.67766" lon="6.20234">
        <ele>320.7</ele>
        <time>2022-07-04T08:44:27Z</time>
      </trkpt>
      <trkpt lat="47.67771" lon="6.20234">
        <ele>321.1</ele>
        <time>2022-07-04T08:44:31Z</time>
      </trkpt>
      <trkpt lat="47.67776" lon="6.20232">
        <ele>321.5</ele>
        <time>2022-07-04T08:44:35Z</time>
      </trkpt>
      <trkpt lat="47.67785" lon="6.2023">
        <ele>322</ele>
        <time>2022-07-04T08:44:38Z</time>
      </trkpt>
      <trkpt lat="47.6779" lon="6.2023">
        <ele>322.2</ele>
        <time>2022-07-04T08:44:42Z</time>
      </trkpt>
      <trkpt lat="47.67795" lon="6.20228">
        <ele>322.4</ele>
        <time>2022-07-04T08:44:51Z</time>
      </trkpt>
      <trkpt lat="47.678" lon="6.20227">
        <ele>322.6</ele>
        <time>2022-07-04T08:44:55Z</time>
      </trkpt>
      <trkpt lat="47.67806" lon="6.20223">
        <ele>323</ele>
        <time>2022-07-04T08:44:59Z</time>
      </trkpt>
      <trkpt lat="47.67809" lon="6.20219">
        <ele>323.2</ele>
        <time>2022-07-04T08:45:02Z</time>
      </trkpt>
      <trkpt lat="47.67813" lon="6.20213">
        <ele>323.5</ele>
        <time>2022-07-04T08:45:07Z</time>
      </trkpt>
      <trkpt lat="47.67815" lon="6.20208">
        <ele>323.7</ele>
        <time>2022-07-04T08:45:12Z</time>
      </trkpt>
      <trkpt lat="47.67818" lon="6.20202">
        <ele>323.8</ele>
        <time>2022-07-04T08:45:17Z</time>
      </trkpt>
      <trkpt lat="47.67821" lon="6.20197">
        <ele>324</ele>
        <time>2022-07-04T08:45:20Z</time>
      </trkpt>
      <trkpt lat="47.67826" lon="6.20195">
        <ele>324</ele>
        <time>2022-07-04T08:45:23Z</time>
      </trkpt>
      <trkpt lat="47.67831" lon="6.20193">
        <ele>324</ele>
        <time>2022-07-04T08:45:25Z</time>
      </trkpt>
      <trkpt lat="47.67836" lon="6.20194">
        <ele>324.2</ele>
        <time>2022-07-04T08:45:27Z</time>
      </trkpt>
      <trkpt lat="47.67841" lon="6.20194">
        <ele>324.5</ele>
        <time>2022-07-04T08:45:29Z</time>
      </trkpt>
      <trkpt lat="47.67857" lon="6.20196">
        <ele>325.7</ele>
        <time>2022-07-04T08:45:36Z</time>
      </trkpt>
      <trkpt lat="47.67862" lon="6.202">
        <ele>326</ele>
        <time>2022-07-04T08:45:39Z</time>
      </trkpt>
      <trkpt lat="47.67867" lon="6.20204">
        <ele>326.3</ele>
        <time>2022-07-04T08:45:43Z</time>
      </trkpt>
      <trkpt lat="47.67871" lon="6.20209">
        <ele>326.6</ele>
        <time>2022-07-04T08:45:47Z</time>
      </trkpt>
      <trkpt lat="47.67876" lon="6.20213">
        <ele>326.9</ele>
        <time>2022-07-04T08:45:50Z</time>
      </trkpt>
      <trkpt lat="47.67885" lon="6.20219">
        <ele>327.6</ele>
        <time>2022-07-04T08:45:52Z</time>
      </trkpt>
      <trkpt lat="47.6789" lon="6.20223">
        <ele>328</ele>
        <time>2022-07-04T08:46:01Z</time>
      </trkpt>
      <trkpt lat="47.67894" lon="6.20227">
        <ele>328.2</ele>
        <time>2022-07-04T08:46:05Z</time>
      </trkpt>
      <trkpt lat="47.67898" lon="6.20231">
        <ele>328.5</ele>
        <time>2022-07-04T08:46:09Z</time>
      </trkpt>
      <trkpt lat="47.67907" lon="6.20239">
        <ele>329.1</ele>
        <time>2022-07-04T08:46:16Z</time>
      </trkpt>
      <trkpt lat="47.67911" lon="6.20243">
        <ele>329.4</ele>
        <time>2022-07-04T08:46:20Z</time>
      </trkpt>
      <trkpt lat="47.6792" lon="6.20251">
        <ele>330.2</ele>
        <time>2022-07-04T08:46:29Z</time>
      </trkpt>
      <trkpt lat="47.67924" lon="6.20253">
        <ele>330.5</ele>
        <time>2022-07-04T08:46:32Z</time>
      </trkpt>
      <trkpt lat="47.67928" lon="6.20257">
        <ele>330.8</ele>
        <time>2022-07-04T08:46:35Z</time>
      </trkpt>
      <trkpt lat="47.67932" lon="6.20261">
        <ele>331.1</ele>
        <time>2022-07-04T08:46:39Z</time>
      </trkpt>
      <trkpt lat="47.67936" lon="6.20264">
        <ele>331.4</ele>
        <time>2022-07-04T08:46:42Z</time>
      </trkpt>
      <trkpt lat="47.6794" lon="6.20268">
        <ele>331.7</ele>
        <time>2022-07-04T08:46:46Z</time>
      </trkpt>
      <trkpt lat="47.67944" lon="6.20272">
        <ele>332</ele>
        <time>2022-07-04T08:46:49Z</time>
      </trkpt>
      <trkpt lat="47.67952" lon="6.20281">
        <ele>332.3</ele>
        <time>2022-07-04T08:46:58Z</time>
      </trkpt>
      <trkpt lat="47.6796" lon="6.2029">
        <ele>332.6</ele>
        <time>2022-07-04T08:47:07Z</time>
      </trkpt>
      <trkpt lat="47.67969" lon="6.20299">
        <ele>332.9</ele>
        <time>2022-07-04T08:47:16Z</time>
      </trkpt>
      <trkpt lat="47.67974" lon="6.20302">
        <ele>333.1</ele>
        <time>2022-07-04T08:47:21Z</time>
      </trkpt>
      <trkpt lat="47.67979" lon="6.20304">
        <ele>333.2</ele>
        <time>2022-07-04T08:47:25Z</time>
      </trkpt>
      <trkpt lat="47.67984" lon="6.20306">
        <ele>333.4</ele>
        <time>2022-07-04T08:47:28Z</time>
      </trkpt>
      <trkpt lat="47.67996" lon="6.20308">
        <ele>333.8</ele>
        <time>2022-07-04T08:47:28Z</time>
      </trkpt>
      <trkpt lat="47.68" lon="6.2031">
        <ele>334</ele>
        <time>2022-07-04T08:47:35Z</time>
      </trkpt>
      <trkpt lat="47.68011" lon="6.20314">
        <ele>333.7</ele>
        <time>2022-07-04T08:47:40Z</time>
      </trkpt>
      <trkpt lat="47.68016" lon="6.20316">
        <ele>333.6</ele>
        <time>2022-07-04T08:47:42Z</time>
      </trkpt>
      <trkpt lat="47.68021" lon="6.20318">
        <ele>333.6</ele>
        <time>2022-07-04T08:47:44Z</time>
      </trkpt>
      <trkpt lat="47.68026" lon="6.20321">
        <ele>333.6</ele>
        <time>2022-07-04T08:47:47Z</time>
      </trkpt>
      <trkpt lat="47.68031" lon="6.20322">
        <ele>333.5</ele>
        <time>2022-07-04T08:47:49Z</time>
      </trkpt>
      <trkpt lat="47.68041" lon="6.20326">
        <ele>333.3</ele>
        <time>2022-07-04T08:47:54Z</time>
      </trkpt>
      <trkpt lat="47.68047" lon="6.20327">
        <ele>333.1</ele>
        <time>2022-07-04T08:47:56Z</time>
      </trkpt>
      <trkpt lat="47.68052" lon="6.20328">
        <ele>332.9</ele>
        <time>2022-07-04T08:47:59Z</time>
      </trkpt>
      <trkpt lat="47.68057" lon="6.20327">
        <ele>332.8</ele>
        <time>2022-07-04T08:48:13Z</time>
      </trkpt>
      <trkpt lat="47.68063" lon="6.20329">
        <ele>332.8</ele>
        <time>2022-07-04T08:48:18Z</time>
      </trkpt>
      <trkpt lat="47.6806" lon="6.20335">
        <ele>333</ele>
        <time>2022-07-04T08:48:57Z</time>
      </trkpt>
      <trkpt lat="47.68058" lon="6.20341">
        <ele>333.3</ele>
        <time>2022-07-04T08:48:59Z</time>
      </trkpt>
      <trkpt lat="47.68056" lon="6.20348">
        <ele>333.5</ele>
        <time>2022-07-04T08:49:01Z</time>
      </trkpt>
      <trkpt lat="47.68053" lon="6.2036">
        <ele>334</ele>
        <time>2022-07-04T08:49:07Z</time>
      </trkpt>
      <trkpt lat="47.68051" lon="6.20367">
        <ele>334.2</ele>
        <time>2022-07-04T08:49:10Z</time>
      </trkpt>
      <trkpt lat="47.6805" lon="6.20375">
        <ele>334.5</ele>
        <time>2022-07-04T08:49:13Z</time>
      </trkpt>
      <trkpt lat="47.68048" lon="6.20382">
        <ele>334.7</ele>
        <time>2022-07-04T08:49:17Z</time>
      </trkpt>
      <trkpt lat="47.68046" lon="6.20395">
        <ele>335.4</ele>
        <time>2022-07-04T08:49:23Z</time>
      </trkpt>
      <trkpt lat="47.68045" lon="6.20403">
        <ele>335.8</ele>
        <time>2022-07-04T08:49:26Z</time>
      </trkpt>
      <trkpt lat="47.68043" lon="6.2041">
        <ele>336.2</ele>
        <time>2022-07-04T08:49:30Z</time>
      </trkpt>
      <trkpt lat="47.68041" lon="6.20417">
        <ele>336.5</ele>
        <time>2022-07-04T08:49:34Z</time>
      </trkpt>
      <trkpt lat="47.68038" lon="6.2043">
        <ele>337.1</ele>
        <time>2022-07-04T08:49:41Z</time>
      </trkpt>
      <trkpt lat="47.68037" lon="6.20437">
        <ele>337.6</ele>
        <time>2022-07-04T08:49:45Z</time>
      </trkpt>
      <trkpt lat="47.68037" lon="6.20444">
        <ele>338</ele>
        <time>2022-07-04T08:49:48Z</time>
      </trkpt>
      <trkpt lat="47.68036" lon="6.20451">
        <ele>338.2</ele>
        <time>2022-07-04T08:49:51Z</time>
      </trkpt>
      <trkpt lat="47.68034" lon="6.20457">
        <ele>338.5</ele>
        <time>2022-07-04T08:49:56Z</time>
      </trkpt>
      <trkpt lat="47.68032" lon="6.20464">
        <ele>338.7</ele>
        <time>2022-07-04T08:50:00Z</time>
      </trkpt>
      <trkpt lat="47.6803" lon="6.20472">
        <ele>339</ele>
        <time>2022-07-04T08:50:04Z</time>
      </trkpt>
      <trkpt lat="47.68029" lon="6.20479">
        <ele>339</ele>
        <time>2022-07-04T08:50:08Z</time>
      </trkpt>
      <trkpt lat="47.68028" lon="6.20485">
        <ele>339</ele>
        <time>2022-07-04T08:50:12Z</time>
      </trkpt>
      <trkpt lat="47.68027" lon="6.20492">
        <ele>339</ele>
        <time>2022-07-04T08:50:16Z</time>
      </trkpt>
      <trkpt lat="47.68025" lon="6.20499">
        <ele>338.9</ele>
        <time>2022-07-04T08:50:20Z</time>
      </trkpt>
      <trkpt lat="47.68023" lon="6.20513">
        <ele>339.3</ele>
        <time>2022-07-04T08:50:26Z</time>
      </trkpt>
      <trkpt lat="47.6802" lon="6.20519">
        <ele>339.4</ele>
        <time>2022-07-04T08:50:29Z</time>
      </trkpt>
      <trkpt lat="47.68015" lon="6.20522">
        <ele>339.4</ele>
        <time>2022-07-04T08:50:33Z</time>
      </trkpt>
      <trkpt lat="47.6801" lon="6.20524">
        <ele>339.2</ele>
        <time>2022-07-04T08:50:36Z</time>
      </trkpt>
      <trkpt lat="47.68005" lon="6.20524">
        <ele>339</ele>
        <time>2022-07-04T08:50:40Z</time>
      </trkpt>
      <trkpt lat="47.67994" lon="6.20522">
        <ele>338.4</ele>
        <time>2022-07-04T08:50:47Z</time>
      </trkpt>
      <trkpt lat="47.67988" lon="6.20522">
        <ele>338</ele>
        <time>2022-07-04T08:50:50Z</time>
      </trkpt>
      <trkpt lat="47.67977" lon="6.2052">
        <ele>337.3</ele>
        <time>2022-07-04T08:50:55Z</time>
      </trkpt>
      <trkpt lat="47.67972" lon="6.20518">
        <ele>337</ele>
        <time>2022-07-04T08:50:58Z</time>
      </trkpt>
      <trkpt lat="47.67966" lon="6.20516">
        <ele>336.6</ele>
        <time>2022-07-04T08:51:00Z</time>
      </trkpt>
      <trkpt lat="47.67961" lon="6.20514">
        <ele>336.2</ele>
        <time>2022-07-04T08:51:02Z</time>
      </trkpt>
      <trkpt lat="47.67956" lon="6.20513">
        <ele>335.9</ele>
        <time>2022-07-04T08:51:04Z</time>
      </trkpt>
      <trkpt lat="47.67951" lon="6.20511">
        <ele>335.5</ele>
        <time>2022-07-04T08:51:06Z</time>
      </trkpt>
      <trkpt lat="47.67946" lon="6.20507">
        <ele>335.1</ele>
        <time>2022-07-04T08:51:09Z</time>
      </trkpt>
      <trkpt lat="47.67937" lon="6.20502">
        <ele>334.4</ele>
        <time>2022-07-04T08:51:14Z</time>
      </trkpt>
      <trkpt lat="47.67927" lon="6.20497">
        <ele>333.7</ele>
        <time>2022-07-04T08:51:20Z</time>
      </trkpt>
      <trkpt lat="47.67923" lon="6.20495">
        <ele>333.3</ele>
        <time>2022-07-04T08:51:23Z</time>
      </trkpt>
      <trkpt lat="47.67915" lon="6.205">
        <ele>332.9</ele>
        <time>2022-07-04T08:51:27Z</time>
      </trkpt>
      <trkpt lat="47.67914" lon="6.20508">
        <ele>333.1</ele>
        <time>2022-07-04T08:51:34Z</time>
      </trkpt>
      <trkpt lat="47.67912" lon="6.20515">
        <ele>333.2</ele>
        <time>2022-07-04T08:52:34Z</time>
      </trkpt>
      <trkpt lat="47.67911" lon="6.20523">
        <ele>333.4</ele>
        <time>2022-07-04T08:52:38Z</time>
      </trkpt>
      <trkpt lat="47.67909" lon="6.20531">
        <ele>333.5</ele>
        <time>2022-07-04T08:52:41Z</time>
      </trkpt>
      <trkpt lat="47.67907" lon="6.20546">
        <ele>333.5</ele>
        <time>2022-07-04T08:52:43Z</time>
      </trkpt>
      <trkpt lat="47.67906" lon="6.20554">
        <ele>333.6</ele>
        <time>2022-07-04T08:52:51Z</time>
      </trkpt>
      <trkpt lat="47.67901" lon="6.20567">
        <ele>333.6</ele>
        <time>2022-07-04T08:53:05Z</time>
      </trkpt>
      <trkpt lat="47.67896" lon="6.20568">
        <ele>333.4</ele>
        <time>2022-07-04T08:53:17Z</time>
      </trkpt>
      <trkpt lat="47.67891" lon="6.20566">
        <ele>333.1</ele>
        <time>2022-07-04T08:53:21Z</time>
      </trkpt>
      <trkpt lat="47.67883" lon="6.20559">
        <ele>332.8</ele>
        <time>2022-07-04T08:53:22Z</time>
      </trkpt>
      <trkpt lat="47.67878" lon="6.20554">
        <ele>332.6</ele>
        <time>2022-07-04T08:53:29Z</time>
      </trkpt>
      <trkpt lat="47.67869" lon="6.20547">
        <ele>332</ele>
        <time>2022-07-04T08:53:35Z</time>
      </trkpt>
      <trkpt lat="47.67863" lon="6.20547">
        <ele>331.8</ele>
        <time>2022-07-04T08:53:39Z</time>
      </trkpt>
      <trkpt lat="47.67853" lon="6.20546">
        <ele>331.6</ele>
        <time>2022-07-04T08:53:44Z</time>
      </trkpt>
      <trkpt lat="47.67848" lon="6.20546">
        <ele>331.7</ele>
        <time>2022-07-04T08:53:47Z</time>
      </trkpt>
      <trkpt lat="47.67843" lon="6.20547">
        <ele>331.7</ele>
        <time>2022-07-04T08:53:50Z</time>
      </trkpt>
      <trkpt lat="47.67837" lon="6.20549">
        <ele>331.8</ele>
        <time>2022-07-04T08:53:53Z</time>
      </trkpt>
      <trkpt lat="47.67832" lon="6.20551">
        <ele>331.9</ele>
        <time>2022-07-04T08:53:56Z</time>
      </trkpt>
      <trkpt lat="47.67827" lon="6.20553">
        <ele>332.1</ele>
        <time>2022-07-04T08:53:58Z</time>
      </trkpt>
      <trkpt lat="47.67822" lon="6.20557">
        <ele>332.4</ele>
        <time>2022-07-04T08:54:00Z</time>
      </trkpt>
      <trkpt lat="47.67815" lon="6.20567">
        <ele>332.7</ele>
        <time>2022-07-04T08:54:06Z</time>
      </trkpt>
      <trkpt lat="47.6781" lon="6.20571">
        <ele>332.8</ele>
        <time>2022-07-04T08:54:09Z</time>
      </trkpt>
      <trkpt lat="47.67805" lon="6.20583">
        <ele>333</ele>
        <time>2022-07-04T08:54:22Z</time>
      </trkpt>
      <trkpt lat="47.678" lon="6.20586">
        <ele>333.4</ele>
        <time>2022-07-04T08:54:33Z</time>
      </trkpt>
      <trkpt lat="47.67795" lon="6.2059">
        <ele>333.8</ele>
        <time>2022-07-04T08:54:41Z</time>
      </trkpt>
      <trkpt lat="47.67791" lon="6.20594">
        <ele>334</ele>
        <time>2022-07-04T08:54:44Z</time>
      </trkpt>
      <trkpt lat="47.67787" lon="6.20599">
        <ele>334.3</ele>
        <time>2022-07-04T08:54:47Z</time>
      </trkpt>
      <trkpt lat="47.67778" lon="6.20607">
        <ele>335</ele>
        <time>2022-07-04T08:54:54Z</time>
      </trkpt>
      <trkpt lat="47.6777" lon="6.20621">
        <ele>335.8</ele>
        <time>2022-07-04T08:54:59Z</time>
      </trkpt>
      <trkpt lat="47.67767" lon="6.20627">
        <ele>336.2</ele>
        <time>2022-07-04T08:55:02Z</time>
      </trkpt>
      <trkpt lat="47.67763" lon="6.20632">
        <ele>336.6</ele>
        <time>2022-07-04T08:55:06Z</time>
      </trkpt>
      <trkpt lat="47.67758" lon="6.20636">
        <ele>337.1</ele>
        <time>2022-07-04T08:55:10Z</time>
      </trkpt>
      <trkpt lat="47.67754" lon="6.2064">
        <ele>337.5</ele>
        <time>2022-07-04T08:55:13Z</time>
      </trkpt>
      <trkpt lat="47.6775" lon="6.20644">
        <ele>337.8</ele>
        <time>2022-07-04T08:55:16Z</time>
      </trkpt>
      <trkpt lat="47.67742" lon="6.20651">
        <ele>338.3</ele>
        <time>2022-07-04T08:55:18Z</time>
      </trkpt>
      <trkpt lat="47.67737" lon="6.20656">
        <ele>338.6</ele>
        <time>2022-07-04T08:55:25Z</time>
      </trkpt>
      <trkpt lat="47.67726" lon="6.20666">
        <ele>339.6</ele>
        <time>2022-07-04T08:55:30Z</time>
      </trkpt>
      <trkpt lat="47.67716" lon="6.20672">
        <ele>339.5</ele>
        <time>2022-07-04T08:55:35Z</time>
      </trkpt>
      <trkpt lat="47.67711" lon="6.20675">
        <ele>339.3</ele>
        <time>2022-07-04T08:55:37Z</time>
      </trkpt>
      <trkpt lat="47.67705" lon="6.20681">
        <ele>338.8</ele>
        <time>2022-07-04T08:55:38Z</time>
      </trkpt>
      <trkpt lat="47.677" lon="6.20684">
        <ele>338.6</ele>
        <time>2022-07-04T08:55:40Z</time>
      </trkpt>
      <trkpt lat="47.67695" lon="6.20687">
        <ele>338.5</ele>
        <time>2022-07-04T08:55:42Z</time>
      </trkpt>
      <trkpt lat="47.67685" lon="6.20693">
        <ele>338.1</ele>
        <time>2022-07-04T08:55:45Z</time>
      </trkpt>
      <trkpt lat="47.67675" lon="6.20701">
        <ele>337.5</ele>
        <time>2022-07-04T08:55:48Z</time>
      </trkpt>
      <trkpt lat="47.67665" lon="6.20705">
        <ele>337.2</ele>
        <time>2022-07-04T08:55:52Z</time>
      </trkpt>
      <trkpt lat="47.67659" lon="6.20707">
        <ele>336.9</ele>
        <time>2022-07-04T08:55:54Z</time>
      </trkpt>
      <trkpt lat="47.67646" lon="6.20712">
        <ele>336.5</ele>
        <time>2022-07-04T08:55:57Z</time>
      </trkpt>
      <trkpt lat="47.6764" lon="6.20714">
        <ele>336.3</ele>
        <time>2022-07-04T08:55:59Z</time>
      </trkpt>
      <trkpt lat="47.67623" lon="6.20721">
        <ele>334.9</ele>
        <time>2022-07-04T08:56:05Z</time>
      </trkpt>
      <trkpt lat="47.67619" lon="6.20723">
        <ele>334.4</ele>
        <time>2022-07-04T08:56:06Z</time>
      </trkpt>
      <trkpt lat="47.67608" lon="6.20729">
        <ele>332.6</ele>
        <time>2022-07-04T08:56:09Z</time>
      </trkpt>
      <trkpt lat="47.67601" lon="6.20733">
        <ele>331.2</ele>
        <time>2022-07-04T08:56:11Z</time>
      </trkpt>
      <trkpt lat="47.67596" lon="6.20739">
        <ele>329.7</ele>
        <time>2022-07-04T08:56:13Z</time>
      </trkpt>
      <trkpt lat="47.67592" lon="6.20744">
        <ele>328.6</ele>
        <time>2022-07-04T08:56:15Z</time>
      </trkpt>
      <trkpt lat="47.67582" lon="6.20749">
        <ele>326.9</ele>
        <time>2022-07-04T08:56:19Z</time>
      </trkpt>
      <trkpt lat="47.67577" lon="6.20752">
        <ele>326.1</ele>
        <time>2022-07-04T08:56:22Z</time>
      </trkpt>
      <trkpt lat="47.67573" lon="6.20755">
        <ele>325.4</ele>
        <time>2022-07-04T08:56:24Z</time>
      </trkpt>
      <trkpt lat="47.67558" lon="6.20767">
        <ele>323</ele>
        <time>2022-07-04T08:56:24Z</time>
      </trkpt>
      <trkpt lat="47.67555" lon="6.20772">
        <ele>322.3</ele>
        <time>2022-07-04T08:56:31Z</time>
      </trkpt>
      <trkpt lat="47.67552" lon="6.20777">
        <ele>321.6</ele>
        <time>2022-07-04T08:56:33Z</time>
      </trkpt>
      <trkpt lat="47.67549" lon="6.20784">
        <ele>320.7</ele>
        <time>2022-07-04T08:56:35Z</time>
      </trkpt>
      <trkpt lat="47.67542" lon="6.20799">
        <ele>318.6</ele>
        <time>2022-07-04T08:56:38Z</time>
      </trkpt>
      <trkpt lat="47.67537" lon="6.20811">
        <ele>317.4</ele>
        <time>2022-07-04T08:56:40Z</time>
      </trkpt>
      <trkpt lat="47.67525" lon="6.20839">
        <ele>315.6</ele>
        <time>2022-07-04T08:56:44Z</time>
      </trkpt>
      <trkpt lat="47.67513" lon="6.20864">
        <ele>313.8</ele>
        <time>2022-07-04T08:56:50Z</time>
      </trkpt>
      <trkpt lat="47.67509" lon="6.20872">
        <ele>313.4</ele>
        <time>2022-07-04T08:56:52Z</time>
      </trkpt>
      <trkpt lat="47.67499" lon="6.20887">
        <ele>312.9</ele>
        <time>2022-07-04T08:56:56Z</time>
      </trkpt>
      <trkpt lat="47.67495" lon="6.20894">
        <ele>312.4</ele>
        <time>2022-07-04T08:56:57Z</time>
      </trkpt>
      <trkpt lat="47.67489" lon="6.20911">
        <ele>311.3</ele>
        <time>2022-07-04T08:57:01Z</time>
      </trkpt>
      <trkpt lat="47.67483" lon="6.20928">
        <ele>310.8</ele>
        <time>2022-07-04T08:57:04Z</time>
      </trkpt>
      <trkpt lat="47.67479" lon="6.2094">
        <ele>310.8</ele>
        <time>2022-07-04T08:57:06Z</time>
      </trkpt>
      <trkpt lat="47.67474" lon="6.20954">
        <ele>310.9</ele>
        <time>2022-07-04T08:57:09Z</time>
      </trkpt>
      <trkpt lat="47.6747" lon="6.20963">
        <ele>311.1</ele>
        <time>2022-07-04T08:57:11Z</time>
      </trkpt>
      <trkpt lat="47.67468" lon="6.2097">
        <ele>311.2</ele>
        <time>2022-07-04T08:57:13Z</time>
      </trkpt>
      <trkpt lat="47.67465" lon="6.20975">
        <ele>311.1</ele>
        <time>2022-07-04T08:57:14Z</time>
      </trkpt>
      <trkpt lat="47.67458" lon="6.20987">
        <ele>310.7</ele>
        <time>2022-07-04T08:57:18Z</time>
      </trkpt>
      <trkpt lat="47.67453" lon="6.20993">
        <ele>310.7</ele>
        <time>2022-07-04T08:57:20Z</time>
      </trkpt>
      <trkpt lat="47.6745" lon="6.20999">
        <ele>310.7</ele>
        <time>2022-07-04T08:57:22Z</time>
      </trkpt>
      <trkpt lat="47.67441" lon="6.2101">
        <ele>310.6</ele>
        <time>2022-07-04T08:57:26Z</time>
      </trkpt>
      <trkpt lat="47.67428" lon="6.21014">
        <ele>310.5</ele>
        <time>2022-07-04T08:57:30Z</time>
      </trkpt>
      <trkpt lat="47.67424" lon="6.21013">
        <ele>310.5</ele>
        <time>2022-07-04T08:57:32Z</time>
      </trkpt>
      <trkpt lat="47.67419" lon="6.21012">
        <ele>310.6</ele>
        <time>2022-07-04T08:57:33Z</time>
      </trkpt>
      <trkpt lat="47.67413" lon="6.21009">
        <ele>310.4</ele>
        <time>2022-07-04T08:57:36Z</time>
      </trkpt>
      <trkpt lat="47.67408" lon="6.21006">
        <ele>310.1</ele>
        <time>2022-07-04T08:57:39Z</time>
      </trkpt>
      <trkpt lat="47.67396" lon="6.21003">
        <ele>309.3</ele>
        <time>2022-07-04T08:57:44Z</time>
      </trkpt>
      <trkpt lat="47.67387" lon="6.20998">
        <ele>308.6</ele>
        <time>2022-07-04T08:57:48Z</time>
      </trkpt>
      <trkpt lat="47.6738" lon="6.20994">
        <ele>307.4</ele>
        <time>2022-07-04T08:57:50Z</time>
      </trkpt>
      <trkpt lat="47.67375" lon="6.20991">
        <ele>306.7</ele>
        <time>2022-07-04T08:57:51Z</time>
      </trkpt>
      <trkpt lat="47.67368" lon="6.20987">
        <ele>305.5</ele>
        <time>2022-07-04T08:57:52Z</time>
      </trkpt>
      <trkpt lat="47.67363" lon="6.20984">
        <ele>304.9</ele>
        <time>2022-07-04T08:57:53Z</time>
      </trkpt>
      <trkpt lat="47.67356" lon="6.2098">
        <ele>303.8</ele>
        <time>2022-07-04T08:57:54Z</time>
      </trkpt>
      <trkpt lat="47.67351" lon="6.20977">
        <ele>303</ele>
        <time>2022-07-04T08:57:55Z</time>
      </trkpt>
      <trkpt lat="47.67343" lon="6.20973">
        <ele>301.7</ele>
        <time>2022-07-04T08:57:56Z</time>
      </trkpt>
      <trkpt lat="47.6731" lon="6.20952">
        <ele>298.3</ele>
        <time>2022-07-04T08:57:56Z</time>
      </trkpt>
      <trkpt lat="47.67303" lon="6.20948">
        <ele>297.7</ele>
        <time>2022-07-04T08:57:57Z</time>
      </trkpt>
      <trkpt lat="47.67297" lon="6.20943">
        <ele>297.2</ele>
        <time>2022-07-04T08:57:58Z</time>
      </trkpt>
      <trkpt lat="47.6729" lon="6.20939">
        <ele>296.8</ele>
        <time>2022-07-04T08:57:59Z</time>
      </trkpt>
      <trkpt lat="47.67283" lon="6.20935">
        <ele>296.6</ele>
        <time>2022-07-04T08:58:00Z</time>
      </trkpt>
      <trkpt lat="47.67277" lon="6.20931">
        <ele>296.4</ele>
        <time>2022-07-04T08:58:01Z</time>
      </trkpt>
      <trkpt lat="47.6727" lon="6.20927">
        <ele>296.5</ele>
        <time>2022-07-04T08:58:02Z</time>
      </trkpt>
      <trkpt lat="47.67264" lon="6.20924">
        <ele>296.6</ele>
        <time>2022-07-04T08:58:03Z</time>
      </trkpt>
      <trkpt lat="47.67258" lon="6.20921">
        <ele>296.7</ele>
        <time>2022-07-04T08:58:04Z</time>
      </trkpt>
      <trkpt lat="47.67253" lon="6.20918">
        <ele>296.9</ele>
        <time>2022-07-04T08:58:05Z</time>
      </trkpt>
      <trkpt lat="47.67248" lon="6.20915">
        <ele>297</ele>
        <time>2022-07-04T08:58:06Z</time>
      </trkpt>
      <trkpt lat="47.67243" lon="6.20912">
        <ele>297.1</ele>
        <time>2022-07-04T08:58:07Z</time>
      </trkpt>
      <trkpt lat="47.67235" lon="6.20907">
        <ele>297.1</ele>
        <time>2022-07-04T08:58:09Z</time>
      </trkpt>
      <trkpt lat="47.67228" lon="6.20903">
        <ele>297.2</ele>
        <time>2022-07-04T08:58:11Z</time>
      </trkpt>
      <trkpt lat="47.67222" lon="6.209">
        <ele>297.2</ele>
        <time>2022-07-04T08:58:13Z</time>
      </trkpt>
      <trkpt lat="47.67216" lon="6.20897">
        <ele>297.4</ele>
        <time>2022-07-04T08:58:15Z</time>
      </trkpt>
      <trkpt lat="47.67211" lon="6.20896">
        <ele>297.5</ele>
        <time>2022-07-04T08:58:24Z</time>
      </trkpt>
      <trkpt lat="47.67206" lon="6.20892">
        <ele>297.8</ele>
        <time>2022-07-04T08:58:25Z</time>
      </trkpt>
      <trkpt lat="47.67196" lon="6.20885">
        <ele>298</ele>
        <time>2022-07-04T08:58:30Z</time>
      </trkpt>
      <trkpt lat="47.67191" lon="6.20881">
        <ele>298</ele>
        <time>2022-07-04T08:58:32Z</time>
      </trkpt>
      <trkpt lat="47.67181" lon="6.20875">
        <ele>298</ele>
        <time>2022-07-04T08:58:37Z</time>
      </trkpt>
      <trkpt lat="47.67171" lon="6.20867">
        <ele>298</ele>
        <time>2022-07-04T08:58:41Z</time>
      </trkpt>
      <trkpt lat="47.67161" lon="6.20845">
        <ele>297.8</ele>
        <time>2022-07-04T08:58:47Z</time>
      </trkpt>
      <trkpt lat="47.67159" lon="6.20838">
        <ele>297.7</ele>
        <time>2022-07-04T08:58:49Z</time>
      </trkpt>
      <trkpt lat="47.67155" lon="6.20831">
        <ele>297.5</ele>
        <time>2022-07-04T08:58:51Z</time>
      </trkpt>
      <trkpt lat="47.67152" lon="6.20823">
        <ele>297.3</ele>
        <time>2022-07-04T08:58:53Z</time>
      </trkpt>
      <trkpt lat="47.67146" lon="6.20808">
        <ele>296.6</ele>
        <time>2022-07-04T08:58:57Z</time>
      </trkpt>
      <trkpt lat="47.67141" lon="6.20798">
        <ele>295.6</ele>
        <time>2022-07-04T08:58:59Z</time>
      </trkpt>
      <trkpt lat="47.67138" lon="6.20791">
        <ele>294.9</ele>
        <time>2022-07-04T08:59:00Z</time>
      </trkpt>
      <trkpt lat="47.67125" lon="6.20758">
        <ele>291.5</ele>
        <time>2022-07-04T08:59:00Z</time>
      </trkpt>
      <trkpt lat="47.67121" lon="6.20751">
        <ele>290.6</ele>
        <time>2022-07-04T08:59:01Z</time>
      </trkpt>
      <trkpt lat="47.67118" lon="6.20743">
        <ele>289.5</ele>
        <time>2022-07-04T08:59:02Z</time>
      </trkpt>
      <trkpt lat="47.67115" lon="6.20736">
        <ele>288.5</ele>
        <time>2022-07-04T08:59:03Z</time>
      </trkpt>
      <trkpt lat="47.67112" lon="6.20729">
        <ele>287.6</ele>
        <time>2022-07-04T08:59:04Z</time>
      </trkpt>
      <trkpt lat="47.67109" lon="6.20723">
        <ele>286.9</ele>
        <time>2022-07-04T08:59:05Z</time>
      </trkpt>
      <trkpt lat="47.67106" lon="6.20716">
        <ele>286.6</ele>
        <time>2022-07-04T08:59:06Z</time>
      </trkpt>
      <trkpt lat="47.67101" lon="6.20706">
        <ele>286.1</ele>
        <time>2022-07-04T08:59:08Z</time>
      </trkpt>
      <trkpt lat="47.67097" lon="6.20698">
        <ele>285.6</ele>
        <time>2022-07-04T08:59:10Z</time>
      </trkpt>
      <trkpt lat="47.6709" lon="6.20692">
        <ele>285.1</ele>
        <time>2022-07-04T08:59:12Z</time>
      </trkpt>
      <trkpt lat="47.67086" lon="6.20689">
        <ele>284.9</ele>
        <time>2022-07-04T08:59:13Z</time>
      </trkpt>
      <trkpt lat="47.67081" lon="6.2069">
        <ele>284.8</ele>
        <time>2022-07-04T08:59:20Z</time>
      </trkpt>
      <trkpt lat="47.67074" lon="6.20686">
        <ele>284.4</ele>
        <time>2022-07-04T08:59:22Z</time>
      </trkpt>
      <trkpt lat="47.67068" lon="6.20683">
        <ele>284.3</ele>
        <time>2022-07-04T08:59:23Z</time>
      </trkpt>
      <trkpt lat="47.67063" lon="6.20681">
        <ele>284.1</ele>
        <time>2022-07-04T08:59:24Z</time>
      </trkpt>
      <trkpt lat="47.67043" lon="6.20676">
        <ele>283.6</ele>
        <time>2022-07-04T08:59:28Z</time>
      </trkpt>
      <trkpt lat="47.67038" lon="6.20675">
        <ele>283.4</ele>
        <time>2022-07-04T08:59:29Z</time>
      </trkpt>
      <trkpt lat="47.67031" lon="6.20674">
        <ele>283.1</ele>
        <time>2022-07-04T08:59:31Z</time>
      </trkpt>
      <trkpt lat="47.67023" lon="6.20672">
        <ele>282.8</ele>
        <time>2022-07-04T08:59:33Z</time>
      </trkpt>
      <trkpt lat="47.67017" lon="6.20671">
        <ele>282.6</ele>
        <time>2022-07-04T08:59:34Z</time>
      </trkpt>
      <trkpt lat="47.67012" lon="6.20669">
        <ele>282.4</ele>
        <time>2022-07-04T08:59:35Z</time>
      </trkpt>
      <trkpt lat="47.67007" lon="6.20668">
        <ele>282.2</ele>
        <time>2022-07-04T08:59:36Z</time>
      </trkpt>
      <trkpt lat="47.66998" lon="6.20666">
        <ele>281.9</ele>
        <time>2022-07-04T08:59:38Z</time>
      </trkpt>
      <trkpt lat="47.66982" lon="6.20665">
        <ele>281.4</ele>
        <time>2022-07-04T08:59:42Z</time>
      </trkpt>
      <trkpt lat="47.66976" lon="6.20667">
        <ele>281.1</ele>
        <time>2022-07-04T08:59:43Z</time>
      </trkpt>
      <trkpt lat="47.66964" lon="6.20672">
        <ele>280.8</ele>
        <time>2022-07-04T08:59:47Z</time>
      </trkpt>
      <trkpt lat="47.66958" lon="6.20678">
        <ele>280.4</ele>
        <time>2022-07-04T08:59:49Z</time>
      </trkpt>
      <trkpt lat="47.66952" lon="6.20683">
        <ele>280</ele>
        <time>2022-07-04T08:59:50Z</time>
      </trkpt>
      <trkpt lat="47.66945" lon="6.20691">
        <ele>279.3</ele>
        <time>2022-07-04T08:59:52Z</time>
      </trkpt>
      <trkpt lat="47.66915" lon="6.20731">
        <ele>276.3</ele>
        <time>2022-07-04T08:59:52Z</time>
      </trkpt>
      <trkpt lat="47.6691" lon="6.20736">
        <ele>276.4</ele>
        <time>2022-07-04T08:59:53Z</time>
      </trkpt>
      <trkpt lat="47.66905" lon="6.20741">
        <ele>276.2</ele>
        <time>2022-07-04T08:59:54Z</time>
      </trkpt>
      <trkpt lat="47.669" lon="6.20747">
        <ele>275.9</ele>
        <time>2022-07-04T08:59:55Z</time>
      </trkpt>
      <trkpt lat="47.66894" lon="6.20753">
        <ele>275.4</ele>
        <time>2022-07-04T08:59:56Z</time>
      </trkpt>
      <trkpt lat="47.66889" lon="6.2076">
        <ele>275</ele>
        <time>2022-07-04T08:59:57Z</time>
      </trkpt>
      <trkpt lat="47.66885" lon="6.20768">
        <ele>274.7</ele>
        <time>2022-07-04T08:59:58Z</time>
      </trkpt>
      <trkpt lat="47.6688" lon="6.20776">
        <ele>274.1</ele>
        <time>2022-07-04T08:59:59Z</time>
      </trkpt>
      <trkpt lat="47.66876" lon="6.20785">
        <ele>273.6</ele>
        <time>2022-07-04T09:00:00Z</time>
      </trkpt>
      <trkpt lat="47.66871" lon="6.20793">
        <ele>273</ele>
        <time>2022-07-04T09:00:01Z</time>
      </trkpt>
      <trkpt lat="47.66866" lon="6.20802">
        <ele>272</ele>
        <time>2022-07-04T09:00:02Z</time>
      </trkpt>
      <trkpt lat="47.6686" lon="6.2081">
        <ele>271.4</ele>
        <time>2022-07-04T09:00:03Z</time>
      </trkpt>
      <trkpt lat="47.66853" lon="6.20816">
        <ele>271.1</ele>
        <time>2022-07-04T09:00:04Z</time>
      </trkpt>
      <trkpt lat="47.66844" lon="6.20822">
        <ele>269.9</ele>
        <time>2022-07-04T09:00:05Z</time>
      </trkpt>
      <trkpt lat="47.66835" lon="6.20829">
        <ele>267.9</ele>
        <time>2022-07-04T09:00:06Z</time>
      </trkpt>
      <trkpt lat="47.66826" lon="6.20835">
        <ele>266.9</ele>
        <time>2022-07-04T09:00:07Z</time>
      </trkpt>
      <trkpt lat="47.66816" lon="6.20842">
        <ele>266.7</ele>
        <time>2022-07-04T09:00:08Z</time>
      </trkpt>
      <trkpt lat="47.66807" lon="6.2085">
        <ele>265.5</ele>
        <time>2022-07-04T09:00:09Z</time>
      </trkpt>
      <trkpt lat="47.66797" lon="6.20859">
        <ele>264.3</ele>
        <time>2022-07-04T09:00:10Z</time>
      </trkpt>
      <trkpt lat="47.66788" lon="6.20867">
        <ele>263.2</ele>
        <time>2022-07-04T09:00:11Z</time>
      </trkpt>
      <trkpt lat="47.66778" lon="6.20875">
        <ele>261.5</ele>
        <time>2022-07-04T09:00:12Z</time>
      </trkpt>
      <trkpt lat="47.66768" lon="6.20883">
        <ele>260.7</ele>
        <time>2022-07-04T09:00:13Z</time>
      </trkpt>
      <trkpt lat="47.66758" lon="6.20891">
        <ele>259.7</ele>
        <time>2022-07-04T09:00:14Z</time>
      </trkpt>
      <trkpt lat="47.66748" lon="6.20897">
        <ele>259.3</ele>
        <time>2022-07-04T09:00:15Z</time>
      </trkpt>
      <trkpt lat="47.66739" lon="6.20904">
        <ele>259.1</ele>
        <time>2022-07-04T09:00:16Z</time>
      </trkpt>
      <trkpt lat="47.6673" lon="6.20909">
        <ele>258.4</ele>
        <time>2022-07-04T09:00:17Z</time>
      </trkpt>
      <trkpt lat="47.66721" lon="6.20913">
        <ele>257.4</ele>
        <time>2022-07-04T09:00:18Z</time>
      </trkpt>
      <trkpt lat="47.66713" lon="6.20918">
        <ele>256.9</ele>
        <time>2022-07-04T09:00:19Z</time>
      </trkpt>
      <trkpt lat="47.66705" lon="6.20924">
        <ele>256.4</ele>
        <time>2022-07-04T09:00:20Z</time>
      </trkpt>
      <trkpt lat="47.66698" lon="6.20931">
        <ele>255.6</ele>
        <time>2022-07-04T09:00:21Z</time>
      </trkpt>
      <trkpt lat="47.6669" lon="6.20937">
        <ele>254.9</ele>
        <time>2022-07-04T09:00:22Z</time>
      </trkpt>
      <trkpt lat="47.66683" lon="6.20943">
        <ele>254.6</ele>
        <time>2022-07-04T09:00:23Z</time>
      </trkpt>
      <trkpt lat="47.66676" lon="6.20948">
        <ele>254.2</ele>
        <time>2022-07-04T09:00:24Z</time>
      </trkpt>
      <trkpt lat="47.66669" lon="6.20953">
        <ele>253.7</ele>
        <time>2022-07-04T09:00:25Z</time>
      </trkpt>
      <trkpt lat="47.66662" lon="6.20957">
        <ele>253.3</ele>
        <time>2022-07-04T09:00:26Z</time>
      </trkpt>
      <trkpt lat="47.66655" lon="6.20961">
        <ele>253</ele>
        <time>2022-07-04T09:00:27Z</time>
      </trkpt>
      <trkpt lat="47.66649" lon="6.20963">
        <ele>252.9</ele>
        <time>2022-07-04T09:00:28Z</time>
      </trkpt>
      <trkpt lat="47.66642" lon="6.20965">
        <ele>252.9</ele>
        <time>2022-07-04T09:00:29Z</time>
      </trkpt>
      <trkpt lat="47.66636" lon="6.20968">
        <ele>252.8</ele>
        <time>2022-07-04T09:00:30Z</time>
      </trkpt>
      <trkpt lat="47.66629" lon="6.2097">
        <ele>252.6</ele>
        <time>2022-07-04T09:00:31Z</time>
      </trkpt>
      <trkpt lat="47.66623" lon="6.20973">
        <ele>252.5</ele>
        <time>2022-07-04T09:00:32Z</time>
      </trkpt>
      <trkpt lat="47.66616" lon="6.20975">
        <ele>252.4</ele>
        <time>2022-07-04T09:00:33Z</time>
      </trkpt>
      <trkpt lat="47.6661" lon="6.20977">
        <ele>252.2</ele>
        <time>2022-07-04T09:00:34Z</time>
      </trkpt>
      <trkpt lat="47.66603" lon="6.2098">
        <ele>251.8</ele>
        <time>2022-07-04T09:00:35Z</time>
      </trkpt>
      <trkpt lat="47.66596" lon="6.20981">
        <ele>251.6</ele>
        <time>2022-07-04T09:00:36Z</time>
      </trkpt>
      <trkpt lat="47.66589" lon="6.20983">
        <ele>251.2</ele>
        <time>2022-07-04T09:00:37Z</time>
      </trkpt>
      <trkpt lat="47.66582" lon="6.20986">
        <ele>250.9</ele>
        <time>2022-07-04T09:00:38Z</time>
      </trkpt>
      <trkpt lat="47.66574" lon="6.20989">
        <ele>250.5</ele>
        <time>2022-07-04T09:00:39Z</time>
      </trkpt>
      <trkpt lat="47.66567" lon="6.20993">
        <ele>249.9</ele>
        <time>2022-07-04T09:00:40Z</time>
      </trkpt>
      <trkpt lat="47.6656" lon="6.20998">
        <ele>249.3</ele>
        <time>2022-07-04T09:00:41Z</time>
      </trkpt>
      <trkpt lat="47.66552" lon="6.21002">
        <ele>248.7</ele>
        <time>2022-07-04T09:00:42Z</time>
      </trkpt>
      <trkpt lat="47.66546" lon="6.21006">
        <ele>248.1</ele>
        <time>2022-07-04T09:00:43Z</time>
      </trkpt>
      <trkpt lat="47.66539" lon="6.2101">
        <ele>247.6</ele>
        <time>2022-07-04T09:00:44Z</time>
      </trkpt>
      <trkpt lat="47.66532" lon="6.21013">
        <ele>247.1</ele>
        <time>2022-07-04T09:00:45Z</time>
      </trkpt>
      <trkpt lat="47.66525" lon="6.21016">
        <ele>246.8</ele>
        <time>2022-07-04T09:00:46Z</time>
      </trkpt>
      <trkpt lat="47.66518" lon="6.21019">
        <ele>246.4</ele>
        <time>2022-07-04T09:00:47Z</time>
      </trkpt>
      <trkpt lat="47.66512" lon="6.21021">
        <ele>246</ele>
        <time>2022-07-04T09:00:48Z</time>
      </trkpt>
      <trkpt lat="47.66506" lon="6.21023">
        <ele>245.6</ele>
        <time>2022-07-04T09:00:49Z</time>
      </trkpt>
      <trkpt lat="47.665" lon="6.21024">
        <ele>245.4</ele>
        <time>2022-07-04T09:00:50Z</time>
      </trkpt>
      <trkpt lat="47.66494" lon="6.21024">
        <ele>245.1</ele>
        <time>2022-07-04T09:00:51Z</time>
      </trkpt>
      <trkpt lat="47.66488" lon="6.21025">
        <ele>244.8</ele>
        <time>2022-07-04T09:00:52Z</time>
      </trkpt>
      <trkpt lat="47.66482" lon="6.21025">
        <ele>244.6</ele>
        <time>2022-07-04T09:00:53Z</time>
      </trkpt>
      <trkpt lat="47.66477" lon="6.21026">
        <ele>244.3</ele>
        <time>2022-07-04T09:00:54Z</time>
      </trkpt>
      <trkpt lat="47.66471" lon="6.21028">
        <ele>244</ele>
        <time>2022-07-04T09:00:55Z</time>
      </trkpt>
      <trkpt lat="47.66465" lon="6.2103">
        <ele>243.6</ele>
        <time>2022-07-04T09:00:56Z</time>
      </trkpt>
      <trkpt lat="47.66459" lon="6.21033">
        <ele>243.1</ele>
        <time>2022-07-04T09:00:57Z</time>
      </trkpt>
      <trkpt lat="47.66453" lon="6.21037">
        <ele>242.7</ele>
        <time>2022-07-04T09:00:58Z</time>
      </trkpt>
      <trkpt lat="47.66448" lon="6.2104">
        <ele>242.3</ele>
        <time>2022-07-04T09:00:59Z</time>
      </trkpt>
      <trkpt lat="47.66443" lon="6.21042">
        <ele>241.9</ele>
        <time>2022-07-04T09:01:00Z</time>
      </trkpt>
      <trkpt lat="47.66439" lon="6.21044">
        <ele>241.2</ele>
        <time>2022-07-04T09:01:01Z</time>
      </trkpt>
      <trkpt lat="47.66431" lon="6.21047">
        <ele>240.1</ele>
        <time>2022-07-04T09:01:03Z</time>
      </trkpt>
      <trkpt lat="47.66424" lon="6.21049">
        <ele>239.2</ele>
        <time>2022-07-04T09:01:05Z</time>
      </trkpt>
      <trkpt lat="47.66416" lon="6.21051">
        <ele>238.2</ele>
        <time>2022-07-04T09:01:07Z</time>
      </trkpt>
      <trkpt lat="47.66409" lon="6.21052">
        <ele>237.4</ele>
        <time>2022-07-04T09:01:09Z</time>
      </trkpt>
      <trkpt lat="47.66403" lon="6.21045">
        <ele>237.1</ele>
        <time>2022-07-04T09:01:17Z</time>
      </trkpt>
      <trkpt lat="47.66402" lon="6.21038">
        <ele>237.3</ele>
        <time>2022-07-04T09:01:19Z</time>
      </trkpt>
      <trkpt lat="47.66402" lon="6.2103">
        <ele>237.7</ele>
        <time>2022-07-04T09:01:21Z</time>
      </trkpt>
      <trkpt lat="47.66403" lon="6.21023">
        <ele>238.1</ele>
        <time>2022-07-04T09:01:23Z</time>
      </trkpt>
      <trkpt lat="47.66405" lon="6.21015">
        <ele>238.7</ele>
        <time>2022-07-04T09:01:26Z</time>
      </trkpt>
      <trkpt lat="47.66407" lon="6.20999">
        <ele>239.6</ele>
        <time>2022-07-04T09:01:32Z</time>
      </trkpt>
      <trkpt lat="47.66408" lon="6.20992">
        <ele>240</ele>
        <time>2022-07-04T09:01:34Z</time>
      </trkpt>
      <trkpt lat="47.66408" lon="6.20984">
        <ele>240.4</ele>
        <time>2022-07-04T09:01:37Z</time>
      </trkpt>
      <trkpt lat="47.66409" lon="6.20976">
        <ele>240.7</ele>
        <time>2022-07-04T09:01:39Z</time>
      </trkpt>
      <trkpt lat="47.66406" lon="6.2096">
        <ele>241.2</ele>
        <time>2022-07-04T09:01:39Z</time>
      </trkpt>
      <trkpt lat="47.66405" lon="6.20952">
        <ele>241.3</ele>
        <time>2022-07-04T09:01:46Z</time>
      </trkpt>
      <trkpt lat="47.66404" lon="6.20945">
        <ele>241.7</ele>
        <time>2022-07-04T09:01:48Z</time>
      </trkpt>
      <trkpt lat="47.66402" lon="6.20927">
        <ele>242</ele>
        <time>2022-07-04T09:01:54Z</time>
      </trkpt>
      <trkpt lat="47.664" lon="6.20912">
        <ele>242.5</ele>
        <time>2022-07-04T09:01:56Z</time>
      </trkpt>
      <trkpt lat="47.66399" lon="6.20903">
        <ele>242.9</ele>
        <time>2022-07-04T09:02:00Z</time>
      </trkpt>
      <trkpt lat="47.66397" lon="6.20895">
        <ele>243.2</ele>
        <time>2022-07-04T09:02:08Z</time>
      </trkpt>
      <trkpt lat="47.66393" lon="6.20878">
        <ele>243.4</ele>
        <time>2022-07-04T09:02:09Z</time>
      </trkpt>
      <trkpt lat="47.66392" lon="6.20871">
        <ele>243.3</ele>
        <time>2022-07-04T09:02:16Z</time>
      </trkpt>
      <trkpt lat="47.6639" lon="6.20863">
        <ele>243.2</ele>
        <time>2022-07-04T09:02:18Z</time>
      </trkpt>
      <trkpt lat="47.66389" lon="6.20853">
        <ele>243</ele>
        <time>2022-07-04T09:02:20Z</time>
      </trkpt>
      <trkpt lat="47.66386" lon="6.20835">
        <ele>242.9</ele>
        <time>2022-07-04T09:02:24Z</time>
      </trkpt>
      <trkpt lat="47.66377" lon="6.20811">
        <ele>243.9</ele>
        <time>2022-07-04T09:02:31Z</time>
      </trkpt>
      <trkpt lat="47.66374" lon="6.20806">
        <ele>243.9</ele>
        <time>2022-07-04T09:02:34Z</time>
      </trkpt>
      <trkpt lat="47.6637" lon="6.20799">
        <ele>244</ele>
        <time>2022-07-04T09:02:36Z</time>
      </trkpt>
      <trkpt lat="47.66364" lon="6.20785">
        <ele>244</ele>
        <time>2022-07-04T09:02:43Z</time>
      </trkpt>
      <trkpt lat="47.6636" lon="6.20763">
        <ele>244.5</ele>
        <time>2022-07-04T09:02:44Z</time>
      </trkpt>
      <trkpt lat="47.66357" lon="6.20755">
        <ele>244.6</ele>
        <time>2022-07-04T09:02:47Z</time>
      </trkpt>
      <trkpt lat="47.66354" lon="6.20749">
        <ele>244.8</ele>
        <time>2022-07-04T09:02:49Z</time>
      </trkpt>
      <trkpt lat="47.66349" lon="6.20743">
        <ele>245.1</ele>
        <time>2022-07-04T09:02:53Z</time>
      </trkpt>
      <trkpt lat="47.66343" lon="6.20739">
        <ele>245.4</ele>
        <time>2022-07-04T09:02:57Z</time>
      </trkpt>
      <trkpt lat="47.66339" lon="6.20735">
        <ele>245.7</ele>
        <time>2022-07-04T09:03:00Z</time>
      </trkpt>
      <trkpt lat="47.66335" lon="6.20731">
        <ele>246.1</ele>
        <time>2022-07-04T09:03:09Z</time>
      </trkpt>
      <trkpt lat="47.6633" lon="6.20729">
        <ele>246.3</ele>
        <time>2022-07-04T09:03:13Z</time>
      </trkpt>
      <trkpt lat="47.66319" lon="6.20731">
        <ele>246.4</ele>
        <time>2022-07-04T09:03:16Z</time>
      </trkpt>
      <trkpt lat="47.66314" lon="6.20732">
        <ele>246.4</ele>
        <time>2022-07-04T09:03:22Z</time>
      </trkpt>
      <trkpt lat="47.66308" lon="6.20732">
        <ele>246.6</ele>
        <time>2022-07-04T09:03:27Z</time>
      </trkpt>
      <trkpt lat="47.66303" lon="6.20732">
        <ele>246.7</ele>
        <time>2022-07-04T09:03:35Z</time>
      </trkpt>
      <trkpt lat="47.66293" lon="6.20731">
        <ele>246.7</ele>
        <time>2022-07-04T09:03:43Z</time>
      </trkpt>
      <trkpt lat="47.66289" lon="6.20728">
        <ele>247.2</ele>
        <time>2022-07-04T09:03:47Z</time>
      </trkpt>
      <trkpt lat="47.66284" lon="6.20724">
        <ele>247.7</ele>
        <time>2022-07-04T09:03:49Z</time>
      </trkpt>
      <trkpt lat="47.66279" lon="6.20722">
        <ele>248</ele>
        <time>2022-07-04T09:03:52Z</time>
      </trkpt>
      <trkpt lat="47.66276" lon="6.20718">
        <ele>248.7</ele>
        <time>2022-07-04T09:03:58Z</time>
      </trkpt>
      <trkpt lat="47.66271" lon="6.20716">
        <ele>249.2</ele>
        <time>2022-07-04T09:04:06Z</time>
      </trkpt>
      <trkpt lat="47.66266" lon="6.20712">
        <ele>249.9</ele>
        <time>2022-07-04T09:04:08Z</time>
      </trkpt>
      <trkpt lat="47.66259" lon="6.20703">
        <ele>251.5</ele>
        <time>2022-07-04T09:04:17Z</time>
      </trkpt>
      <trkpt lat="47.66254" lon="6.20699">
        <ele>252.1</ele>
        <time>2022-07-04T09:04:20Z</time>
      </trkpt>
      <trkpt lat="47.6625" lon="6.20696">
        <ele>252.8</ele>
        <time>2022-07-04T09:04:31Z</time>
      </trkpt>
      <trkpt lat="47.66246" lon="6.20691">
        <ele>253.7</ele>
        <time>2022-07-04T09:04:33Z</time>
      </trkpt>
      <trkpt lat="47.66243" lon="6.20685">
        <ele>254.6</ele>
        <time>2022-07-04T09:04:40Z</time>
      </trkpt>
      <trkpt lat="47.66239" lon="6.20681">
        <ele>255.3</ele>
        <time>2022-07-04T09:04:44Z</time>
      </trkpt>
      <trkpt lat="47.66237" lon="6.20674">
        <ele>256.4</ele>
        <time>2022-07-04T09:04:45Z</time>
      </trkpt>
      <trkpt lat="47.66235" lon="6.20668">
        <ele>257.4</ele>
        <time>2022-07-04T09:04:54Z</time>
      </trkpt>
      <trkpt lat="47.6623" lon="6.20665">
        <ele>257.9</ele>
        <time>2022-07-04T09:04:58Z</time>
      </trkpt>
      <trkpt lat="47.66227" lon="6.20659">
        <ele>258.9</ele>
        <time>2022-07-04T09:05:01Z</time>
      </trkpt>
      <trkpt lat="47.66221" lon="6.20648">
        <ele>260.7</ele>
        <time>2022-07-04T09:05:11Z</time>
      </trkpt>
      <trkpt lat="47.66217" lon="6.20643">
        <ele>261.4</ele>
        <time>2022-07-04T09:05:16Z</time>
      </trkpt>
      <trkpt lat="47.66214" lon="6.20639">
        <ele>262</ele>
        <time>2022-07-04T09:05:19Z</time>
      </trkpt>
      <trkpt lat="47.6621" lon="6.20634">
        <ele>262.7</ele>
        <time>2022-07-04T09:05:22Z</time>
      </trkpt>
      <trkpt lat="47.66205" lon="6.20632">
        <ele>262.9</ele>
        <time>2022-07-04T09:05:26Z</time>
      </trkpt>
      <trkpt lat="47.662" lon="6.20632">
        <ele>263</ele>
        <time>2022-07-04T09:05:30Z</time>
      </trkpt>
      <trkpt lat="47.66195" lon="6.2063">
        <ele>263.3</ele>
        <time>2022-07-04T09:05:38Z</time>
      </trkpt>
      <trkpt lat="47.66191" lon="6.20627">
        <ele>263.6</ele>
        <time>2022-07-04T09:05:41Z</time>
      </trkpt>
      <trkpt lat="47.66188" lon="6.20622">
        <ele>264.5</ele>
        <time>2022-07-04T09:05:46Z</time>
      </trkpt>
      <trkpt lat="47.66184" lon="6.20617">
        <ele>265.1</ele>
        <time>2022-07-04T09:05:50Z</time>
      </trkpt>
      <trkpt lat="47.66174" lon="6.20614">
        <ele>265.6</ele>
        <time>2022-07-04T09:05:57Z</time>
      </trkpt>
      <trkpt lat="47.66165" lon="6.20609">
        <ele>266.3</ele>
        <time>2022-07-04T09:06:01Z</time>
      </trkpt>
      <trkpt lat="47.6616" lon="6.20606">
        <ele>266.8</ele>
        <time>2022-07-04T09:06:05Z</time>
      </trkpt>
      <trkpt lat="47.66155" lon="6.20605">
        <ele>266.9</ele>
        <time>2022-07-04T09:06:08Z</time>
      </trkpt>
      <trkpt lat="47.66151" lon="6.20603">
        <ele>267.2</ele>
        <time>2022-07-04T09:06:14Z</time>
      </trkpt>
      <trkpt lat="47.66144" lon="6.20598">
        <ele>267.6</ele>
        <time>2022-07-04T09:06:16Z</time>
      </trkpt>
      <trkpt lat="47.66133" lon="6.20592">
        <ele>267.3</ele>
        <time>2022-07-04T09:06:20Z</time>
      </trkpt>
      <trkpt lat="47.66128" lon="6.20589">
        <ele>267.1</ele>
        <time>2022-07-04T09:06:21Z</time>
      </trkpt>
      <trkpt lat="47.66117" lon="6.20582">
        <ele>266.8</ele>
        <time>2022-07-04T09:06:24Z</time>
      </trkpt>
      <trkpt lat="47.66108" lon="6.20578">
        <ele>266.4</ele>
        <time>2022-07-04T09:06:26Z</time>
      </trkpt>
      <trkpt lat="47.66102" lon="6.20574">
        <ele>266.3</ele>
        <time>2022-07-04T09:06:28Z</time>
      </trkpt>
      <trkpt lat="47.66097" lon="6.20571">
        <ele>266.3</ele>
        <time>2022-07-04T09:06:29Z</time>
      </trkpt>
      <trkpt lat="47.66092" lon="6.20568">
        <ele>266.3</ele>
        <time>2022-07-04T09:06:30Z</time>
      </trkpt>
      <trkpt lat="47.66086" lon="6.20565">
        <ele>266.2</ele>
        <time>2022-07-04T09:06:31Z</time>
      </trkpt>
      <trkpt lat="47.66081" lon="6.20562">
        <ele>266.1</ele>
        <time>2022-07-04T09:06:33Z</time>
      </trkpt>
      <trkpt lat="47.66069" lon="6.20556">
        <ele>265.9</ele>
        <time>2022-07-04T09:06:36Z</time>
      </trkpt>
      <trkpt lat="47.66064" lon="6.20554">
        <ele>265.8</ele>
        <time>2022-07-04T09:06:38Z</time>
      </trkpt>
      <trkpt lat="47.66059" lon="6.20553">
        <ele>265.6</ele>
        <time>2022-07-04T09:06:40Z</time>
      </trkpt>
      <trkpt lat="47.66054" lon="6.20549">
        <ele>265.6</ele>
        <time>2022-07-04T09:06:42Z</time>
      </trkpt>
      <trkpt lat="47.6605" lon="6.20546">
        <ele>265.6</ele>
        <time>2022-07-04T09:06:44Z</time>
      </trkpt>
      <trkpt lat="47.66045" lon="6.20542">
        <ele>265.5</ele>
        <time>2022-07-04T09:06:46Z</time>
      </trkpt>
      <trkpt lat="47.66041" lon="6.20539">
        <ele>265.5</ele>
        <time>2022-07-04T09:06:48Z</time>
      </trkpt>
      <trkpt lat="47.66024" lon="6.2053">
        <ele>265.4</ele>
        <time>2022-07-04T09:06:53Z</time>
      </trkpt>
      <trkpt lat="47.66019" lon="6.20528">
        <ele>265.4</ele>
        <time>2022-07-04T09:06:55Z</time>
      </trkpt>
      <trkpt lat="47.6601" lon="6.20523">
        <ele>265.4</ele>
        <time>2022-07-04T09:06:58Z</time>
      </trkpt>
      <trkpt lat="47.66004" lon="6.2052">
        <ele>265.4</ele>
        <time>2022-07-04T09:07:00Z</time>
      </trkpt>
      <trkpt lat="47.65999" lon="6.20517">
        <ele>265.5</ele>
        <time>2022-07-04T09:07:02Z</time>
      </trkpt>
      <trkpt lat="47.65995" lon="6.20515">
        <ele>265.6</ele>
        <time>2022-07-04T09:07:04Z</time>
      </trkpt>
      <trkpt lat="47.6599" lon="6.20513">
        <ele>265.8</ele>
        <time>2022-07-04T09:07:06Z</time>
      </trkpt>
      <trkpt lat="47.65985" lon="6.20509">
        <ele>266.1</ele>
        <time>2022-07-04T09:07:08Z</time>
      </trkpt>
      <trkpt lat="47.65979" lon="6.20507">
        <ele>266.3</ele>
        <time>2022-07-04T09:07:11Z</time>
      </trkpt>
      <trkpt lat="47.65975" lon="6.20503">
        <ele>266.6</ele>
        <time>2022-07-04T09:07:13Z</time>
      </trkpt>
      <trkpt lat="47.6597" lon="6.205">
        <ele>266.8</ele>
        <time>2022-07-04T09:07:15Z</time>
      </trkpt>
      <trkpt lat="47.65965" lon="6.20496">
        <ele>266.6</ele>
        <time>2022-07-04T09:07:17Z</time>
      </trkpt>
      <trkpt lat="47.65956" lon="6.20488">
        <ele>266.8</ele>
        <time>2022-07-04T09:07:21Z</time>
      </trkpt>
      <trkpt lat="47.65951" lon="6.20484">
        <ele>266.9</ele>
        <time>2022-07-04T09:07:24Z</time>
      </trkpt>
      <trkpt lat="47.65945" lon="6.2048">
        <ele>266.9</ele>
        <time>2022-07-04T09:07:26Z</time>
      </trkpt>
      <trkpt lat="47.6593" lon="6.20471">
        <ele>267.1</ele>
        <time>2022-07-04T09:07:32Z</time>
      </trkpt>
      <trkpt lat="47.65926" lon="6.20468">
        <ele>267.1</ele>
        <time>2022-07-04T09:07:34Z</time>
      </trkpt>
      <trkpt lat="47.65919" lon="6.20464">
        <ele>267.1</ele>
        <time>2022-07-04T09:07:36Z</time>
      </trkpt>
      <trkpt lat="47.65914" lon="6.2046">
        <ele>267</ele>
        <time>2022-07-04T09:07:38Z</time>
      </trkpt>
      <trkpt lat="47.65909" lon="6.20454">
        <ele>267.1</ele>
        <time>2022-07-04T09:07:40Z</time>
      </trkpt>
      <trkpt lat="47.65906" lon="6.20449">
        <ele>267.4</ele>
        <time>2022-07-04T09:07:42Z</time>
      </trkpt>
      <trkpt lat="47.65901" lon="6.20445">
        <ele>267.3</ele>
        <time>2022-07-04T09:07:44Z</time>
      </trkpt>
      <trkpt lat="47.65892" lon="6.20435">
        <ele>267.4</ele>
        <time>2022-07-04T09:07:49Z</time>
      </trkpt>
      <trkpt lat="47.65878" lon="6.20422">
        <ele>267.2</ele>
        <time>2022-07-04T09:07:55Z</time>
      </trkpt>
      <trkpt lat="47.65872" lon="6.20417">
        <ele>267.1</ele>
        <time>2022-07-04T09:07:57Z</time>
      </trkpt>
      <trkpt lat="47.65868" lon="6.20414">
        <ele>267</ele>
        <time>2022-07-04T09:07:59Z</time>
      </trkpt>
      <trkpt lat="47.65863" lon="6.2041">
        <ele>266.9</ele>
        <time>2022-07-04T09:08:00Z</time>
      </trkpt>
      <trkpt lat="47.65859" lon="6.20407">
        <ele>266.8</ele>
        <time>2022-07-04T09:08:01Z</time>
      </trkpt>
      <trkpt lat="47.65853" lon="6.204">
        <ele>266.4</ele>
        <time>2022-07-04T09:08:03Z</time>
      </trkpt>
      <trkpt lat="47.65842" lon="6.20389">
        <ele>266.1</ele>
        <time>2022-07-04T09:08:06Z</time>
      </trkpt>
      <trkpt lat="47.65832" lon="6.20378">
        <ele>266.5</ele>
        <time>2022-07-04T09:08:09Z</time>
      </trkpt>
      <trkpt lat="47.65827" lon="6.20372">
        <ele>266.7</ele>
        <time>2022-07-04T09:08:11Z</time>
      </trkpt>
      <trkpt lat="47.65821" lon="6.20365">
        <ele>267.2</ele>
        <time>2022-07-04T09:08:13Z</time>
      </trkpt>
      <trkpt lat="47.65812" lon="6.20355">
        <ele>267.4</ele>
        <time>2022-07-04T09:08:17Z</time>
      </trkpt>
      <trkpt lat="47.65803" lon="6.20347">
        <ele>267.2</ele>
        <time>2022-07-04T09:08:22Z</time>
      </trkpt>
      <trkpt lat="47.65794" lon="6.20338">
        <ele>267.3</ele>
        <time>2022-07-04T09:08:27Z</time>
      </trkpt>
      <trkpt lat="47.6579" lon="6.20333">
        <ele>267.4</ele>
        <time>2022-07-04T09:08:29Z</time>
      </trkpt>
      <trkpt lat="47.65786" lon="6.20329">
        <ele>267.5</ele>
        <time>2022-07-04T09:08:32Z</time>
      </trkpt>
      <trkpt lat="47.65782" lon="6.20324">
        <ele>267.8</ele>
        <time>2022-07-04T09:08:35Z</time>
      </trkpt>
      <trkpt lat="47.65778" lon="6.2032">
        <ele>267.9</ele>
        <time>2022-07-04T09:08:37Z</time>
      </trkpt>
      <trkpt lat="47.65766" lon="6.20309">
        <ele>268.7</ele>
        <time>2022-07-04T09:08:39Z</time>
      </trkpt>
      <trkpt lat="47.65762" lon="6.20304">
        <ele>269</ele>
        <time>2022-07-04T09:08:41Z</time>
      </trkpt>
      <trkpt lat="47.65758" lon="6.203">
        <ele>269.2</ele>
        <time>2022-07-04T09:08:43Z</time>
      </trkpt>
      <trkpt lat="47.65753" lon="6.20296">
        <ele>269.2</ele>
        <time>2022-07-04T09:08:50Z</time>
      </trkpt>
      <trkpt lat="47.65749" lon="6.20292">
        <ele>269.4</ele>
        <time>2022-07-04T09:08:52Z</time>
      </trkpt>
      <trkpt lat="47.65746" lon="6.20288">
        <ele>269.8</ele>
        <time>2022-07-04T09:08:55Z</time>
      </trkpt>
      <trkpt lat="47.65742" lon="6.20283">
        <ele>270.2</ele>
        <time>2022-07-04T09:08:58Z</time>
      </trkpt>
      <trkpt lat="47.65738" lon="6.20279">
        <ele>270.5</ele>
        <time>2022-07-04T09:09:01Z</time>
      </trkpt>
      <trkpt lat="47.65735" lon="6.20273">
        <ele>271.1</ele>
        <time>2022-07-04T09:09:05Z</time>
      </trkpt>
      <trkpt lat="47.6573" lon="6.20269">
        <ele>271.5</ele>
        <time>2022-07-04T09:09:08Z</time>
      </trkpt>
      <trkpt lat="47.65726" lon="6.20265">
        <ele>272</ele>
        <time>2022-07-04T09:09:10Z</time>
      </trkpt>
      <trkpt lat="47.65718" lon="6.20254">
        <ele>273.1</ele>
        <time>2022-07-04T09:09:15Z</time>
      </trkpt>
      <trkpt lat="47.65714" lon="6.20248">
        <ele>273.5</ele>
        <time>2022-07-04T09:09:18Z</time>
      </trkpt>
      <trkpt lat="47.6571" lon="6.20243">
        <ele>273.6</ele>
        <time>2022-07-04T09:09:20Z</time>
      </trkpt>
      <trkpt lat="47.65705" lon="6.20239">
        <ele>273.5</ele>
        <time>2022-07-04T09:09:22Z</time>
      </trkpt>
      <trkpt lat="47.657" lon="6.20234">
        <ele>273.5</ele>
        <time>2022-07-04T09:09:25Z</time>
      </trkpt>
      <trkpt lat="47.65694" lon="6.20228">
        <ele>273.6</ele>
        <time>2022-07-04T09:09:27Z</time>
      </trkpt>
      <trkpt lat="47.6569" lon="6.20223">
        <ele>273.7</ele>
        <time>2022-07-04T09:09:29Z</time>
      </trkpt>
      <trkpt lat="47.65686" lon="6.20217">
        <ele>273.8</ele>
        <time>2022-07-04T09:09:31Z</time>
      </trkpt>
      <trkpt lat="47.65682" lon="6.20212">
        <ele>273.8</ele>
        <time>2022-07-04T09:09:33Z</time>
      </trkpt>
      <trkpt lat="47.65673" lon="6.20203">
        <ele>273.9</ele>
        <time>2022-07-04T09:09:38Z</time>
      </trkpt>
      <trkpt lat="47.65668" lon="6.20197">
        <ele>273.9</ele>
        <time>2022-07-04T09:09:40Z</time>
      </trkpt>
      <trkpt lat="47.65665" lon="6.20193">
        <ele>274</ele>
        <time>2022-07-04T09:09:42Z</time>
      </trkpt>
      <trkpt lat="47.6566" lon="6.20188">
        <ele>274.2</ele>
        <time>2022-07-04T09:09:44Z</time>
      </trkpt>
      <trkpt lat="47.65656" lon="6.20183">
        <ele>274.4</ele>
        <time>2022-07-04T09:09:47Z</time>
      </trkpt>
      <trkpt lat="47.65653" lon="6.20177">
        <ele>274.8</ele>
        <time>2022-07-04T09:09:49Z</time>
      </trkpt>
      <trkpt lat="47.6565" lon="6.20171">
        <ele>275.1</ele>
        <time>2022-07-04T09:09:52Z</time>
      </trkpt>
      <trkpt lat="47.65647" lon="6.20165">
        <ele>275.4</ele>
        <time>2022-07-04T09:09:55Z</time>
      </trkpt>
      <trkpt lat="47.65642" lon="6.20161">
        <ele>275.3</ele>
        <time>2022-07-04T09:09:57Z</time>
      </trkpt>
      <trkpt lat="47.65636" lon="6.20156">
        <ele>275.2</ele>
        <time>2022-07-04T09:09:58Z</time>
      </trkpt>
      <trkpt lat="47.65632" lon="6.2015">
        <ele>275</ele>
        <time>2022-07-04T09:10:04Z</time>
      </trkpt>
      <trkpt lat="47.65629" lon="6.20146">
        <ele>274.9</ele>
        <time>2022-07-04T09:10:05Z</time>
      </trkpt>
      <trkpt lat="47.65623" lon="6.2014">
        <ele>274.8</ele>
        <time>2022-07-04T09:10:07Z</time>
      </trkpt>
      <trkpt lat="47.65617" lon="6.20133">
        <ele>274.6</ele>
        <time>2022-07-04T09:10:09Z</time>
      </trkpt>
      <trkpt lat="47.65611" lon="6.20127">
        <ele>274.4</ele>
        <time>2022-07-04T09:10:10Z</time>
      </trkpt>
      <trkpt lat="47.65608" lon="6.20123">
        <ele>274.3</ele>
        <time>2022-07-04T09:10:12Z</time>
      </trkpt>
      <trkpt lat="47.65603" lon="6.20119">
        <ele>274.1</ele>
        <time>2022-07-04T09:10:13Z</time>
      </trkpt>
      <trkpt lat="47.65598" lon="6.20114">
        <ele>273.9</ele>
        <time>2022-07-04T09:10:15Z</time>
      </trkpt>
      <trkpt lat="47.65591" lon="6.20107">
        <ele>273.7</ele>
        <time>2022-07-04T09:10:17Z</time>
      </trkpt>
      <trkpt lat="47.6558" lon="6.20096">
        <ele>273.2</ele>
        <time>2022-07-04T09:10:20Z</time>
      </trkpt>
      <trkpt lat="47.65575" lon="6.20091">
        <ele>273.1</ele>
        <time>2022-07-04T09:10:22Z</time>
      </trkpt>
      <trkpt lat="47.65571" lon="6.20087">
        <ele>272.9</ele>
        <time>2022-07-04T09:10:23Z</time>
      </trkpt>
      <trkpt lat="47.65566" lon="6.20083">
        <ele>272.8</ele>
        <time>2022-07-04T09:10:25Z</time>
      </trkpt>
      <trkpt lat="47.65562" lon="6.20077">
        <ele>272.9</ele>
        <time>2022-07-04T09:10:26Z</time>
      </trkpt>
      <trkpt lat="47.65558" lon="6.20072">
        <ele>273</ele>
        <time>2022-07-04T09:10:28Z</time>
      </trkpt>
      <trkpt lat="47.65552" lon="6.20064">
        <ele>272.9</ele>
        <time>2022-07-04T09:10:30Z</time>
      </trkpt>
      <trkpt lat="47.65548" lon="6.20058">
        <ele>272.7</ele>
        <time>2022-07-04T09:10:31Z</time>
      </trkpt>
      <trkpt lat="47.65543" lon="6.20051">
        <ele>272.3</ele>
        <time>2022-07-04T09:10:33Z</time>
      </trkpt>
      <trkpt lat="47.65539" lon="6.20046">
        <ele>272</ele>
        <time>2022-07-04T09:10:34Z</time>
      </trkpt>
      <trkpt lat="47.65535" lon="6.20041">
        <ele>271.8</ele>
        <time>2022-07-04T09:10:35Z</time>
      </trkpt>
      <trkpt lat="47.6553" lon="6.20035">
        <ele>271.7</ele>
        <time>2022-07-04T09:10:37Z</time>
      </trkpt>
      <trkpt lat="47.65525" lon="6.20029">
        <ele>271.6</ele>
        <time>2022-07-04T09:10:38Z</time>
      </trkpt>
      <trkpt lat="47.65522" lon="6.20023">
        <ele>271.3</ele>
        <time>2022-07-04T09:10:39Z</time>
      </trkpt>
      <trkpt lat="47.65516" lon="6.20016">
        <ele>271.1</ele>
        <time>2022-07-04T09:10:40Z</time>
      </trkpt>
      <trkpt lat="47.65511" lon="6.2001">
        <ele>271</ele>
        <time>2022-07-04T09:10:41Z</time>
      </trkpt>
      <trkpt lat="47.65507" lon="6.20006">
        <ele>271</ele>
        <time>2022-07-04T09:10:43Z</time>
      </trkpt>
      <trkpt lat="47.65498" lon="6.19994">
        <ele>271</ele>
        <time>2022-07-04T09:10:46Z</time>
      </trkpt>
      <trkpt lat="47.65494" lon="6.19988">
        <ele>270.6</ele>
        <time>2022-07-04T09:10:47Z</time>
      </trkpt>
      <trkpt lat="47.65491" lon="6.19984">
        <ele>270.3</ele>
        <time>2022-07-04T09:10:49Z</time>
      </trkpt>
      <trkpt lat="47.65481" lon="6.1997">
        <ele>269.7</ele>
        <time>2022-07-04T09:10:52Z</time>
      </trkpt>
      <trkpt lat="47.65477" lon="6.19965">
        <ele>269.5</ele>
        <time>2022-07-04T09:10:53Z</time>
      </trkpt>
      <trkpt lat="47.65473" lon="6.19958">
        <ele>269.6</ele>
        <time>2022-07-04T09:10:54Z</time>
      </trkpt>
      <trkpt lat="47.65469" lon="6.19951">
        <ele>269.7</ele>
        <time>2022-07-04T09:10:55Z</time>
      </trkpt>
      <trkpt lat="47.65463" lon="6.19938">
        <ele>269.7</ele>
        <time>2022-07-04T09:10:57Z</time>
      </trkpt>
      <trkpt lat="47.65456" lon="6.19925">
        <ele>269.6</ele>
        <time>2022-07-04T09:10:59Z</time>
      </trkpt>
      <trkpt lat="47.65452" lon="6.19916">
        <ele>269.9</ele>
        <time>2022-07-04T09:11:01Z</time>
      </trkpt>
      <trkpt lat="47.65449" lon="6.19907">
        <ele>270.2</ele>
        <time>2022-07-04T09:11:03Z</time>
      </trkpt>
      <trkpt lat="47.65448" lon="6.19901">
        <ele>270.4</ele>
        <time>2022-07-04T09:11:04Z</time>
      </trkpt>
      <trkpt lat="47.65443" lon="6.19886">
        <ele>271</ele>
        <time>2022-07-04T09:11:07Z</time>
      </trkpt>
      <trkpt lat="47.6544" lon="6.19878">
        <ele>271.3</ele>
        <time>2022-07-04T09:11:09Z</time>
      </trkpt>
      <trkpt lat="47.65437" lon="6.1987">
        <ele>271.5</ele>
        <time>2022-07-04T09:11:11Z</time>
      </trkpt>
      <trkpt lat="47.65431" lon="6.19856">
        <ele>271.7</ele>
        <time>2022-07-04T09:11:16Z</time>
      </trkpt>
      <trkpt lat="47.65423" lon="6.19843">
        <ele>271.4</ele>
        <time>2022-07-04T09:11:20Z</time>
      </trkpt>
      <trkpt lat="47.65418" lon="6.19835">
        <ele>271.1</ele>
        <time>2022-07-04T09:11:22Z</time>
      </trkpt>
      <trkpt lat="47.65415" lon="6.19829">
        <ele>270.9</ele>
        <time>2022-07-04T09:11:23Z</time>
      </trkpt>
      <trkpt lat="47.65412" lon="6.19822">
        <ele>270.5</ele>
        <time>2022-07-04T09:11:25Z</time>
      </trkpt>
      <trkpt lat="47.65407" lon="6.19815">
        <ele>270.1</ele>
        <time>2022-07-04T09:11:27Z</time>
      </trkpt>
      <trkpt lat="47.654" lon="6.19802">
        <ele>269.8</ele>
        <time>2022-07-04T09:11:29Z</time>
      </trkpt>
      <trkpt lat="47.65395" lon="6.19797">
        <ele>269.6</ele>
        <time>2022-07-04T09:11:31Z</time>
      </trkpt>
      <trkpt lat="47.65392" lon="6.19792">
        <ele>269.4</ele>
        <time>2022-07-04T09:11:32Z</time>
      </trkpt>
      <trkpt lat="47.65387" lon="6.19784">
        <ele>269.4</ele>
        <time>2022-07-04T09:11:34Z</time>
      </trkpt>
      <trkpt lat="47.6538" lon="6.1977">
        <ele>270.1</ele>
        <time>2022-07-04T09:11:36Z</time>
      </trkpt>
      <trkpt lat="47.65377" lon="6.19762">
        <ele>270.3</ele>
        <time>2022-07-04T09:11:38Z</time>
      </trkpt>
      <trkpt lat="47.65366" lon="6.19736">
        <ele>269.8</ele>
        <time>2022-07-04T09:11:43Z</time>
      </trkpt>
      <trkpt lat="47.65357" lon="6.19715">
        <ele>268.7</ele>
        <time>2022-07-04T09:11:46Z</time>
      </trkpt>
      <trkpt lat="47.65354" lon="6.19709">
        <ele>268.6</ele>
        <time>2022-07-04T09:11:48Z</time>
      </trkpt>
      <trkpt lat="47.65352" lon="6.19703">
        <ele>268.5</ele>
        <time>2022-07-04T09:11:49Z</time>
      </trkpt>
      <trkpt lat="47.65349" lon="6.19697">
        <ele>268.6</ele>
        <time>2022-07-04T09:11:50Z</time>
      </trkpt>
      <trkpt lat="47.65347" lon="6.19689">
        <ele>268.7</ele>
        <time>2022-07-04T09:11:51Z</time>
      </trkpt>
      <trkpt lat="47.65345" lon="6.19683">
        <ele>268.7</ele>
        <time>2022-07-04T09:11:52Z</time>
      </trkpt>
      <trkpt lat="47.65337" lon="6.19668">
        <ele>268.4</ele>
        <time>2022-07-04T09:11:55Z</time>
      </trkpt>
      <trkpt lat="47.65326" lon="6.19638">
        <ele>268.2</ele>
        <time>2022-07-04T09:11:55Z</time>
      </trkpt>
      <trkpt lat="47.65323" lon="6.19626">
        <ele>268</ele>
        <time>2022-07-04T09:11:57Z</time>
      </trkpt>
      <trkpt lat="47.6532" lon="6.1962">
        <ele>267.9</ele>
        <time>2022-07-04T09:11:58Z</time>
      </trkpt>
      <trkpt lat="47.65316" lon="6.1961">
        <ele>267.8</ele>
        <time>2022-07-04T09:12:00Z</time>
      </trkpt>
      <trkpt lat="47.65315" lon="6.19604">
        <ele>267.8</ele>
        <time>2022-07-04T09:12:01Z</time>
      </trkpt>
      <trkpt lat="47.65312" lon="6.19594">
        <ele>267.9</ele>
        <time>2022-07-04T09:12:03Z</time>
      </trkpt>
      <trkpt lat="47.6531" lon="6.19586">
        <ele>268.1</ele>
        <time>2022-07-04T09:12:05Z</time>
      </trkpt>
      <trkpt lat="47.65306" lon="6.19577">
        <ele>268.2</ele>
        <time>2022-07-04T09:12:07Z</time>
      </trkpt>
      <trkpt lat="47.65302" lon="6.19571">
        <ele>268.4</ele>
        <time>2022-07-04T09:12:09Z</time>
      </trkpt>
      <trkpt lat="47.653" lon="6.19564">
        <ele>268.6</ele>
        <time>2022-07-04T09:12:11Z</time>
      </trkpt>
      <trkpt lat="47.65297" lon="6.19558">
        <ele>268.9</ele>
        <time>2022-07-04T09:12:14Z</time>
      </trkpt>
      <trkpt lat="47.65293" lon="6.1955">
        <ele>269.3</ele>
        <time>2022-07-04T09:12:16Z</time>
      </trkpt>
      <trkpt lat="47.65291" lon="6.19544">
        <ele>269.6</ele>
        <time>2022-07-04T09:12:18Z</time>
      </trkpt>
      <trkpt lat="47.65286" lon="6.19538">
        <ele>270.1</ele>
        <time>2022-07-04T09:12:20Z</time>
      </trkpt>
      <trkpt lat="47.65282" lon="6.19532">
        <ele>270.5</ele>
        <time>2022-07-04T09:12:22Z</time>
      </trkpt>
      <trkpt lat="47.65281" lon="6.19524">
        <ele>271</ele>
        <time>2022-07-04T09:12:30Z</time>
      </trkpt>
      <trkpt lat="47.65281" lon="6.19516">
        <ele>271.4</ele>
        <time>2022-07-04T09:12:32Z</time>
      </trkpt>
      <trkpt lat="47.65277" lon="6.19503">
        <ele>271.8</ele>
        <time>2022-07-04T09:12:35Z</time>
      </trkpt>
      <trkpt lat="47.65273" lon="6.19495">
        <ele>271.7</ele>
        <time>2022-07-04T09:12:37Z</time>
      </trkpt>
      <trkpt lat="47.65268" lon="6.1948">
        <ele>271.5</ele>
        <time>2022-07-04T09:12:40Z</time>
      </trkpt>
      <trkpt lat="47.65263" lon="6.19467">
        <ele>271.6</ele>
        <time>2022-07-04T09:12:43Z</time>
      </trkpt>
      <trkpt lat="47.6526" lon="6.19459">
        <ele>271.7</ele>
        <time>2022-07-04T09:12:45Z</time>
      </trkpt>
      <trkpt lat="47.65252" lon="6.19449">
        <ele>271.9</ele>
        <time>2022-07-04T09:12:49Z</time>
      </trkpt>
      <trkpt lat="47.65247" lon="6.19442">
        <ele>271.8</ele>
        <time>2022-07-04T09:12:51Z</time>
      </trkpt>
      <trkpt lat="47.65243" lon="6.19438">
        <ele>271.5</ele>
        <time>2022-07-04T09:12:52Z</time>
      </trkpt>
      <trkpt lat="47.65239" lon="6.19433">
        <ele>271.2</ele>
        <time>2022-07-04T09:12:54Z</time>
      </trkpt>
      <trkpt lat="47.65233" lon="6.19425">
        <ele>270.8</ele>
        <time>2022-07-04T09:12:56Z</time>
      </trkpt>
      <trkpt lat="47.65226" lon="6.19414">
        <ele>270.4</ele>
        <time>2022-07-04T09:12:59Z</time>
      </trkpt>
      <trkpt lat="47.65223" lon="6.19408">
        <ele>270.3</ele>
        <time>2022-07-04T09:13:00Z</time>
      </trkpt>
      <trkpt lat="47.65216" lon="6.19396">
        <ele>270.7</ele>
        <time>2022-07-04T09:13:02Z</time>
      </trkpt>
      <trkpt lat="47.65209" lon="6.19384">
        <ele>271</ele>
        <time>2022-07-04T09:13:06Z</time>
      </trkpt>
      <trkpt lat="47.65199" lon="6.19366">
        <ele>271</ele>
        <time>2022-07-04T09:13:11Z</time>
      </trkpt>
      <trkpt lat="47.65188" lon="6.19349">
        <ele>271.2</ele>
        <time>2022-07-04T09:13:12Z</time>
      </trkpt>
      <trkpt lat="47.65184" lon="6.19343">
        <ele>271.3</ele>
        <time>2022-07-04T09:13:19Z</time>
      </trkpt>
      <trkpt lat="47.6518" lon="6.19337">
        <ele>271.4</ele>
        <time>2022-07-04T09:13:22Z</time>
      </trkpt>
      <trkpt lat="47.65177" lon="6.19331">
        <ele>271.4</ele>
        <time>2022-07-04T09:13:24Z</time>
      </trkpt>
      <trkpt lat="47.65174" lon="6.19327">
        <ele>271.5</ele>
        <time>2022-07-04T09:13:26Z</time>
      </trkpt>
      <trkpt lat="47.65162" lon="6.19314">
        <ele>271.7</ele>
        <time>2022-07-04T09:13:32Z</time>
      </trkpt>
      <trkpt lat="47.65157" lon="6.19309">
        <ele>271.9</ele>
        <time>2022-07-04T09:13:34Z</time>
      </trkpt>
      <trkpt lat="47.65153" lon="6.19305">
        <ele>272</ele>
        <time>2022-07-04T09:13:36Z</time>
      </trkpt>
      <trkpt lat="47.65139" lon="6.19291">
        <ele>272</ele>
        <time>2022-07-04T09:13:42Z</time>
      </trkpt>
      <trkpt lat="47.65134" lon="6.19285">
        <ele>271.8</ele>
        <time>2022-07-04T09:13:44Z</time>
      </trkpt>
      <trkpt lat="47.65129" lon="6.19278">
        <ele>271.6</ele>
        <time>2022-07-04T09:13:46Z</time>
      </trkpt>
      <trkpt lat="47.65124" lon="6.19271">
        <ele>271.4</ele>
        <time>2022-07-04T09:13:48Z</time>
      </trkpt>
      <trkpt lat="47.65114" lon="6.19258">
        <ele>271.1</ele>
        <time>2022-07-04T09:13:52Z</time>
      </trkpt>
      <trkpt lat="47.65108" lon="6.19252">
        <ele>270.9</ele>
        <time>2022-07-04T09:13:54Z</time>
      </trkpt>
      <trkpt lat="47.65104" lon="6.19245">
        <ele>270.7</ele>
        <time>2022-07-04T09:13:56Z</time>
      </trkpt>
      <trkpt lat="47.65099" lon="6.19239">
        <ele>270.6</ele>
        <time>2022-07-04T09:13:58Z</time>
      </trkpt>
      <trkpt lat="47.65095" lon="6.19234">
        <ele>270.4</ele>
        <time>2022-07-04T09:13:59Z</time>
      </trkpt>
      <trkpt lat="47.65091" lon="6.19227">
        <ele>270.3</ele>
        <time>2022-07-04T09:14:01Z</time>
      </trkpt>
      <trkpt lat="47.65086" lon="6.19222">
        <ele>270.1</ele>
        <time>2022-07-04T09:14:03Z</time>
      </trkpt>
      <trkpt lat="47.65079" lon="6.1921">
        <ele>269.8</ele>
        <time>2022-07-04T09:14:07Z</time>
      </trkpt>
      <trkpt lat="47.65076" lon="6.19205">
        <ele>269.6</ele>
        <time>2022-07-04T09:14:09Z</time>
      </trkpt>
      <trkpt lat="47.65072" lon="6.19201">
        <ele>269.5</ele>
        <time>2022-07-04T09:14:10Z</time>
      </trkpt>
      <trkpt lat="47.65065" lon="6.19189">
        <ele>269.5</ele>
        <time>2022-07-04T09:14:14Z</time>
      </trkpt>
      <trkpt lat="47.65061" lon="6.19184">
        <ele>269.5</ele>
        <time>2022-07-04T09:14:16Z</time>
      </trkpt>
      <trkpt lat="47.65058" lon="6.19179">
        <ele>269.6</ele>
        <time>2022-07-04T09:14:17Z</time>
      </trkpt>
      <trkpt lat="47.65053" lon="6.19171">
        <ele>269.7</ele>
        <time>2022-07-04T09:14:19Z</time>
      </trkpt>
      <trkpt lat="47.65049" lon="6.19165">
        <ele>269.5</ele>
        <time>2022-07-04T09:14:21Z</time>
      </trkpt>
      <trkpt lat="47.65044" lon="6.19157">
        <ele>269.3</ele>
        <time>2022-07-04T09:14:23Z</time>
      </trkpt>
      <trkpt lat="47.65036" lon="6.19143">
        <ele>269.2</ele>
        <time>2022-07-04T09:14:27Z</time>
      </trkpt>
      <trkpt lat="47.65033" lon="6.19138">
        <ele>269.2</ele>
        <time>2022-07-04T09:14:28Z</time>
      </trkpt>
      <trkpt lat="47.6503" lon="6.19133">
        <ele>269.1</ele>
        <time>2022-07-04T09:14:29Z</time>
      </trkpt>
      <trkpt lat="47.65026" lon="6.19126">
        <ele>268.8</ele>
        <time>2022-07-04T09:14:31Z</time>
      </trkpt>
      <trkpt lat="47.65022" lon="6.1912">
        <ele>268.6</ele>
        <time>2022-07-04T09:14:32Z</time>
      </trkpt>
      <trkpt lat="47.65016" lon="6.19113">
        <ele>268.1</ele>
        <time>2022-07-04T09:14:34Z</time>
      </trkpt>
      <trkpt lat="47.65011" lon="6.19104">
        <ele>267.9</ele>
        <time>2022-07-04T09:14:36Z</time>
      </trkpt>
      <trkpt lat="47.65007" lon="6.19097">
        <ele>267.9</ele>
        <time>2022-07-04T09:14:37Z</time>
      </trkpt>
      <trkpt lat="47.65004" lon="6.19092">
        <ele>267.9</ele>
        <time>2022-07-04T09:14:38Z</time>
      </trkpt>
      <trkpt lat="47.64994" lon="6.19074">
        <ele>267.6</ele>
        <time>2022-07-04T09:14:42Z</time>
      </trkpt>
      <trkpt lat="47.64991" lon="6.19069">
        <ele>267.5</ele>
        <time>2022-07-04T09:14:43Z</time>
      </trkpt>
      <trkpt lat="47.64987" lon="6.19063">
        <ele>267.4</ele>
        <time>2022-07-04T09:14:45Z</time>
      </trkpt>
      <trkpt lat="47.64983" lon="6.19055">
        <ele>267.4</ele>
        <time>2022-07-04T09:14:46Z</time>
      </trkpt>
      <trkpt lat="47.6498" lon="6.19048">
        <ele>267.3</ele>
        <time>2022-07-04T09:14:47Z</time>
      </trkpt>
      <trkpt lat="47.64969" lon="6.19028">
        <ele>266.8</ele>
        <time>2022-07-04T09:14:50Z</time>
      </trkpt>
      <trkpt lat="47.64966" lon="6.19022">
        <ele>266.6</ele>
        <time>2022-07-04T09:14:52Z</time>
      </trkpt>
      <trkpt lat="47.64962" lon="6.19014">
        <ele>266.4</ele>
        <time>2022-07-04T09:14:53Z</time>
      </trkpt>
      <trkpt lat="47.64946" lon="6.18983">
        <ele>266.1</ele>
        <time>2022-07-04T09:14:53Z</time>
      </trkpt>
      <trkpt lat="47.6494" lon="6.18972">
        <ele>265.9</ele>
        <time>2022-07-04T09:14:55Z</time>
      </trkpt>
      <trkpt lat="47.64934" lon="6.18963">
        <ele>265.6</ele>
        <time>2022-07-04T09:14:57Z</time>
      </trkpt>
      <trkpt lat="47.64928" lon="6.18953">
        <ele>265.4</ele>
        <time>2022-07-04T09:14:59Z</time>
      </trkpt>
      <trkpt lat="47.64926" lon="6.18948">
        <ele>265.3</ele>
        <time>2022-07-04T09:15:00Z</time>
      </trkpt>
      <trkpt lat="47.64923" lon="6.18943">
        <ele>265.2</ele>
        <time>2022-07-04T09:15:01Z</time>
      </trkpt>
      <trkpt lat="47.6492" lon="6.18937">
        <ele>265.1</ele>
        <time>2022-07-04T09:15:02Z</time>
      </trkpt>
      <trkpt lat="47.64916" lon="6.18932">
        <ele>265</ele>
        <time>2022-07-04T09:15:03Z</time>
      </trkpt>
      <trkpt lat="47.64913" lon="6.18927">
        <ele>264.8</ele>
        <time>2022-07-04T09:15:04Z</time>
      </trkpt>
      <trkpt lat="47.6491" lon="6.18922">
        <ele>264.7</ele>
        <time>2022-07-04T09:15:05Z</time>
      </trkpt>
      <trkpt lat="47.64906" lon="6.18916">
        <ele>264.6</ele>
        <time>2022-07-04T09:15:06Z</time>
      </trkpt>
      <trkpt lat="47.64903" lon="6.1891">
        <ele>264.6</ele>
        <time>2022-07-04T09:15:07Z</time>
      </trkpt>
      <trkpt lat="47.649" lon="6.18905">
        <ele>264.6</ele>
        <time>2022-07-04T09:15:08Z</time>
      </trkpt>
      <trkpt lat="47.64897" lon="6.18899">
        <ele>264.5</ele>
        <time>2022-07-04T09:15:09Z</time>
      </trkpt>
      <trkpt lat="47.64894" lon="6.18894">
        <ele>264.3</ele>
        <time>2022-07-04T09:15:10Z</time>
      </trkpt>
      <trkpt lat="47.64891" lon="6.18888">
        <ele>264.2</ele>
        <time>2022-07-04T09:15:11Z</time>
      </trkpt>
      <trkpt lat="47.64888" lon="6.18883">
        <ele>264</ele>
        <time>2022-07-04T09:15:12Z</time>
      </trkpt>
      <trkpt lat="47.64886" lon="6.18877">
        <ele>263.8</ele>
        <time>2022-07-04T09:15:13Z</time>
      </trkpt>
      <trkpt lat="47.64883" lon="6.18871">
        <ele>263.7</ele>
        <time>2022-07-04T09:15:14Z</time>
      </trkpt>
      <trkpt lat="47.6488" lon="6.18865">
        <ele>263.6</ele>
        <time>2022-07-04T09:15:15Z</time>
      </trkpt>
      <trkpt lat="47.64877" lon="6.18859">
        <ele>263.6</ele>
        <time>2022-07-04T09:15:16Z</time>
      </trkpt>
      <trkpt lat="47.64875" lon="6.18854">
        <ele>263.5</ele>
        <time>2022-07-04T09:15:17Z</time>
      </trkpt>
      <trkpt lat="47.64872" lon="6.18848">
        <ele>263.4</ele>
        <time>2022-07-04T09:15:18Z</time>
      </trkpt>
      <trkpt lat="47.64869" lon="6.18842">
        <ele>263.3</ele>
        <time>2022-07-04T09:15:19Z</time>
      </trkpt>
      <trkpt lat="47.64866" lon="6.18836">
        <ele>263.2</ele>
        <time>2022-07-04T09:15:20Z</time>
      </trkpt>
      <trkpt lat="47.64863" lon="6.1883">
        <ele>263.1</ele>
        <time>2022-07-04T09:15:21Z</time>
      </trkpt>
      <trkpt lat="47.6486" lon="6.18824">
        <ele>262.9</ele>
        <time>2022-07-04T09:15:22Z</time>
      </trkpt>
      <trkpt lat="47.64857" lon="6.18818">
        <ele>262.7</ele>
        <time>2022-07-04T09:15:23Z</time>
      </trkpt>
      <trkpt lat="47.64854" lon="6.18811">
        <ele>262.5</ele>
        <time>2022-07-04T09:15:24Z</time>
      </trkpt>
      <trkpt lat="47.64851" lon="6.18805">
        <ele>262.3</ele>
        <time>2022-07-04T09:15:25Z</time>
      </trkpt>
      <trkpt lat="47.64848" lon="6.18798">
        <ele>262.2</ele>
        <time>2022-07-04T09:15:26Z</time>
      </trkpt>
      <trkpt lat="47.64845" lon="6.18792">
        <ele>262.1</ele>
        <time>2022-07-04T09:15:27Z</time>
      </trkpt>
      <trkpt lat="47.64842" lon="6.18785">
        <ele>262.1</ele>
        <time>2022-07-04T09:15:28Z</time>
      </trkpt>
      <trkpt lat="47.64839" lon="6.18778">
        <ele>262.2</ele>
        <time>2022-07-04T09:15:29Z</time>
      </trkpt>
      <trkpt lat="47.64836" lon="6.18771">
        <ele>262.1</ele>
        <time>2022-07-04T09:15:30Z</time>
      </trkpt>
      <trkpt lat="47.64833" lon="6.18765">
        <ele>261.9</ele>
        <time>2022-07-04T09:15:31Z</time>
      </trkpt>
      <trkpt lat="47.64829" lon="6.18758">
        <ele>261.7</ele>
        <time>2022-07-04T09:15:32Z</time>
      </trkpt>
      <trkpt lat="47.64826" lon="6.1875">
        <ele>261.5</ele>
        <time>2022-07-04T09:15:33Z</time>
      </trkpt>
      <trkpt lat="47.64823" lon="6.18743">
        <ele>261.3</ele>
        <time>2022-07-04T09:15:34Z</time>
      </trkpt>
      <trkpt lat="47.6482" lon="6.18736">
        <ele>261</ele>
        <time>2022-07-04T09:15:35Z</time>
      </trkpt>
      <trkpt lat="47.64816" lon="6.18729">
        <ele>260.8</ele>
        <time>2022-07-04T09:15:36Z</time>
      </trkpt>
      <trkpt lat="47.64813" lon="6.18722">
        <ele>260.5</ele>
        <time>2022-07-04T09:15:37Z</time>
      </trkpt>
      <trkpt lat="47.6481" lon="6.18715">
        <ele>260.3</ele>
        <time>2022-07-04T09:15:38Z</time>
      </trkpt>
      <trkpt lat="47.64806" lon="6.18708">
        <ele>260.1</ele>
        <time>2022-07-04T09:15:39Z</time>
      </trkpt>
      <trkpt lat="47.64803" lon="6.18701">
        <ele>259.8</ele>
        <time>2022-07-04T09:15:40Z</time>
      </trkpt>
      <trkpt lat="47.64799" lon="6.18693">
        <ele>259.5</ele>
        <time>2022-07-04T09:15:41Z</time>
      </trkpt>
      <trkpt lat="47.64794" lon="6.18685">
        <ele>259.2</ele>
        <time>2022-07-04T09:15:42Z</time>
      </trkpt>
      <trkpt lat="47.6479" lon="6.18677">
        <ele>258.9</ele>
        <time>2022-07-04T09:15:43Z</time>
      </trkpt>
      <trkpt lat="47.64786" lon="6.18669">
        <ele>258.6</ele>
        <time>2022-07-04T09:15:44Z</time>
      </trkpt>
      <trkpt lat="47.64782" lon="6.18661">
        <ele>258.5</ele>
        <time>2022-07-04T09:15:45Z</time>
      </trkpt>
      <trkpt lat="47.64777" lon="6.18652">
        <ele>258.5</ele>
        <time>2022-07-04T09:15:46Z</time>
      </trkpt>
      <trkpt lat="47.64774" lon="6.18645">
        <ele>258.4</ele>
        <time>2022-07-04T09:15:47Z</time>
      </trkpt>
      <trkpt lat="47.64769" lon="6.18637">
        <ele>258.1</ele>
        <time>2022-07-04T09:15:48Z</time>
      </trkpt>
      <trkpt lat="47.64765" lon="6.1863">
        <ele>257.8</ele>
        <time>2022-07-04T09:15:49Z</time>
      </trkpt>
      <trkpt lat="47.64761" lon="6.18622">
        <ele>257.6</ele>
        <time>2022-07-04T09:15:50Z</time>
      </trkpt>
      <trkpt lat="47.64757" lon="6.18615">
        <ele>257.4</ele>
        <time>2022-07-04T09:15:51Z</time>
      </trkpt>
      <trkpt lat="47.64753" lon="6.18608">
        <ele>257.3</ele>
        <time>2022-07-04T09:15:52Z</time>
      </trkpt>
      <trkpt lat="47.64749" lon="6.18601">
        <ele>257.3</ele>
        <time>2022-07-04T09:15:53Z</time>
      </trkpt>
      <trkpt lat="47.64745" lon="6.18594">
        <ele>257.2</ele>
        <time>2022-07-04T09:15:54Z</time>
      </trkpt>
      <trkpt lat="47.64742" lon="6.18588">
        <ele>257.2</ele>
        <time>2022-07-04T09:15:55Z</time>
      </trkpt>
      <trkpt lat="47.64738" lon="6.18581">
        <ele>257.2</ele>
        <time>2022-07-04T09:15:56Z</time>
      </trkpt>
      <trkpt lat="47.64735" lon="6.18575">
        <ele>257.2</ele>
        <time>2022-07-04T09:15:57Z</time>
      </trkpt>
      <trkpt lat="47.64731" lon="6.18568">
        <ele>257.2</ele>
        <time>2022-07-04T09:15:58Z</time>
      </trkpt>
      <trkpt lat="47.64728" lon="6.18562">
        <ele>257.2</ele>
        <time>2022-07-04T09:15:59Z</time>
      </trkpt>
      <trkpt lat="47.64725" lon="6.18556">
        <ele>257.2</ele>
        <time>2022-07-04T09:16:00Z</time>
      </trkpt>
      <trkpt lat="47.64722" lon="6.1855">
        <ele>257.2</ele>
        <time>2022-07-04T09:16:01Z</time>
      </trkpt>
      <trkpt lat="47.64719" lon="6.18545">
        <ele>257.2</ele>
        <time>2022-07-04T09:16:02Z</time>
      </trkpt>
      <trkpt lat="47.64716" lon="6.18539">
        <ele>257.2</ele>
        <time>2022-07-04T09:16:03Z</time>
      </trkpt>
      <trkpt lat="47.64713" lon="6.18533">
        <ele>257.2</ele>
        <time>2022-07-04T09:16:04Z</time>
      </trkpt>
      <trkpt lat="47.6471" lon="6.18527">
        <ele>257.1</ele>
        <time>2022-07-04T09:16:05Z</time>
      </trkpt>
      <trkpt lat="47.64707" lon="6.18521">
        <ele>257.1</ele>
        <time>2022-07-04T09:16:06Z</time>
      </trkpt>
      <trkpt lat="47.64704" lon="6.18516">
        <ele>257.1</ele>
        <time>2022-07-04T09:16:07Z</time>
      </trkpt>
      <trkpt lat="47.64701" lon="6.1851">
        <ele>257.1</ele>
        <time>2022-07-04T09:16:08Z</time>
      </trkpt>
      <trkpt lat="47.64696" lon="6.18501">
        <ele>257.1</ele>
        <time>2022-07-04T09:16:10Z</time>
      </trkpt>
      <trkpt lat="47.64692" lon="6.18493">
        <ele>257</ele>
        <time>2022-07-04T09:16:12Z</time>
      </trkpt>
      <trkpt lat="47.64687" lon="6.18486">
        <ele>257</ele>
        <time>2022-07-04T09:16:14Z</time>
      </trkpt>
      <trkpt lat="47.64681" lon="6.18478">
        <ele>256.9</ele>
        <time>2022-07-04T09:16:16Z</time>
      </trkpt>
      <trkpt lat="47.64676" lon="6.1847">
        <ele>256.7</ele>
        <time>2022-07-04T09:16:18Z</time>
      </trkpt>
      <trkpt lat="47.64672" lon="6.18465">
        <ele>256.6</ele>
        <time>2022-07-04T09:16:19Z</time>
      </trkpt>
      <trkpt lat="47.64667" lon="6.18458">
        <ele>256.5</ele>
        <time>2022-07-04T09:16:21Z</time>
      </trkpt>
      <trkpt lat="47.64659" lon="6.18448">
        <ele>256.6</ele>
        <time>2022-07-04T09:16:28Z</time>
      </trkpt>
      <trkpt lat="47.64646" lon="6.18427">
        <ele>256.9</ele>
        <time>2022-07-04T09:16:29Z</time>
      </trkpt>
      <trkpt lat="47.64642" lon="6.18422">
        <ele>256.9</ele>
        <time>2022-07-04T09:16:36Z</time>
      </trkpt>
      <trkpt lat="47.64635" lon="6.18413">
        <ele>256.7</ele>
        <time>2022-07-04T09:16:38Z</time>
      </trkpt>
      <trkpt lat="47.64629" lon="6.18405">
        <ele>256.4</ele>
        <time>2022-07-04T09:16:40Z</time>
      </trkpt>
      <trkpt lat="47.64624" lon="6.18399">
        <ele>256.2</ele>
        <time>2022-07-04T09:16:42Z</time>
      </trkpt>
      <trkpt lat="47.64615" lon="6.1839">
        <ele>256.1</ele>
        <time>2022-07-04T09:16:45Z</time>
      </trkpt>
      <trkpt lat="47.64608" lon="6.18382">
        <ele>256.1</ele>
        <time>2022-07-04T09:16:47Z</time>
      </trkpt>
      <trkpt lat="47.64603" lon="6.18375">
        <ele>255.9</ele>
        <time>2022-07-04T09:16:48Z</time>
      </trkpt>
      <trkpt lat="47.64599" lon="6.18371">
        <ele>255.8</ele>
        <time>2022-07-04T09:16:50Z</time>
      </trkpt>
      <trkpt lat="47.64591" lon="6.18356">
        <ele>255.5</ele>
        <time>2022-07-04T09:16:53Z</time>
      </trkpt>
      <trkpt lat="47.64588" lon="6.18351">
        <ele>255.3</ele>
        <time>2022-07-04T09:16:54Z</time>
      </trkpt>
      <trkpt lat="47.64584" lon="6.18342">
        <ele>255.1</ele>
        <time>2022-07-04T09:16:56Z</time>
      </trkpt>
      <trkpt lat="47.64566" lon="6.18306">
        <ele>251.5</ele>
        <time>2022-07-04T09:16:56Z</time>
      </trkpt>
      <trkpt lat="47.64562" lon="6.18299">
        <ele>250.6</ele>
        <time>2022-07-04T09:16:57Z</time>
      </trkpt>
      <trkpt lat="47.64559" lon="6.18293">
        <ele>249.6</ele>
        <time>2022-07-04T09:16:58Z</time>
      </trkpt>
      <trkpt lat="47.64556" lon="6.18286">
        <ele>248.6</ele>
        <time>2022-07-04T09:16:59Z</time>
      </trkpt>
      <trkpt lat="47.64553" lon="6.18279">
        <ele>247.4</ele>
        <time>2022-07-04T09:17:00Z</time>
      </trkpt>
      <trkpt lat="47.64551" lon="6.1827">
        <ele>246.4</ele>
        <time>2022-07-04T09:17:01Z</time>
      </trkpt>
      <trkpt lat="47.6455" lon="6.18261">
        <ele>245.6</ele>
        <time>2022-07-04T09:17:02Z</time>
      </trkpt>
      <trkpt lat="47.64549" lon="6.18252">
        <ele>245</ele>
        <time>2022-07-04T09:17:03Z</time>
      </trkpt>
      <trkpt lat="47.64549" lon="6.18243">
        <ele>244.1</ele>
        <time>2022-07-04T09:17:04Z</time>
      </trkpt>
      <trkpt lat="47.64549" lon="6.18232">
        <ele>242.9</ele>
        <time>2022-07-04T09:17:05Z</time>
      </trkpt>
      <trkpt lat="47.6455" lon="6.18222">
        <ele>241.8</ele>
        <time>2022-07-04T09:17:06Z</time>
      </trkpt>
      <trkpt lat="47.64551" lon="6.18211">
        <ele>241</ele>
        <time>2022-07-04T09:17:07Z</time>
      </trkpt>
      <trkpt lat="47.64552" lon="6.18202">
        <ele>240.3</ele>
        <time>2022-07-04T09:17:08Z</time>
      </trkpt>
      <trkpt lat="47.64552" lon="6.18193">
        <ele>239.8</ele>
        <time>2022-07-04T09:17:09Z</time>
      </trkpt>
      <trkpt lat="47.64554" lon="6.18186">
        <ele>239.4</ele>
        <time>2022-07-04T09:17:10Z</time>
      </trkpt>
      <trkpt lat="47.64555" lon="6.18178">
        <ele>239</ele>
        <time>2022-07-04T09:17:11Z</time>
      </trkpt>
      <trkpt lat="47.64556" lon="6.18171">
        <ele>238.6</ele>
        <time>2022-07-04T09:17:12Z</time>
      </trkpt>
      <trkpt lat="47.64558" lon="6.18158">
        <ele>238.1</ele>
        <time>2022-07-04T09:17:14Z</time>
      </trkpt>
      <trkpt lat="47.64561" lon="6.18149">
        <ele>238</ele>
        <time>2022-07-04T09:17:16Z</time>
      </trkpt>
      <trkpt lat="47.64562" lon="6.1814">
        <ele>237.6</ele>
        <time>2022-07-04T09:17:18Z</time>
      </trkpt>
      <trkpt lat="47.6456" lon="6.1813">
        <ele>236.4</ele>
        <time>2022-07-04T09:17:20Z</time>
      </trkpt>
      <trkpt lat="47.64558" lon="6.18121">
        <ele>235.2</ele>
        <time>2022-07-04T09:17:27Z</time>
      </trkpt>
      <trkpt lat="47.64555" lon="6.18111">
        <ele>233.8</ele>
        <time>2022-07-04T09:17:29Z</time>
      </trkpt>
      <trkpt lat="47.64552" lon="6.18106">
        <ele>232.9</ele>
        <time>2022-07-04T09:17:30Z</time>
      </trkpt>
      <trkpt lat="47.64549" lon="6.18099">
        <ele>232.1</ele>
        <time>2022-07-04T09:17:31Z</time>
      </trkpt>
      <trkpt lat="47.64546" lon="6.1809">
        <ele>231.2</ele>
        <time>2022-07-04T09:17:33Z</time>
      </trkpt>
      <trkpt lat="47.64544" lon="6.18061">
        <ele>229.2</ele>
        <time>2022-07-04T09:17:37Z</time>
      </trkpt>
      <trkpt lat="47.64542" lon="6.18054">
        <ele>228.4</ele>
        <time>2022-07-04T09:17:38Z</time>
      </trkpt>
      <trkpt lat="47.64537" lon="6.18045">
        <ele>227.2</ele>
        <time>2022-07-04T09:17:40Z</time>
      </trkpt>
      <trkpt lat="47.64535" lon="6.18039">
        <ele>226.5</ele>
        <time>2022-07-04T09:17:41Z</time>
      </trkpt>
      <trkpt lat="47.64533" lon="6.18031">
        <ele>225.9</ele>
        <time>2022-07-04T09:17:43Z</time>
      </trkpt>
      <trkpt lat="47.6452" lon="6.18038">
        <ele>224.8</ele>
        <time>2022-07-04T09:17:47Z</time>
      </trkpt>
      <trkpt lat="47.64488" lon="6.18045">
        <ele>223.4</ele>
        <time>2022-07-04T09:17:47Z</time>
      </trkpt>
      <trkpt lat="47.64483" lon="6.18044">
        <ele>223.2</ele>
        <time>2022-07-04T09:17:48Z</time>
      </trkpt>
      <trkpt lat="47.64477" lon="6.1804">
        <ele>223.1</ele>
        <time>2022-07-04T09:17:50Z</time>
      </trkpt>
      <trkpt lat="47.64474" lon="6.18036">
        <ele>223</ele>
        <time>2022-07-04T09:17:57Z</time>
      </trkpt>
      <trkpt lat="47.64461" lon="6.18034">
        <ele>222.9</ele>
        <time>2022-07-04T09:18:04Z</time>
      </trkpt>
      <trkpt lat="47.64456" lon="6.18046">
        <ele>222.6</ele>
        <time>2022-07-04T09:18:13Z</time>
      </trkpt>
      <trkpt lat="47.64456" lon="6.18053">
        <ele>222.4</ele>
        <time>2022-07-04T09:18:16Z</time>
      </trkpt>
      <trkpt lat="47.64459" lon="6.18058">
        <ele>222.5</ele>
        <time>2022-07-04T09:18:24Z</time>
      </trkpt>
      <trkpt lat="47.64458" lon="6.18051">
        <ele>222.6</ele>
        <time>2022-07-04T09:22:56Z</time>
      </trkpt>
      <trkpt lat="47.64462" lon="6.18051">
        <ele>222.7</ele>
        <time>2022-07-04T09:27:45Z</time>
      </trkpt>
      <trkpt lat="47.64462" lon="6.18042">
        <ele>222.8</ele>
        <time>2022-07-04T09:28:56Z</time>
      </trkpt>
      <trkpt lat="47.64463" lon="6.18035">
        <ele>222.9</ele>
        <time>2022-07-04T09:29:00Z</time>
      </trkpt>
      <trkpt lat="47.64473" lon="6.18036">
        <ele>223</ele>
        <time>2022-07-04T09:29:01Z</time>
      </trkpt>
      <trkpt lat="47.64478" lon="6.18039">
        <ele>223.1</ele>
        <time>2022-07-04T09:29:04Z</time>
      </trkpt>
      <trkpt lat="47.64483" lon="6.18043">
        <ele>223.2</ele>
        <time>2022-07-04T09:29:06Z</time>
      </trkpt>
      <trkpt lat="47.64488" lon="6.18047">
        <ele>223.4</ele>
        <time>2022-07-04T09:29:13Z</time>
      </trkpt>
      <trkpt lat="47.64498" lon="6.18053">
        <ele>223.8</ele>
        <time>2022-07-04T09:29:13Z</time>
      </trkpt>
      <trkpt lat="47.64504" lon="6.18055">
        <ele>224.2</ele>
        <time>2022-07-04T09:29:16Z</time>
      </trkpt>
      <trkpt lat="47.64508" lon="6.18058">
        <ele>224.5</ele>
        <time>2022-07-04T09:29:19Z</time>
      </trkpt>
      <trkpt lat="47.6451" lon="6.18064">
        <ele>224.6</ele>
        <time>2022-07-04T09:29:23Z</time>
      </trkpt>
      <trkpt lat="47.64507" lon="6.18072">
        <ele>224.2</ele>
        <time>2022-07-04T09:29:32Z</time>
      </trkpt>
      <trkpt lat="47.64505" lon="6.18079">
        <ele>223.9</ele>
        <time>2022-07-04T09:29:34Z</time>
      </trkpt>
      <trkpt lat="47.64503" lon="6.1809">
        <ele>223.4</ele>
        <time>2022-07-04T09:29:36Z</time>
      </trkpt>
      <trkpt lat="47.645" lon="6.18106">
        <ele>223</ele>
        <time>2022-07-04T09:29:38Z</time>
      </trkpt>
      <trkpt lat="47.64497" lon="6.18148">
        <ele>223</ele>
        <time>2022-07-04T09:29:44Z</time>
      </trkpt>
      <trkpt lat="47.64504" lon="6.18188">
        <ele>224.6</ele>
        <time>2022-07-04T09:29:45Z</time>
      </trkpt>
      <trkpt lat="47.645" lon="6.18196">
        <ele>224.2</ele>
        <time>2022-07-04T09:29:47Z</time>
      </trkpt>
      <trkpt lat="47.64497" lon="6.18204">
        <ele>224.4</ele>
        <time>2022-07-04T09:29:49Z</time>
      </trkpt>
      <trkpt lat="47.64494" lon="6.18214">
        <ele>224.8</ele>
        <time>2022-07-04T09:29:52Z</time>
      </trkpt>
      <trkpt lat="47.64491" lon="6.18223">
        <ele>225</ele>
        <time>2022-07-04T09:29:55Z</time>
      </trkpt>
      <trkpt lat="47.64486" lon="6.18231">
        <ele>225</ele>
        <time>2022-07-04T09:30:03Z</time>
      </trkpt>
      <trkpt lat="47.64479" lon="6.18246">
        <ele>224.4</ele>
        <time>2022-07-04T09:30:06Z</time>
      </trkpt>
      <trkpt lat="47.64475" lon="6.18253">
        <ele>223.8</ele>
        <time>2022-07-04T09:30:08Z</time>
      </trkpt>
      <trkpt lat="47.64461" lon="6.18271">
        <ele>223.8</ele>
        <time>2022-07-04T09:30:10Z</time>
      </trkpt>
      <trkpt lat="47.64457" lon="6.18278">
        <ele>223.9</ele>
        <time>2022-07-04T09:30:13Z</time>
      </trkpt>
      <trkpt lat="47.64452" lon="6.18283">
        <ele>223.9</ele>
        <time>2022-07-04T09:30:16Z</time>
      </trkpt>
      <trkpt lat="47.64447" lon="6.1829">
        <ele>223.7</ele>
        <time>2022-07-04T09:30:24Z</time>
      </trkpt>
      <trkpt lat="47.64437" lon="6.18296">
        <ele>223.4</ele>
        <time>2022-07-04T09:30:28Z</time>
      </trkpt>
      <trkpt lat="47.64432" lon="6.18293">
        <ele>223.1</ele>
        <time>2022-07-04T09:30:30Z</time>
      </trkpt>
      <trkpt lat="47.64429" lon="6.18288">
        <ele>222.8</ele>
        <time>2022-07-04T09:30:31Z</time>
      </trkpt>
      <trkpt lat="47.64419" lon="6.18272">
        <ele>222.1</ele>
        <time>2022-07-04T09:30:38Z</time>
      </trkpt>
      <trkpt lat="47.64428" lon="6.18296">
        <ele>223.1</ele>
        <time>2022-07-04T09:30:39Z</time>
      </trkpt>
      <trkpt lat="47.64431" lon="6.18302">
        <ele>223.4</ele>
        <time>2022-07-04T09:30:41Z</time>
      </trkpt>
      <trkpt lat="47.64435" lon="6.18306">
        <ele>223.7</ele>
        <time>2022-07-04T09:30:43Z</time>
      </trkpt>
      <trkpt lat="47.6444" lon="6.18309">
        <ele>224</ele>
        <time>2022-07-04T09:30:45Z</time>
      </trkpt>
      <trkpt lat="47.64443" lon="6.18315">
        <ele>224.6</ele>
        <time>2022-07-04T09:30:53Z</time>
      </trkpt>
    </trkseg>
  </trk>
</gpx>